[[{"header":{"parameterUnit":"m.s-1","parameterCategory":1,"la1":30.6,"la2":29.2853,"lo1":-89.7004,"lo2":-87.6739,"dy":0.0162,"dx":0.0183,"nx":112,"ny":82,"refTime":"2024-03-15T06:00:00:Z","depth":0,"parameterNumber":2,"parameterNumberName":"U-component_of_WINDS"},"data":[0.0,0.0,0.0,0.0,0.0,0.0,0.0,0.0,0.0,0.0,0.0,0.0,0.0,0.0,0.0,0.0,0.0,0.0,0.0,0.0,0.0,0.0,0.0,0.0,0.0,0.0,0.0,0.0,0.0,0.0,0.0,0.0,0.0,0.0,0.0,0.0,0.0,0.0,0.0,0.0,0.0,0.0,0.0,0.0,0.0,0.0,0.0,0.0,0.0,0.0,0.0,0.0,0.0,0.0,0.0,0.0,0.0,0.0,0.0,0.0,0.0,0.0,0.0,0.0,0.0,0.0,0.0,0.0,0.0,0.0,0.0,0.0,0.0,0.0,0.0,0.0,0.0,0.0,0.0,0.0,0.0,0.0,0.0,0.0,0.0,0.0,0.0,0.0,0.0,0.0,0.0,1.1912,1.3682,1.4551,1.3914,1.5361,1.5168,1.2573,0.0,0.0,0.0,0.0,0.0,0.0,0.0,0.0,0.0,0.0,0.0,0.0,0.0,0.0,0.0,0.0,0.0,0.0,0.0,0.0,0.0,0.0,0.0,0.0,0.0,0.0,0.0,0.0,0.0,0.0,0.0,0.0,0.0,0.0,0.0,0.0,0.0,0.0,0.0,0.0,0.0,0.0,0.0,0.0,0.0,0.0,0.0,0.0,0.0,0.0,0.0,0.0,0.0,0.0,0.0,0.0,0.0,0.0,0.0,0.0,0.0,0.0,0.0,0.0,0.0,0.0,0.0,0.0,0.0,0.0,0.0,0.0,0.0,0.0,0.0,0.0,0.0,0.0,0.0,0.0,0.0,0.0,0.0,0.0,0.0,0.0,0.0,0.0,0.0,0.0,0.0,0.0,0.0,0.0,0.0,0.0,0.0,0.0,0.0,0.0,0.0,0.0,0.0,0.0,1.212,1.3846,1.4423,1.5061,1.6177,1.627,1.5658,1.4319,0.0,0.0,0.0,0.0,0.0,0.0,0.0,0.0,0.0,0.0,0.0,0.0,0.0,0.0,0.0,0.0,0.0,0.0,0.0,0.0,0.0,0.0,0.0,0.0,0.0,0.0,0.0,0.0,0.0,0.0,0.0,0.0,0.0,0.0,0.0,0.0,0.0,0.0,0.0,0.0,0.0,0.0,0.0,0.0,0.0,0.0,0.0,0.0,0.0,0.0,0.0,0.0,0.0,0.0,0.0,0.0,0.0,0.0,0.0,0.0,0.0,0.0,0.0,0.0,0.0,0.0,0.0,0.0,0.0,0.0,0.0,0.0,0.0,0.0,0.0,0.0,0.0,0.0,0.0,0.0,0.0,0.0,0.0,0.0,0.0,0.0,0.0,0.0,0.0,0.0,0.0,0.0,0.0,0.0,0.0,0.0,0.0,0.0,0.0,0.0,0.0,0.0,0.0,1.1757,1.2749,1.4529,1.5031,1.5477,1.6073,1.68,1.6373,1.4218,1.4346,0.0,0.0,0.0,0.0,0.0,0.0,0.0,0.0,0.0,0.0,0.0,0.0,0.0,0.0,0.0,0.0,0.0,0.0,0.0,0.0,0.0,0.0,0.0,0.0,0.0,0.0,0.0,0.0,0.0,0.0,0.0,0.0,0.0,0.0,0.0,0.0,0.0,0.0,0.0,0.0,0.0,0.0,0.0,0.0,0.0,0.0,0.0,0.0,0.0,0.0,0.0,0.0,0.0,0.0,0.0,0.0,0.0,0.0,0.0,0.0,0.0,0.0,0.0,0.0,0.0,0.0,0.0,0.0,0.0,0.0,0.0,0.0,0.0,0.0,0.0,0.0,0.0,0.0,0.0,0.0,0.0,0.0,0.0,0.0,0.0,0.0,0.0,0.0,0.0,0.0,0.0,0.0,0.0,0.0,0.0,0.0,0.0,0.0,0.0,0.0,0.0,0.0,1.3045,1.3828,1.4951,1.5748,1.6083,1.6016,1.7279,1.6901,1.404,1.4514,0.0,0.0,0.0,0.0,0.0,0.0,0.0,0.0,0.0,0.0,0.0,0.0,0.0,0.0,0.0,0.0,0.0,0.0,0.0,0.0,0.0,0.0,0.0,0.0,0.0,0.0,0.0,0.0,0.0,0.0,0.0,0.0,0.0,0.0,0.0,0.0,0.0,0.0,0.0,0.0,0.0,0.0,0.0,0.0,0.0,0.0,0.0,0.0,0.0,0.0,0.0,0.0,0.0,0.0,0.0,0.0,0.0,0.0,0.0,0.0,0.0,0.0,0.0,0.0,0.0,0.0,0.0,0.0,0.0,0.0,0.0,0.0,0.0,0.0,0.0,0.0,0.0,0.0,0.0,0.0,0.0,0.0,0.0,0.0,0.0,0.0,0.0,0.0,0.0,0.0,0.0,0.0,0.0,0.0,0.0,0.0,0.0,0.0,0.0,0.0,0.0,0.0,1.4455,1.5911,1.5672,1.6591,1.7155,1.7078,1.77,1.7013,1.4409,1.4672,0.0,0.0,0.0,0.0,0.0,0.0,0.0,0.0,0.0,0.0,0.0,0.0,0.0,0.0,0.0,0.0,0.0,0.0,0.0,0.0,0.0,0.0,0.0,0.0,0.0,0.0,0.0,0.0,0.0,0.0,0.0,0.0,0.0,0.0,0.0,0.0,0.0,0.0,0.0,0.0,0.0,0.0,0.0,0.0,0.0,0.0,0.0,0.0,0.0,0.0,0.0,0.0,0.0,0.0,0.0,0.0,0.0,0.0,0.0,0.0,0.0,0.0,0.0,0.0,0.0,0.0,0.0,0.0,0.0,0.0,0.0,0.0,0.0,0.0,0.0,0.0,0.0,0.0,0.0,0.0,0.0,0.0,0.0,0.0,0.0,0.0,0.0,0.0,0.0,0.0,0.0,0.0,0.0,0.0,0.0,0.0,0.0,0.0,0.0,0.0,0.0,0.0,1.5003,1.6022,0.0,1.7045,1.7335,1.719,1.7744,1.7002,1.4468,0.0,0.0,0.0,0.0,0.0,0.0,0.0,0.0,0.0,0.0,0.0,0.0,0.0,0.0,0.0,0.0,0.0,0.0,0.0,0.0,0.0,0.0,0.0,0.0,0.0,0.0,0.0,0.0,0.0,0.0,0.0,0.0,0.0,0.0,0.0,0.0,0.0,0.0,0.0,0.0,0.0,0.0,0.0,0.0,0.0,0.0,0.0,0.0,0.0,0.0,0.0,0.0,0.0,0.0,0.0,0.0,0.0,0.0,0.0,0.0,0.0,0.0,0.0,0.0,0.0,0.0,0.0,0.0,0.0,0.0,0.0,0.0,0.0,0.0,0.0,0.0,0.0,0.0,0.0,0.0,0.0,0.0,0.0,0.0,0.0,0.0,0.0,0.0,0.0,0.0,0.0,0.0,0.0,0.0,0.0,0.0,0.0,0.0,0.0,0.0,0.0,0.0,1.4683,1.5618,1.6465,0.0,1.7202,1.7213,1.7256,1.77,1.7024,1.4779,0.0,0.0,0.0,0.0,0.0,0.0,0.0,0.0,0.0,0.0,0.0,0.0,0.0,0.0,0.0,0.0,0.0,0.0,0.0,0.0,0.0,0.0,0.0,0.0,0.0,0.0,0.0,0.0,0.0,0.0,0.0,0.0,0.0,0.0,0.0,0.0,0.0,0.0,0.0,0.0,0.0,0.0,0.0,0.0,0.0,0.0,0.0,0.0,0.0,0.0,0.0,0.0,0.0,0.0,0.0,0.0,0.0,0.0,0.0,0.0,0.0,0.0,0.0,0.0,0.0,0.0,0.0,0.0,0.0,0.0,0.0,0.0,0.0,0.0,0.0,0.0,0.0,0.0,0.0,0.0,0.0,0.0,0.0,0.0,0.0,0.0,0.0,0.0,0.0,0.0,0.0,0.0,0.0,0.0,0.0,0.0,0.0,0.0,0.0,0.0,0.0,0.0,1.4858,1.6522,1.76,1.7257,1.6955,1.6931,1.7278,1.7545,1.7,0.0,0.0,0.0,0.0,0.0,0.0,0.0,0.0,0.0,0.0,0.0,0.0,0.0,0.0,0.0,0.0,0.0,0.0,0.0,0.0,0.0,0.0,0.0,0.0,0.0,0.0,0.0,0.0,0.0,0.0,0.0,0.0,0.0,0.0,0.0,0.0,0.0,0.0,0.0,0.0,0.0,0.0,0.0,0.0,0.0,0.0,0.0,0.0,0.0,0.0,0.0,0.0,0.0,0.0,0.0,0.0,0.0,0.0,0.0,0.0,0.0,0.0,0.0,0.0,0.0,0.0,0.0,0.0,0.0,0.0,0.0,0.0,0.0,0.0,0.0,0.0,0.0,0.0,0.0,0.0,0.0,0.0,0.0,0.0,0.0,0.0,0.0,0.0,0.0,0.0,0.0,0.0,0.0,0.0,0.0,0.0,0.0,0.0,0.0,0.0,0.0,0.0,0.0,1.6012,1.772,1.8762,1.8363,1.8147,1.7941,1.7897,1.7755,1.7168,1.6012,0.0,0.0,0.0,0.0,0.0,0.0,0.0,0.0,0.0,0.0,0.0,0.0,0.0,0.0,0.0,0.0,0.0,0.0,0.0,0.0,0.0,0.0,0.0,0.0,0.0,0.0,0.0,0.0,0.0,0.0,0.0,0.0,0.0,0.0,0.0,0.0,0.0,0.0,0.0,0.0,0.0,0.0,0.0,0.0,0.0,0.0,0.0,0.0,0.0,0.0,0.0,0.0,0.0,0.0,0.0,0.0,0.0,0.0,0.0,0.0,0.0,0.0,0.0,0.0,0.0,0.0,0.0,0.0,0.0,0.0,0.0,0.0,0.0,0.0,0.0,0.0,0.0,0.0,0.0,0.0,0.0,0.0,0.0,0.0,0.0,0.0,0.0,0.0,0.0,0.0,0.0,0.0,0.0,0.0,0.0,0.0,0.0,0.0,0.0,0.0,0.0,0.0,1.6733,1.8135,1.8987,1.8804,1.8525,1.8309,1.8255,1.8159,1.7809,1.7092,0.0,0.0,0.0,0.0,0.0,0.0,0.0,0.0,0.0,0.0,0.0,0.0,0.0,0.0,0.0,0.0,0.0,0.0,0.0,0.0,0.0,0.0,0.0,0.0,0.0,0.0,0.0,0.0,0.0,0.0,0.0,0.0,0.0,0.0,0.0,0.0,0.0,0.0,0.0,0.0,0.0,0.0,0.0,0.0,0.0,0.0,0.0,0.0,0.0,0.0,0.0,0.0,0.0,0.0,0.0,0.0,0.0,0.0,0.0,0.0,0.0,0.0,0.0,0.0,0.0,0.0,0.0,0.0,0.0,0.0,0.0,0.0,0.0,0.0,0.0,0.0,0.0,0.0,0.0,0.0,0.0,0.0,0.0,0.0,0.0,0.0,0.0,0.0,0.0,0.0,0.0,0.0,0.0,0.0,0.0,0.0,0.0,0.0,0.0,0.0,0.0,0.0,1.7246,1.8104,1.8721,1.8869,1.8471,1.8309,1.8578,1.862,1.8608,1.8394,0.0,0.0,0.0,0.0,0.0,0.0,0.0,0.0,0.0,0.0,0.0,0.0,0.0,0.0,0.0,0.0,0.0,0.0,0.0,0.0,0.0,0.0,0.0,0.0,0.0,0.0,0.0,0.0,0.0,0.0,0.0,0.0,0.0,0.0,0.0,0.0,0.0,0.0,0.0,0.0,0.0,0.0,0.0,0.0,0.0,0.0,0.0,0.0,0.0,0.0,0.0,0.0,0.0,0.0,0.0,0.0,0.0,0.0,0.0,0.0,1.3859,0.0,0.0,0.0,0.0,0.0,0.0,0.0,0.0,0.0,0.0,0.0,0.0,0.0,0.0,0.0,0.0,0.0,0.0,0.0,0.0,0.0,0.0,0.0,0.0,0.0,0.0,0.0,0.0,0.0,0.0,0.0,0.0,0.0,0.0,0.0,0.0,0.0,0.0,0.0,0.0,0.0,1.7611,1.8578,1.9263,1.9251,1.8987,1.8934,1.9198,1.8804,1.8685,1.9016,1.8632,0.0,0.0,0.0,0.0,0.0,0.0,0.0,0.0,0.0,0.0,0.0,0.0,0.0,0.0,0.0,0.0,0.0,0.0,0.0,0.0,0.0,0.0,0.0,0.0,0.0,0.0,0.0,0.0,0.0,0.0,0.0,0.0,0.0,0.0,0.0,0.0,0.0,0.0,0.0,0.0,0.0,0.0,0.0,0.0,0.0,0.0,0.0,0.0,0.0,0.0,0.0,0.0,0.0,0.0,0.0,0.0,0.0,0.0,0.0,0.0,1.43,0.0,0.0,0.0,0.0,0.0,0.0,0.0,0.0,0.0,0.0,0.0,0.0,0.0,0.0,0.0,0.0,0.0,0.0,0.0,0.0,0.0,0.0,0.0,0.0,0.0,0.0,0.0,0.0,0.0,0.0,0.0,0.0,0.0,0.0,0.0,0.0,0.0,0.0,0.0,0.0,1.8861,1.9665,2.0195,2.0195,2.0195,2.0249,2.0412,2.0224,2.0254,2.0482,2.0333,0.0,0.0,0.0,0.0,0.0,0.0,0.0,0.0,0.0,0.0,0.0,0.0,0.0,0.0,0.0,0.0,0.0,0.0,0.0,0.0,0.0,0.0,0.0,0.0,0.0,0.0,0.0,0.0,0.0,0.0,0.0,0.0,0.0,0.0,0.0,0.0,0.0,0.0,0.0,0.0,0.0,0.0,0.0,0.0,0.0,0.0,0.0,0.0,0.0,0.0,0.0,0.0,0.0,1.9829,1.9488,1.9012,1.789,1.7444,1.7523,1.6631,1.6451,1.6821,1.5603,0.0,0.0,0.0,0.0,0.0,0.0,0.0,0.0,0.0,0.0,0.0,0.0,0.0,0.0,0.0,0.0,0.0,0.0,0.0,0.0,0.0,0.0,0.0,0.0,1.8331,1.8393,0.0,0.0,0.0,0.0,0.0,0.0,0.0,0.0,0.0,0.0,0.0,0.0,2.0274,2.0746,2.1043,2.1043,2.1325,2.1493,2.1536,2.1746,2.1898,2.1966,2.1992,2.1814,0.0,0.0,0.0,0.0,0.0,0.0,0.0,0.0,0.0,0.0,0.0,0.0,0.0,0.0,0.0,0.0,0.0,0.0,0.0,0.0,0.0,0.0,0.0,0.0,0.0,0.0,0.0,0.0,0.0,0.0,0.0,0.0,2.405,2.4461,0.0,0.0,0.0,0.0,0.0,0.0,0.0,0.0,0.0,0.0,0.0,0.0,0.0,1.9291,2.0125,2.1938,2.2225,2.1045,2.2708,2.2262,2.0019,1.9813,1.9126,1.803,1.7854,0.0,1.6564,1.6641,0.0,0.0,0.0,0.0,0.0,0.0,0.0,0.0,0.0,0.0,0.0,0.0,0.0,0.0,0.0,0.0,0.0,0.0,0.0,0.0,0.0,0.0,1.9317,1.9386,1.9467,1.9515,0.0,1.8988,1.8692,1.8817,1.9375,0.0,0.0,0.0,0.0,0.0,0.0,0.0,2.086,2.1099,2.1281,2.1281,2.1381,2.1536,2.1648,2.169,2.1856,2.2143,2.2156,2.2102,2.1882,2.1387,0.0,0.0,0.0,0.0,0.0,0.0,0.0,0.0,0.0,0.0,0.0,0.0,0.0,0.0,0.0,0.0,0.0,0.0,0.0,0.0,0.0,0.0,0.0,0.0,0.0,0.0,0.0,0.0,0.0,2.5275,2.5237,2.546,2.5626,2.5428,0.0,0.0,0.0,0.0,0.0,0.0,0.0,0.0,0.0,2.1522,2.1595,2.2239,2.3604,2.4494,2.4621,2.4005,2.4138,2.3189,2.1308,2.0539,1.9409,1.8107,1.8437,1.8261,1.7822,1.7456,1.6821,1.611,0.0,0.0,0.0,0.0,1.6626,1.689,1.8096,1.8542,0.0,1.8737,0.0,0.0,0.0,0.0,0.0,0.0,0.0,0.0,0.0,0.0,1.9437,1.9973,2.009,2.0182,2.0458,2.0442,2.0278,0.0,2.0482,2.0885,2.1267,0.0,0.0,0.0,0.0,0.0,2.1893,2.2083,2.2201,2.2201,2.2305,2.241,2.2468,2.2642,2.2815,2.3,2.3171,2.3241,2.3184,2.2642,2.2222,0.0,0.0,0.0,0.0,0.0,0.0,0.0,0.0,0.0,0.0,0.0,0.0,0.0,0.0,0.0,0.0,0.0,0.0,0.0,0.0,0.0,0.0,0.0,0.0,0.0,0.0,0.0,0.0,2.5497,2.5368,2.561,2.5497,2.5337,0.0,0.0,0.0,0.0,0.0,0.0,2.1022,2.1066,2.198,2.3968,2.4044,2.4742,2.6187,2.622,2.622,2.6187,2.5379,2.409,2.2352,2.1544,2.0176,1.8508,1.8931,1.9091,1.9069,1.8351,1.7889,1.7641,1.7184,1.6932,1.6906,1.7568,1.7943,1.8302,1.9446,1.9878,1.9925,1.976,0.0,1.9406,1.8605,0.0,0.0,0.0,0.0,1.945,1.9809,2.0101,2.046,2.1184,2.1239,2.1321,2.1794,2.1959,2.1888,0.0,2.1591,2.2138,2.285,0.0,0.0,0.0,0.0,2.2456,2.2804,2.3051,2.3138,2.2969,2.3017,2.3138,2.3198,2.339,2.3569,2.3688,2.3936,2.4067,2.4112,2.376,2.3522,2.333,0.0,0.0,0.0,0.0,0.0,0.0,0.0,0.0,0.0,0.0,0.0,0.0,0.0,0.0,0.0,0.0,0.0,0.0,0.0,0.0,0.0,0.0,0.0,0.0,0.0,0.0,0.0,0.0,0.0,2.5329,2.4974,0.0,0.0,0.0,0.0,1.9985,1.9764,2.0702,2.3035,2.3144,2.4044,2.6,2.603,2.6112,2.622,2.622,2.622,2.622,2.6828,2.5652,2.2882,2.3519,2.2269,1.962,1.9643,1.9654,1.9654,1.962,1.9301,1.8922,1.9052,1.8671,1.8287,1.9041,1.9231,1.9231,1.9866,2.0053,2.0053,1.9948,1.9606,1.919,1.919,1.9138,0.0,0.0,2.0736,2.1781,2.2279,2.3084,2.3766,2.3805,2.3578,2.3431,2.3785,2.376,2.3411,0.0,2.2811,2.3331,2.3689,0.0,2.4211,2.3825,2.4112,2.4104,2.3441,2.3736,2.378,2.3138,2.3078,2.3198,2.3403,2.3403,2.3522,2.3832,2.3891,2.3949,2.4112,2.4054,2.3747,2.3138,2.3078,0.0,0.0,0.0,0.0,0.0,0.0,0.0,0.0,0.0,0.0,0.0,0.0,0.0,0.0,0.0,0.0,0.0,0.0,0.0,0.0,0.0,0.0,0.0,0.0,0.0,0.0,0.0,0.0,2.5176,2.4958,0.0,2.4118,2.3744,2.3505,2.344,2.3196,2.3679,2.5075,2.518,2.5704,2.6869,2.6899,2.7131,2.7595,2.7611,2.7611,2.7611,2.786,2.6997,2.5092,2.537,2.3919,2.1196,2.1557,2.1096,2.0182,2.0504,2.0251,1.9606,1.9559,1.9477,1.9488,1.989,2.0125,2.034,2.0799,2.0988,2.1073,2.0927,2.068,2.0506,2.0506,2.0495,2.0659,2.1459,2.1979,2.2506,2.3288,2.3741,2.3989,2.3989,2.3903,2.3844,2.3975,2.3961,2.3884,2.3777,2.375,2.3722,2.3681,2.3816,2.3881,2.3803,2.4134,2.4279,2.4015,2.4046,2.4015,2.378,2.3365,2.3138,2.3198,2.333,2.3463,2.3582,2.3641,2.376,2.3747,2.3747,2.3688,2.345,2.3437,2.3078,0.0,0.0,0.0,0.0,0.0,0.0,0.0,0.0,0.0,0.0,0.0,0.0,0.0,0.0,0.0,0.0,0.0,0.0,0.0,0.0,0.0,0.0,0.0,0.0,0.0,0.0,2.421,2.5137,2.4704,2.4477,2.4895,2.4533,2.4517,2.5082,2.5243,2.5637,2.6315,2.6726,2.7164,2.7665,2.7682,2.7931,2.8412,2.8412,2.8412,2.8412,2.8622,2.7975,2.6578,2.6827,2.5603,2.3352,2.3702,2.2928,2.1495,2.1815,2.1317,2.0352,2.0243,2.0292,2.0507,2.06,2.0777,2.1008,2.1283,2.1411,2.1498,2.1411,2.1285,2.123,2.1605,2.1676,2.1876,2.2809,2.3317,2.3693,2.4312,2.4697,2.4941,2.4941,2.4856,2.4785,2.4785,2.4785,2.4783,2.4846,2.4481,2.4154,2.4076,2.4076,2.4132,2.4332,2.4643,2.4808,2.4681,2.4702,2.4637,2.4408,2.3989,2.3754,2.3754,2.3675,2.3734,2.4015,2.3897,2.3852,2.3897,2.3708,2.3471,2.3185,2.3125,2.2896,2.2482,0.0,0.0,0.0,0.0,0.0,0.0,0.0,0.0,0.0,0.0,0.0,0.0,0.0,0.0,0.0,0.0,0.0,0.0,0.0,0.0,0.0,0.0,0.0,2.4489,2.3857,2.3773,2.5198,2.4184,2.3724,2.4539,2.425,2.4139,2.4457,2.5548,2.6334,2.662,2.7728,2.839,2.8406,2.8423,2.8423,2.8478,2.8478,2.8478,2.8456,2.9118,2.8666,2.7228,2.7944,2.7434,2.5976,2.5976,2.5049,2.357,2.357,2.2676,2.1319,2.1267,2.1221,2.1221,2.1221,2.1221,2.1221,2.1221,2.1215,2.1225,2.1225,2.1269,2.1476,2.2352,2.2634,2.2858,2.3793,2.4715,2.5416,2.5446,2.6118,2.6779,2.6779,2.6539,2.6336,2.6351,2.6351,2.615,2.5592,2.4989,2.4646,2.4959,2.5005,2.5121,2.5445,2.5716,0.0,2.5464,2.5679,2.5671,2.505,2.4951,2.4951,2.4951,2.4452,2.4408,2.5119,2.4624,2.4408,2.4509,2.3865,2.3217,2.2494,2.2286,2.2384,2.2739,0.0,0.0,0.0,0.0,0.0,0.0,0.0,0.0,0.0,0.0,0.0,0.0,0.0,0.0,0.0,0.0,0.0,0.0,0.0,0.0,0.0,0.0,2.3389,2.3788,2.304,2.2905,2.3948,2.3493,2.357,2.4925,2.4593,2.4759,2.5905,2.6295,2.6661,2.707,2.7444,2.7948,2.8756,2.8772,2.9141,2.993,2.993,2.993,2.993,3.0129,2.9984,2.9592,2.9765,2.9028,2.7567,2.7567,2.6685,2.5245,2.5245,2.4978,2.44,2.2086,2.1221,2.1221,2.1221,2.1221,2.1221,2.1221,2.1629,2.2203,2.2203,2.2671,2.3309,2.3655,2.3771,2.3986,2.5005,2.5505,2.5861,2.6527,2.6909,2.7078,2.6951,2.6884,2.6765,2.6659,2.6659,2.65,2.5907,2.5633,2.5419,2.5053,2.5005,2.5025,2.5112,2.5397,0.0,2.5745,2.5633,2.5408,2.5066,2.4624,2.435,2.435,2.4176,2.435,2.5007,2.4908,2.4851,2.4851,2.4711,2.4469,2.431,2.3995,2.3878,0.0,0.0,0.0,0.0,0.0,0.0,0.0,0.0,0.0,0.0,0.0,0.0,0.0,0.0,0.0,0.0,0.0,0.0,0.0,0.0,0.0,0.0,2.4149,2.3754,2.3754,2.2975,2.2871,2.4253,2.3766,2.3786,2.5032,2.5001,2.5167,2.6001,2.6714,2.7256,2.7462,2.7965,2.849,2.9108,2.9632,3.0205,3.0761,3.1229,3.148,3.1421,3.1421,3.1464,3.1506,3.1437,3.0939,0.0,3.0125,2.9209,2.7786,2.7786,2.7387,0.0,0.0,0.0,0.0,0.0,2.316,2.316,2.316,2.3389,2.365,2.365,2.3864,2.4252,2.4736,2.4877,2.5081,2.6109,2.6401,2.6512,2.7085,2.7181,2.7181,2.7093,2.7093,2.6989,2.675,2.6779,2.6674,2.6002,2.5988,0.0,2.53,2.5075,2.5049,2.5164,2.5389,2.5606,2.5862,2.5735,2.5558,2.5384,2.5077,2.4846,2.4846,2.4613,0.0,0.0,0.0,2.4863,2.458,2.4346,0.0,0.0,0.0,2.406,2.4329,0.0,0.0,0.0,2.2829,2.2733,0.0,0.0,0.0,0.0,0.0,0.0,0.0,0.0,0.0,0.0,0.0,0.0,0.0,0.0,0.0,0.0,2.4679,2.419,2.4261,2.3546,2.3611,2.5213,2.4531,2.4276,2.515,2.539,2.55,2.556,2.6965,2.7889,2.7905,0.0,0.0,0.0,0.0,3.1218,3.1144,3.2276,3.2768,3.2635,3.2741,3.2829,3.2917,3.2785,3.2829,3.2917,3.2724,3.188,3.0597,3.0538,2.964,2.8186,2.671,2.6137,2.6118,2.5983,2.5926,2.5906,2.5772,0.0,0.0,2.5182,2.4985,2.4898,2.575,2.6017,2.6208,2.7026,2.7284,2.7284,2.7284,2.7284,2.7269,2.7233,2.7233,2.7115,2.6669,2.6803,2.6832,2.6111,2.619,2.6136,2.5647,2.53,2.5134,2.539,2.5426,2.5541,2.5812,2.5853,2.5847,2.5805,0.0,0.0,2.5808,2.531,2.5252,2.5865,2.5407,2.4824,2.4234,2.3708,2.3419,2.3419,2.3419,2.3706,2.4309,2.4309,2.4309,2.4295,2.3754,2.343,0.0,0.0,0.0,0.0,0.0,0.0,0.0,0.0,0.0,0.0,0.0,0.0,0.0,0.0,0.0,2.5726,2.5129,2.4861,2.543,2.5148,2.4883,2.4927,2.4426,2.4562,2.5766,2.5625,2.5879,2.6996,2.7394,2.8024,2.903,2.9283,2.979,3.0602,3.0842,3.1101,3.1406,3.2099,3.2409,3.2364,0.0,0.0,3.3064,3.3004,3.3064,3.3064,3.259,3.215,3.1724,3.1314,3.0858,3.0229,2.8326,2.7591,2.7475,2.6497,2.6138,2.6002,2.5035,2.5116,2.5654,2.5654,2.6188,2.6888,2.7149,2.7313,0.0,2.778,2.7855,2.7855,2.7855,2.7755,2.764,2.7524,2.7437,2.7284,2.7115,2.713,2.7026,2.663,2.651,2.6365,2.6071,2.5647,2.5328,2.5152,2.5089,2.5227,2.5544,2.5572,2.5466,2.5197,2.5175,2.5175,2.5175,2.5078,2.5252,2.5865,2.5789,2.5675,2.5539,2.5425,2.5367,2.5367,2.5367,2.5426,2.5541,2.5541,2.5541,2.5523,2.4461,2.3961,0.0,0.0,0.0,0.0,0.0,0.0,0.0,0.0,0.0,0.0,0.0,2.705,2.6901,0.0,2.6687,2.6362,2.5994,2.5923,2.6242,2.6197,2.6029,2.58,2.5331,2.5327,2.6096,2.6087,2.6321,2.7041,2.769,2.8291,2.891,2.9258,2.98,3.0521,3.1052,3.153,3.1929,3.2708,3.3064,3.3016,3.3352,3.3557,3.3604,3.3557,3.3557,3.3604,3.3161,3.2967,3.2869,3.2638,3.2421,3.2273,3.1242,3.0299,2.9442,2.8934,2.8746,2.8672,2.8067,2.8017,2.8269,2.8269,2.8478,2.8718,2.8755,2.8858,2.8849,2.8596,2.8505,2.843,2.8096,2.7955,2.7905,2.784,2.769,2.7539,2.7423,2.7335,2.7233,2.7011,2.6893,2.6736,2.6472,2.6165,2.5893,2.5508,2.5453,2.5531,2.5691,2.557,2.5445,2.5282,2.5101,2.5073,2.5227,2.5255,2.5446,2.5858,2.5617,2.56,2.5893,2.5773,2.5756,2.5893,2.5893,2.5893,2.5893,2.5893,2.5893,2.5876,2.5269,2.4874,0.0,0.0,0.0,0.0,0.0,0.0,0.0,0.0,2.7016,2.6747,2.7118,2.738,2.6868,2.727,2.7494,2.6974,2.6846,2.6846,2.6884,2.6884,2.6884,2.6884,2.6394,2.615,2.6297,2.651,2.6674,2.691,2.7815,2.8494,2.8853,2.9391,2.9913,3.0464,3.1274,3.1939,3.23,3.3252,3.3745,3.3694,3.3899,3.405,3.4151,3.405,3.4101,3.4151,3.3781,3.3539,3.3435,3.3382,3.3382,3.3382,3.3382,3.2435,3.1049,3.1315,3.1381,3.1365,3.1189,3.0861,3.0592,3.0643,3.0402,3.0053,3.0105,3.0105,3.0014,2.9495,2.9343,2.922,2.8671,2.8393,2.8252,2.8252,2.8046,2.779,2.7675,2.759,2.7503,2.7386,2.7335,2.7167,2.6945,2.6721,2.6472,2.6002,2.5893,2.5893,2.5893,2.5702,2.5605,2.5605,2.5355,2.53,2.5536,2.5605,2.5647,2.5893,2.5453,2.5397,2.5893,2.5702,2.5702,2.5893,2.5893,2.5893,2.5893,2.5893,2.5893,2.5893,2.5934,2.575,2.6571,2.6631,2.6438,2.6415,2.7074,2.7545,0.0,0.0,2.7701,2.735,2.707,2.6997,2.7405,2.7174,2.6974,2.713,2.7041,2.7003,2.713,2.7181,2.7181,2.7181,2.6884,2.6606,2.6351,2.6336,2.6687,2.7534,2.769,2.8502,3.0167,3.0357,3.0672,3.1297,3.1444,3.1773,3.2195,3.281,3.3282,3.371,3.4201,3.4448,3.4448,3.4448,3.4448,3.4399,3.3578,3.2911,3.2358,3.2262,3.2206,3.2206,3.2302,3.1803,3.1075,3.1576,3.1753,3.1623,3.0634,3.0293,3.0278,3.0366,3.0418,3.0366,3.0521,3.0536,3.0536,3.0612,3.0581,3.0565,3.0487,2.9871,2.9258,2.9258,2.8629,2.7955,2.7955,2.7955,2.7905,2.7905,2.774,2.7524,2.7524,2.7269,2.6855,2.6165,2.6002,2.5893,2.5893,2.5893,2.5853,2.5853,2.5839,2.5784,2.5839,2.5853,2.5839,2.5893,2.5839,2.5839,2.5893,2.5839,2.5839,2.5893,2.5893,2.5893,2.5893,2.5893,2.5893,2.5893,2.6136,2.6096,2.7065,2.7426,0.0,0.0,2.7531,2.7601,2.7205,2.7415,2.7645,2.7335,2.713,2.7078,2.7321,2.7181,2.7078,0.0,2.713,2.7144,2.7181,2.7181,2.7181,2.7181,2.7078,2.6922,2.6712,2.7016,2.735,2.7694,2.839,2.9157,2.9927,3.0366,3.0807,3.1379,3.1263,3.1537,3.2287,3.2437,3.278,3.3256,3.3555,3.371,3.3678,3.3246,3.2796,3.2328,3.1958,3.1649,3.1365,3.1312,3.1327,3.1327,3.1365,3.1195,3.0942,3.1418,3.131,3.0923,3.0541,3.0464,3.0567,3.0618,3.0618,3.0654,3.0705,3.0721,3.0643,3.0289,3.023,3.0136,2.9746,2.937,2.9055,2.9055,2.9002,2.8824,2.8342,2.8458,2.856,2.8179,2.8039,2.7974,2.8039,2.789,2.7675,2.7357,2.6945,2.6645,2.6645,2.6486,2.6312,2.6136,2.6258,2.6365,2.6365,2.6365,2.6472,2.6765,2.6418,2.6365,2.6645,2.6472,2.6379,2.6394,2.6394,2.65,2.6645,2.6645,2.6698,2.6765,2.6907,2.6855,2.755,0.0,0.0,2.784,2.7625,2.7524,2.759,2.7575,2.7423,2.7233,2.7181,2.7233,2.7233,2.7233,0.0,2.7284,2.7284,2.7284,2.7335,2.7386,2.7386,2.7386,2.7386,2.7358,2.7394,2.7715,2.8017,2.8286,2.9102,2.9697,2.9944,3.0543,3.1087,3.1437,3.1422,3.1751,3.2547,3.2398,3.2431,3.2723,3.2814,3.2825,3.2672,3.2136,3.153,3.0908,3.0888,3.0838,3.0787,3.0787,3.0787,3.0787,3.0787,3.0713,3.0654,3.0985,3.083,3.0531,3.067,3.0772,3.0838,3.0888,3.0888,3.0888,3.0989,3.0939,3.0795,3.0394,3.0237,3.0078,2.9577,2.9311,2.9123,2.9123,2.9261,2.9242,2.8649,2.883,2.8931,2.8488,2.8332,2.8332,2.8444,2.8486,2.856,2.856,2.8263,2.7927,2.7431,2.71,2.6878,2.6654,2.6826,2.6945,2.6945,2.6945,2.71,2.7437,2.7049,2.6945,2.7284,2.7063,2.6945,2.7026,2.7026,2.713,2.7321,2.7321,2.7386,2.7452,2.7452,2.7386,0.0,0.0,2.8383,2.7925,2.7488,2.7218,2.7233,2.7233,2.7233,2.7181,2.7181,2.7233,2.735,2.7284,2.7284,2.7524,2.7488,2.7488,2.774,2.779,2.779,2.779,2.779,2.7946,0.0,2.8071,2.8437,2.9724,2.9668,2.9959,3.0703,3.1349,3.1736,3.189,3.2114,3.2501,3.2986,3.2749,3.2507,3.2297,3.2297,3.2101,3.1646,3.163,3.1469,3.1291,3.1108,3.0939,3.0787,3.0787,3.0787,3.0787,3.0787,3.0501,3.0148,3.0291,3.0508,3.0787,3.0923,3.0974,3.1039,3.1173,3.1124,3.1074,3.1436,3.1288,3.1074,3.1453,3.1339,3.1126,3.111,3.0557,2.9972,2.9972,2.939,2.8826,2.8794,2.881,2.8826,2.8794,2.8684,2.8573,2.8573,2.9018,2.9385,2.9385,2.9889,2.969,2.8006,2.7675,2.7575,2.756,2.7575,2.7575,2.7575,2.7575,2.7575,2.7575,2.7575,2.7575,2.7575,2.7575,2.7575,2.7575,2.7575,2.7575,2.7575,2.7575,2.7575,2.7575,2.7575,2.7575,0.0,0.0,2.8332,2.8005,2.7855,2.7755,2.7755,2.7755,2.7705,2.764,2.759,2.759,2.7524,2.759,2.764,2.774,2.7755,2.7806,2.7905,2.7905,2.7905,2.7905,2.7905,0.0,0.0,0.0,0.0,2.9954,3.0367,3.072,3.0999,3.1176,3.1336,3.1394,3.1452,3.1724,3.2145,3.2048,3.1894,3.1716,3.1249,3.0725,3.017,3.017,2.992,2.9482,2.945,2.9417,2.9481,2.9481,2.9481,2.9481,2.9832,2.9861,2.9731,3.0093,3.0315,3.0373,3.0266,3.022,3.022,3.0266,3.0266,3.022,3.0357,3.0312,3.022,3.0357,3.0357,3.025,3.025,3.009,2.9913,2.9974,2.9968,2.9831,2.937,2.9531,2.9674,2.9232,2.9198,2.934,2.9548,2.9767,2.9868,2.9863,2.9807,2.9535,2.8939,2.8412,2.8137,2.8137,2.8137,2.8137,2.8137,2.8137,2.8186,2.8268,2.8268,2.822,2.8137,2.8137,2.8024,2.783,2.7775,2.7875,2.8107,2.8024,2.8073,2.8268,2.8268,2.8449,0.0,2.851,2.8429,2.8103,2.802,2.802,2.802,2.802,2.7955,2.7905,2.7855,2.784,2.7675,2.779,2.7855,2.779,2.7905,2.7955,2.7775,2.776,2.7675,2.7473,2.7631,0.0,0.0,0.0,0.0,3.0522,3.0881,3.1132,3.119,3.1336,3.1509,3.1567,3.1682,3.1838,3.2104,3.2007,3.1662,3.1012,3.049,2.9844,2.9242,2.929,2.909,2.8795,2.8716,2.8732,2.8794,2.8794,2.8794,2.8842,2.9137,2.9305,2.9364,2.9694,2.987,2.993,2.9694,2.9633,2.9633,2.9572,2.9572,2.9677,2.9924,2.9968,2.9897,2.9766,2.9853,2.9897,2.9677,2.9677,2.9722,2.9782,2.9884,2.9752,2.9354,2.9531,2.9627,2.9216,2.9213,2.9373,2.9831,3.0282,3.0643,3.0906,3.0483,3.0063,2.9917,2.9697,2.9529,2.9399,2.9181,2.8978,2.8896,2.868,2.8604,2.8684,2.8763,2.8748,2.8653,2.8668,2.859,2.8528,2.8383,2.8446,2.8732,2.8653,2.8729,2.9026,2.9026,2.9335,2.8779,2.8638,2.8559,2.8137,2.802,2.8005,2.8005,2.8005,2.802,2.8005,2.8005,2.7955,0.0,0.0,2.7955,2.784,2.7905,2.7825,2.7348,2.7297,2.7093,0.0,0.0,0.0,0.0,0.0,0.0,3.1319,0.0,3.1132,3.1219,3.1751,3.2145,3.2327,3.2586,3.2749,3.2749,3.2446,3.1705,3.0428,3.0071,2.9531,2.892,2.9045,2.9075,2.9044,2.8858,2.8747,2.8794,2.8794,2.8794,2.8794,2.8794,2.8951,2.912,2.912,2.9319,2.947,2.9335,2.9305,2.9305,2.9182,2.9198,2.9425,3.0054,3.0199,3.0103,2.9677,2.987,3.0017,2.9486,2.938,2.9515,2.9515,2.9137,2.8794,2.8842,2.8842,2.8794,2.8794,2.8778,2.8931,2.9518,3.0634,3.169,3.229,3.1874,3.1334,3.0896,3.129,3.1486,3.1225,3.0672,3.0196,2.9922,2.9343,2.8983,2.8983,2.9138,2.9213,2.9213,2.9198,2.9303,2.9633,2.9457,2.9398,2.9398,2.943,2.9611,2.9922,2.9922,3.0282,2.8012,2.7864,2.7913,2.8332,2.8348,2.8314,2.8314,2.8314,2.825,2.8152,2.8137,2.8088,0.0,0.0,0.0,2.8088,2.781,0.0,2.7464,2.7093,0.0,0.0,0.0,2.7871,2.8677,2.9045,0.0,0.0,3.0433,3.0312,3.0176,3.0896,3.1306,3.1364,3.1894,3.215,3.2053,3.148,3.111,3.083,3.0234,2.9613,2.8985,2.9035,2.8793,2.8414,2.8381,2.8396,2.8508,2.8589,2.8636,2.8684,2.9045,2.9213,2.9289,2.9544,2.9661,2.9677,2.9182,2.9198,2.9425,2.9425,2.9425,2.947,2.9633,2.9677,2.9649,2.956,2.9605,2.9649,2.947,2.947,2.9515,2.9544,2.9273,2.9059,2.9167,2.9106,2.9013,2.9013,2.9704,3.0579,3.1385,3.1849,3.2198,3.2367,3.2656,3.2457,3.1508,3.1442,3.1323,3.0923,3.1454,3.1625,3.1166,3.1339,3.1459,3.1459,3.0985,3.0738,3.0738,3.0189,2.9957,3.006,3.0433,3.0693,3.0782,3.1213,3.1586,3.1718,3.1625,3.195,2.7894,2.7845,2.7944,2.8525,2.8652,2.8556,2.8556,2.8556,2.8493,2.8381,2.8332,0.0,0.0,0.0,0.0,0.0,0.0,0.0,2.6849,2.6549,2.6229,0.0,2.6708,0.0,2.8197,2.8714,2.9195,0.0,3.0007,3.019,3.0297,3.0718,3.1146,3.1452,3.1811,3.194,3.1898,3.1505,3.1228,3.0995,3.0708,3.0175,2.9535,2.9638,2.9373,2.8827,0.0,2.8755,2.8604,2.8652,2.8684,2.8732,2.8951,2.9091,2.9091,2.9305,2.9335,2.9289,2.8982,2.8982,2.9183,2.9243,2.9289,2.9364,2.9649,2.9738,2.9677,2.9409,2.9499,2.9633,2.9319,2.9289,2.9319,2.9364,2.9136,2.892,2.8982,2.8982,2.9014,2.9265,3.0092,3.1009,3.1696,3.2168,3.2398,3.2398,3.2687,3.271,3.209,3.238,3.2444,3.2037,3.2222,3.2208,3.1784,3.1807,3.1774,3.1774,3.1481,3.1302,3.1239,3.0806,3.0642,3.0823,3.1045,3.1209,3.1302,3.1643,3.1903,3.2112,3.2079,3.2414,2.7925,2.8073,2.8186,2.8652,2.8747,2.8794,2.8794,2.8684,2.8573,2.8573,0.0,0.0,2.8235,0.0,2.8186,2.7449,0.0,2.7056,2.6096,2.5893,2.5674,2.5118,2.6136,2.7051,2.7617,2.8257,2.8766,2.9247,2.9685,3.0176,3.0777,3.0896,3.1321,3.2109,3.2094,3.2094,3.2094,3.2038,3.1749,3.1241,3.128,3.0968,3.0326,3.0535,3.0217,2.957,2.972,0.0,2.8776,2.8776,2.8729,2.8652,2.8652,2.8652,2.8652,2.8652,2.8652,2.8652,2.87,2.8747,2.8747,2.8842,2.8967,2.9136,2.971,2.9826,2.9722,2.9227,2.9454,2.9677,2.9044,2.8951,2.9044,2.9044,2.8842,2.8636,2.8636,2.8809,2.9074,2.9695,3.0328,3.0959,3.1573,3.2122,3.2508,3.2563,3.2547,3.2602,3.2749,3.3559,3.3899,3.3503,3.3067,3.2634,3.2345,3.1874,3.1591,3.1591,3.1693,3.171,3.1532,3.1388,3.147,3.1788,3.1742,3.1662,3.1613,3.1709,3.1911,3.2154,3.2154,3.25,2.7019,2.7312,2.763,2.8284,2.8652,2.8747,2.8684,2.8636,0.0,0.0,0.0,2.8411,2.8348,2.8396,0.0,2.7565,0.0,0.0,0.0,0.0,2.555,0.0,0.0,0.0,0.0,0.0,0.0,0.0,0.0,2.9449,2.9766,3.0375,3.1334,3.2679,3.2578,3.2508,3.2484,3.2413,3.2351,3.2299,3.2038,3.1576,3.1014,3.0673,3.0147,2.9507,2.9546,0.0,2.8589,2.8662,2.841,2.7989,2.7989,2.7989,2.794,2.7825,2.7825,2.7875,2.8186,2.8396,2.8508,2.8732,2.8826,2.8873,2.8967,2.9014,2.9014,2.8873,2.892,2.8967,2.8826,2.8826,2.8826,2.8826,2.8794,2.8747,2.8747,2.9216,2.9842,3.0629,3.1334,3.2107,3.2835,3.3055,3.324,3.3435,3.3471,3.3575,3.3832,3.3866,3.3713,3.3346,3.4235,3.4605,3.4105,3.4394,3.4565,3.4565,3.4018,3.3686,3.3669,3.2994,3.2707,3.2752,3.3399,3.3578,3.336,3.3968,3.4186,3.4055,3.4154,3.4071,2.6864,2.7225,2.7645,2.8042,2.8477,2.8684,2.8301,0.0,0.0,0.0,0.0,2.7545,2.7545,0.0,0.0,0.0,0.0,0.0,0.0,0.0,0.0,0.0,0.0,0.0,0.0,0.0,0.0,0.0,0.0,2.9574,3.0011,3.0733,3.1465,3.2135,3.2064,3.2048,3.2007,3.1936,3.1936,3.2007,3.1853,3.163,3.1369,3.12,3.0728,3.0113,3.0223,0.0,2.923,2.9372,2.9031,2.8505,2.854,2.8393,2.8088,2.8039,2.8039,2.8039,2.825,2.8348,2.8396,2.8556,2.8732,2.8858,2.8905,2.8905,2.8842,2.8842,2.8842,2.8858,2.8794,2.8794,2.8794,2.8794,2.8826,2.8858,2.8951,2.9501,3.0273,3.1147,3.1926,3.2676,3.3582,3.371,3.3745,3.3899,3.3899,3.3949,3.4101,3.4134,3.4018,3.3642,3.4201,3.4448,3.4201,3.4448,3.4546,3.4546,3.4234,3.3989,3.3941,3.3597,3.3337,3.3337,3.3761,3.3892,3.373,3.4071,3.4201,3.4101,3.4151,3.4101,2.6625,2.7188,2.771,2.7765,2.8301,2.8636,2.8027,2.778,0.0,0.0,0.0,2.673,2.6834,0.0,0.0,0.0,0.0,0.0,0.0,0.0,0.0,0.0,0.0,0.0,0.0,0.0,0.0,0.0,0.0,0.0,3.0524,3.1233,3.1595,3.1595,3.1595,3.1595,3.1552,3.1552,3.1552,3.1552,3.1495,3.148,3.148,3.1567,3.1282,3.0788,3.09,0.0,0.0,3.0068,2.9728,2.9122,2.921,2.888,2.8366,2.8366,2.8274,2.8152,2.825,2.825,2.8299,2.8348,2.8573,2.8826,2.8905,2.8889,2.8779,2.8779,2.8779,2.8795,2.8747,2.87,2.87,2.87,2.87,2.8748,2.9061,2.9705,3.046,3.1385,3.2133,3.2886,3.3633,3.3729,3.3781,3.4,3.4,3.4101,3.43,3.4497,3.4497,3.425,3.4151,3.4101,3.4101,3.4151,3.4151,3.4151,3.4201,3.4151,3.405,3.4,3.4,3.4,3.3949,3.3949,3.3848,3.3848,3.3848,3.3797,3.3848,3.3848,2.5901,2.664,2.7348,2.7348,2.8091,2.8589,2.7879,0.0,0.0,0.0,2.673,2.6834,2.7363,2.7464,0.0,0.0,0.0,0.0,0.0,0.0,0.0,0.0,0.0,0.0,0.0,0.0,0.0,0.0,0.0,0.0,3.0777,3.1465,3.1879,3.1879,3.1879,3.1823,3.1682,3.1682,3.1682,3.1682,3.1452,3.1394,3.148,3.1234,3.1102,3.1043,3.1102,0.0,0.0,3.0081,2.9711,2.9119,2.9119,2.8719,2.821,2.821,2.7839,2.7386,2.774,2.7855,2.7905,2.8299,2.8396,2.8444,2.8444,2.846,2.8444,2.8444,2.8444,2.8444,2.846,2.846,2.8396,2.8284,2.814,2.8179,2.8955,2.9695,3.0452,3.125,3.1967,3.2431,3.2547,3.2563,3.2819,3.3642,3.3745,3.405,3.4899,3.5041,3.5088,3.5152,3.4947,3.4804,3.4804,3.4899,3.4994,3.4994,3.5088,3.5152,3.5152,3.5058,3.4994,3.4994,3.4851,3.4643,3.4448,3.4448,3.43,3.405,3.43,3.425,2.5194,2.6155,2.7137,2.6797,2.7225,2.7595,2.6811,0.0,0.0,2.5797,2.5687,2.5742,2.5946,2.6283,2.6549,0.0,0.0,0.0,0.0,0.0,0.0,0.0,0.0,0.0,0.0,0.0,0.0,0.0,0.0,0.0,3.0673,3.097,3.1146,3.1146,3.1146,3.1087,3.1043,3.1102,3.1161,3.1161,3.1176,3.119,3.1234,3.1132,3.1087,3.1087,3.1087,0.0,0.0,3.0776,3.0448,2.9799,2.9896,2.9565,2.9015,2.9015,2.8598,2.8099,2.8255,2.8021,2.7725,2.789,2.794,2.7989,2.8299,2.8411,2.8411,2.8411,2.8411,2.8411,2.8411,2.8411,2.8411,2.8348,2.8284,2.8388,2.9046,2.9787,3.0582,3.1486,3.2206,3.2695,3.2964,3.3018,3.314,3.3642,3.3949,3.43,3.4691,3.4994,3.5245,3.5291,3.5198,3.5152,3.5152,3.5198,3.5198,3.5198,3.5291,3.5291,3.5291,3.5245,3.5198,3.5198,3.5152,3.5105,3.4994,3.4994,3.4947,3.4835,3.4947,3.4899,2.4403,2.5406,2.6504,2.6254,2.6602,2.6745,0.0,0.0,2.5674,2.4935,2.4878,2.5061,2.523,2.566,2.6096,2.6258,0.0,0.0,0.0,0.0,0.0,0.0,0.0,0.0,0.0,0.0,0.0,0.0,0.0,0.0,3.0312,3.0312,3.0387,3.0568,3.0642,3.0642,3.0642,3.0821,3.0895,3.0895,3.1073,3.1132,3.1132,3.119,3.119,3.119,3.119,0.0,0.0,3.1292,3.1083,3.0651,3.0765,3.0417,2.9864,2.9864,2.9445,2.8891,2.8891,2.8577,2.821,2.821,2.8038,2.7991,2.8343,2.8305,2.8152,2.8152,2.8152,2.8152,2.8152,2.8152,2.8103,2.8103,2.8054,2.8282,2.9103,2.9718,3.0433,3.152,3.2114,3.2532,3.2873,3.2926,3.3033,3.3366,3.3764,3.4118,3.4497,3.4899,3.5182,3.5367,3.5367,3.5367,3.5291,3.5354,3.5354,3.5354,3.5383,3.5367,3.5367,3.5383,3.5354,3.5354,3.5291,3.5291,3.5291,3.5291,3.5291,3.5291,3.5291,3.5291,2.3541,2.4339,2.5145,2.5739,2.6283,2.64,0.0,0.0,2.5605,2.4523,2.465,2.5174,2.5784,2.6082,2.6443,2.7019,2.6878,0.0,0.0,0.0,0.0,0.0,0.0,0.0,0.0,0.0,0.0,0.0,0.0,0.0,2.9623,2.9623,2.9931,3.0568,3.0702,3.0821,3.0821,3.1014,3.1087,3.1087,3.1234,3.1278,3.1278,3.1424,3.1482,0.0,0.0,0.0,0.0,3.1482,3.1467,3.1467,3.1467,3.1106,3.0492,3.0492,3.0103,2.9564,2.9564,2.9564,2.9564,2.9564,2.9116,2.8592,2.8592,2.8113,2.7625,2.7625,2.7625,2.7625,2.7625,2.7488,2.7401,2.7401,2.7284,2.7572,2.9005,2.9372,2.9844,3.1213,3.1524,3.1597,3.1784,3.1799,3.2038,3.2695,3.2788,3.3266,3.4546,3.4691,3.493,3.5532,3.5577,3.5503,3.5291,3.5446,3.5492,3.5492,3.5549,3.5577,3.5577,3.552,3.5492,3.5492,3.5354,3.5291,3.5291,3.5291,3.5291,3.5291,3.5291,3.5291,2.2585,2.308,2.3538,2.3528,2.3906,2.4189,2.3659,0.0,2.4694,2.435,2.465,2.5061,2.523,2.5147,2.5119,2.5273,2.5119,0.0,0.0,0.0,0.0,0.0,0.0,0.0,0.0,0.0,0.0,0.0,0.0,0.0,2.9275,2.9135,2.9107,2.9142,2.9794,2.987,2.9435,3.019,3.0568,3.0568,3.0658,3.097,3.1409,3.1029,3.0837,0.0,0.0,0.0,0.0,3.0133,3.0133,3.0133,3.0133,3.0259,3.0514,3.0514,3.0119,2.9576,3.0041,2.9633,2.8987,2.9456,2.9445,2.9265,2.9265,2.8472,2.7625,2.7625,2.7625,2.7625,2.7625,2.7575,2.7524,2.7524,2.7831,2.8412,2.9316,2.9839,3.0421,3.1302,3.1597,3.1784,3.1883,3.1996,3.2206,3.2492,3.2911,3.3387,3.3748,3.4234,3.4643,3.4818,3.4818,3.5024,3.5458,3.5549,3.5594,3.5594,3.5577,3.5622,3.5622,3.5594,3.5594,3.5594,3.5549,3.5503,3.5503,3.5503,3.5503,3.5503,3.5503,3.5503,0.0,2.1917,2.2247,2.2256,2.2473,0.0,0.0,0.0,2.3971,2.3787,2.4305,2.4708,2.4523,2.4465,2.4408,2.4408,2.4452,0.0,0.0,0.0,0.0,0.0,0.0,0.0,0.0,0.0,0.0,0.0,0.0,0.0,2.8702,2.856,2.8338,2.7947,2.8967,2.9345,2.898,2.967,2.9979,2.9979,3.0086,3.0329,3.0718,3.0329,3.0133,0.0,0.0,0.0,0.0,2.9504,2.9504,2.9504,2.9504,2.9766,3.0133,3.0133,2.9829,2.9559,2.9973,2.9595,2.903,2.9406,2.9545,2.9548,2.96,2.8996,2.8323,2.8323,2.8323,2.8323,2.8323,2.8323,2.8374,2.8426,2.8756,2.9252,2.9913,3.0418,3.0885,3.1462,3.1784,3.194,3.2038,3.2135,3.2247,3.2453,3.2819,3.3193,3.3455,3.3933,3.43,3.4497,3.4497,3.4691,3.5148,3.5333,3.5424,3.5424,3.5667,3.5756,3.5756,3.5756,3.5756,3.5756,3.5756,3.5756,3.5756,3.556,3.5379,3.5195,3.5148,3.5148,0.0,2.0777,2.113,2.1642,2.1863,2.1865,0.0,0.0,0.0,0.0,2.3564,2.4118,2.3695,2.393,2.4176,2.4176,2.4567,0.0,0.0,0.0,0.0,0.0,0.0,0.0,0.0,0.0,0.0,0.0,0.0,0.0,2.7973,2.7973,2.7656,2.7011,2.826,2.8953,2.917,2.9331,2.9442,2.9442,2.9442,2.9442,2.9518,2.9442,2.9442,0.0,0.0,0.0,0.0,2.938,2.938,2.938,2.938,2.938,2.9442,2.9442,2.9442,2.9442,2.9504,2.9442,2.9442,2.9504,2.9505,2.9537,2.9603,2.9585,2.9633,2.9579,2.9633,2.9633,2.9633,2.9633,2.9687,2.9765,2.9863,3.006,3.0679,3.097,3.1197,3.1736,3.194,3.2038,3.2191,3.2191,3.2302,3.2578,3.2648,3.2904,3.3539,3.3658,3.3848,3.4349,3.4399,3.4399,3.4399,3.4849,3.5131,3.5131,3.5605,3.5888,3.5888,3.5888,3.5888,3.5888,3.5888,3.5888,3.5888,3.5407,3.4913,3.4497,3.4349,3.4399,1.9344,0.0,1.9932,1.9752,2.0246,2.0702,0.0,0.0,0.0,0.0,0.0,2.3754,2.3636,2.3471,2.3233,2.2907,0.0,0.0,0.0,0.0,0.0,0.0,0.0,0.0,0.0,0.0,0.0,0.0,0.0,2.7789,2.7656,2.7523,2.7469,2.7403,2.759,2.7709,2.7776,2.8403,2.8725,2.8725,2.8725,2.9093,2.9732,2.9044,2.8853,0.0,0.0,0.0,2.796,2.796,2.796,2.796,2.796,2.8274,2.8725,2.8725,2.8725,2.8776,2.9331,2.9142,2.8839,2.9317,2.9619,2.9736,2.9729,2.9765,2.9726,2.9633,2.9726,2.9856,2.9765,2.9818,2.991,2.9963,3.0372,3.0743,3.091,3.1389,3.1799,3.191,3.2038,3.2135,3.2191,3.2358,3.2539,3.2578,3.2812,3.3043,3.3203,3.3346,3.345,3.3555,3.3607,3.3607,3.3607,3.4234,3.4675,3.4675,3.4771,3.4866,3.4866,3.4866,3.4866,3.4866,3.4866,3.4866,3.4866,3.4723,3.4594,3.4497,3.4448,3.4448,1.8987,1.9146,1.9251,1.904,1.9364,1.9751,1.9775,0.0,0.0,0.0,0.0,0.0,2.2604,0.0,0.0,0.0,0.0,0.0,0.0,0.0,0.0,0.0,0.0,0.0,0.0,0.0,0.0,0.0,0.0,2.7523,2.7523,2.7403,2.7403,2.7523,2.7403,2.7403,2.7403,2.7842,2.8039,2.8039,2.8091,2.8417,2.8853,2.8495,2.8379,0.0,0.0,0.0,2.7736,2.7669,2.7656,2.7656,2.7523,2.7723,2.8039,2.8039,2.8039,2.8091,2.8454,2.8338,2.8157,2.9044,2.931,2.9435,2.9808,3.0,2.9982,2.9883,3.0152,3.0417,3.0376,3.0614,3.0943,3.0982,3.1271,3.1561,3.1561,3.1891,3.215,3.2094,3.2191,3.2287,3.2287,3.2468,3.2648,3.2718,3.2935,3.3096,3.3203,3.3256,3.3309,3.3309,3.3309,3.3309,3.3309,3.3694,3.405,3.43,3.4529,3.4658,3.4658,3.4658,3.4658,3.4658,3.4658,3.4529,3.43,3.43,3.4201,3.3949,3.3899,3.3899,1.8881,1.8827,1.8762,1.8827,1.8815,1.8935,1.9333,0.0,0.0,0.0,0.0,0.0,0.0,0.0,0.0,0.0,0.0,0.0,0.0,0.0,0.0,0.0,0.0,0.0,0.0,0.0,0.0,0.0,0.0,2.7175,2.7323,2.7323,2.739,2.7523,2.7523,2.7523,2.7523,2.7523,2.7523,2.7523,2.7723,2.7855,2.7908,2.8,2.8079,2.8145,0.0,0.0,2.8079,2.7934,2.7855,2.7855,2.7669,2.759,2.759,2.759,2.759,2.759,2.759,2.759,2.7723,2.8651,2.883,2.8853,2.9623,2.9946,3.0007,2.9884,3.0358,3.0896,3.0911,3.1336,3.1811,3.2023,3.2079,3.2135,3.2191,3.2342,3.2342,3.2247,3.2342,3.2453,3.2453,3.2578,3.2703,3.2897,3.3043,3.315,3.3309,3.3309,3.3309,3.3309,3.3309,3.3309,3.3309,3.3309,3.3503,3.3949,3.4366,3.4593,3.4593,3.4593,3.4593,3.4593,3.4593,3.4366,3.4,3.4,3.3745,3.3309,3.3203,3.3203,1.8267,1.7875,1.7589,1.8093,1.8124,1.7972,0.0,0.0,0.0,0.0,0.0,0.0,0.0,0.0,0.0,0.0,0.0,0.0,0.0,0.0,0.0,0.0,0.0,0.0,0.0,0.0,0.0,0.0,0.0,0.0,2.6564,2.6552,2.6837,2.7469,2.7523,2.7523,2.7523,2.7656,2.7789,2.7789,2.7934,2.8118,2.8222,2.8131,2.8131,2.8235,0.0,2.8079,2.8079,2.8079,2.8079,2.8079,2.8013,2.8013,2.8013,2.8013,2.8013,2.8013,2.8013,2.8013,2.8013,2.821,2.8314,2.8417,2.8546,2.8688,2.8844,2.8844,2.9685,3.0524,3.0433,3.0539,3.0881,3.148,3.161,3.1781,3.2287,3.2398,3.2398,3.2398,3.2468,3.2578,3.2578,3.2812,3.3043,3.3043,3.3203,3.3309,3.3309,3.3309,3.3309,3.3309,3.3309,3.3309,3.3309,3.3309,3.3361,3.3398,3.3503,3.3539,3.3539,3.3539,3.3539,3.3539,3.3539,3.3487,3.3398,3.3398,3.3398,3.3309,3.3309,3.3309,1.7699,1.7146,1.6754,1.709,1.7567,0.0,0.0,0.0,0.0,0.0,0.0,0.0,0.0,0.0,0.0,0.0,0.0,0.0,0.0,0.0,0.0,0.0,0.0,0.0,0.0,0.0,0.0,0.0,0.0,0.0,2.5791,2.5804,2.6139,2.6905,2.6905,2.6905,2.6905,2.7095,2.7229,2.7377,2.7669,2.7789,2.7908,2.8197,2.8392,2.8444,0.0,2.8406,2.8341,2.8249,2.8183,2.8183,2.8145,2.8079,2.8079,2.8079,2.8079,2.8079,2.8197,2.8131,2.8145,2.8341,2.8314,2.8287,2.843,2.8522,2.8587,2.8587,2.9247,2.995,2.9903,3.0147,3.0584,3.0881,3.1073,3.1306,3.1595,3.1766,3.1936,3.1936,3.1936,3.2007,3.2007,3.2176,3.2358,3.2358,3.2468,3.2617,3.2888,3.2726,3.2617,3.2888,3.2672,3.2672,3.2888,3.2942,3.3011,3.3293,3.3309,3.3309,3.3309,3.3309,3.3309,3.3309,3.3309,3.3309,3.3309,3.3309,3.3309,3.3309,3.3309,3.3309,1.709,1.6528,1.6083,1.6151,0.0,0.0,0.0,0.0,0.0,0.0,0.0,0.0,0.0,0.0,0.0,0.0,0.0,0.0,0.0,0.0,0.0,0.0,0.0,0.0,0.0,0.0,0.0,0.0,0.0,0.0,2.5004,2.5016,2.5358,2.6139,2.6139,2.6139,2.6139,2.6183,2.6402,2.6756,2.7108,2.731,2.739,2.7987,2.8262,2.8262,2.8262,2.8262,2.8183,2.8039,2.8026,2.8026,2.8,2.8079,2.821,2.821,2.821,2.821,2.8314,2.8314,2.8276,2.8522,2.8509,2.843,2.8522,2.8587,2.8587,2.8587,2.8931,2.9282,2.9282,2.9656,3.0101,3.0208,3.045,3.0703,3.0837,3.1073,3.1248,3.1248,3.1291,3.1291,3.1291,3.1407,3.1522,3.1522,3.158,3.1849,3.2241,3.2033,3.1977,3.2367,3.2089,3.2104,3.2532,3.2711,3.2888,3.3309,3.3309,3.3309,3.3309,3.3309,3.3309,3.3309,3.3309,3.3309,3.3309,3.3309,3.3309,3.3309,3.3309,3.3309,1.6368,1.5911,1.5526,1.573,0.0,0.0,0.0,0.0,0.0,0.0,0.0,0.0,0.0,0.0,0.0,0.0,0.0,0.0,0.0,0.0,0.0,0.0,0.0,0.0,0.0,0.0,0.0,0.0,0.0,0.0,2.412,2.4192,2.4552,2.537,2.5382,2.5382,2.5382,2.5004,2.5276,2.6195,2.6377,2.6663,2.704,2.7108,2.7108,2.7108,2.7108,2.7108,2.7108,2.7108,2.7095,2.7175,2.7643,2.8118,2.8522,2.8522,2.8522,2.8587,2.8587,2.8587,2.8587,2.8587,2.8587,2.8587,2.8587,2.8587,2.8587,2.8587,2.8651,2.8651,2.8651,2.8716,2.8894,2.9456,2.9566,2.9766,3.0389,3.0569,3.0584,3.0584,3.0674,3.0778,3.0778,3.0881,3.0984,3.0984,3.0984,3.1115,3.142,3.1435,3.1549,3.1921,3.1936,3.2104,3.2532,3.3011,3.324,3.3309,3.3309,3.3309,3.3309,3.3309,3.3309,3.3309,3.3309,3.3309,3.3309,3.3309,3.3309,3.3309,3.3309,3.3309,1.5864,1.5352,1.5001,1.5069,0.0,0.0,0.0,0.0,0.0,0.0,0.0,0.0,0.0,0.0,0.0,0.0,0.0,0.0,0.0,0.0,0.0,0.0,0.0,0.0,0.0,0.0,0.0,0.0,0.0,0.0,0.0,2.3423,2.3779,2.4564,2.4564,2.4564,2.4564,2.4409,2.442,2.4576,2.5487,2.6114,2.6496,2.6837,2.6973,2.6973,2.6973,2.6973,2.6973,2.6973,2.6973,2.704,2.7242,2.7443,2.7577,2.7577,2.7855,2.8118,2.8118,2.8314,2.8587,2.8587,2.8587,2.8587,2.8587,2.8587,2.8587,2.8587,2.8587,2.8587,2.8587,2.8587,2.8651,2.8881,2.9121,2.931,2.956,2.9822,2.9946,2.9946,3.0007,2.9993,2.9993,3.0237,3.0418,3.0418,3.0584,3.0881,3.1306,3.1073,3.1073,3.1495,3.1766,3.1992,3.216,3.2834,3.3309,3.3309,3.3309,3.3309,3.3309,3.3309,3.3309,3.3309,3.3309,3.3309,3.3309,3.3309,3.3309,3.3309,3.3309,3.3309,1.5352,1.5128,1.4951,0.0,0.0,0.0,0.0,0.0,0.0,0.0,0.0,0.0,0.0,0.0,0.0,0.0,0.0,0.0,0.0,0.0,0.0,0.0,0.0,0.0,0.0,0.0,0.0,0.0,0.0,0.0,0.0,2.3001,2.3213,2.3768,2.3768,2.3768,2.3768,2.3768,2.3717,2.3593,2.4515,2.5229,2.5746,2.622,2.6483,2.6483,2.6483,2.6483,2.6483,2.6483,2.6552,2.6769,2.6769,2.6837,2.6973,2.6973,2.7242,2.7577,2.7577,2.7908,2.8327,2.8327,2.8457,2.8587,2.8587,2.8587,2.8587,2.8587,2.8587,2.8587,2.8587,2.8587,2.8587,2.8587,2.878,2.8908,2.8908,2.9099,2.9289,2.9289,2.9289,2.9289,2.9415,2.9602,2.9803,2.9927,3.0158,3.0462,3.0881,3.0642,3.0642,3.1043,3.1437,3.1709,3.1709,3.2398,3.2904,3.3065,3.3065,3.3134,3.3309,3.3398,3.3398,3.3309,3.3398,3.3398,3.3309,3.3309,3.3309,3.3309,3.3309,3.3309,1.4893,1.5254,0.0,0.0,0.0,0.0,0.0,0.0,0.0,0.0,0.0,0.0,0.0,0.0,0.0,0.0,0.0,0.0,0.0,0.0,0.0,0.0,0.0,0.0,0.0,0.0,0.0,0.0,0.0,0.0,0.0,2.3001,2.3001,2.3001,2.3001,2.3001,2.3001,2.3001,2.3224,2.3593,2.3604,2.4043,2.479,2.5111,2.5312,2.5312,2.5312,2.5312,2.5312,2.5312,2.5664,2.6164,2.6164,2.6496,2.6973,2.6973,2.6973,2.6973,2.6973,2.731,2.7776,2.7776,2.8118,2.8587,2.8587,2.8587,2.8587,2.8587,2.8587,2.8587,2.8587,2.8587,2.8587,2.8587,2.8587,2.8587,2.8587,2.8587,2.8587,2.8587,2.8587,2.8716,2.9035,2.9099,2.9226,2.954,2.9602,2.9741,3.005,3.0111,3.0233,3.0568,3.1043,3.1278,3.1278,3.1667,3.2089,3.2532,3.2586,3.2834,3.3293,3.3555,3.3555,3.3309,3.3555,3.3555,3.3309,3.3309,3.3309,3.3309,3.3309,3.3309,1.4765,1.441,0.0,0.0,0.0,0.0,0.0,0.0,0.0,0.0,0.0,0.0,0.0,0.0,0.0,0.0,0.0,0.0,0.0,0.0,0.0,0.0,0.0,0.0,0.0,0.0,0.0,0.0,0.0,0.0,0.0,2.3001,2.3001,2.3001,2.3001,2.2777,2.2402,2.2777,2.2617,2.1928,2.2617,2.3593,2.479,2.4921,2.5052,2.5312,2.5312,2.5312,2.5312,2.5312,2.5382,2.5594,2.5594,2.5652,2.5791,2.5791,2.6082,2.6427,2.6427,2.6769,2.7242,2.7242,2.731,2.751,2.7908,2.8052,2.8118,2.8522,2.8587,2.8587,2.8587,2.8587,2.8587,2.8587,2.8587,2.8587,2.8587,2.8587,2.8651,2.8908,2.8972,2.9035,2.9415,2.9665,2.9865,2.9927,3.0158,3.0341,3.0462,3.0462,3.0522,3.0568,3.1043,3.1278,3.1278,3.1667,3.1992,3.2089,3.2104,3.2437,3.3256,3.3555,3.3658,3.3607,3.3848,3.3949,3.3848,3.3848,3.3848,3.3848,3.3658,3.3503,1.4291,0.0,0.0,0.0,0.0,0.0,0.0,0.0,0.0,0.0,0.0,0.0,0.0,0.0,0.0,0.0,0.0,0.0,0.0,0.0,0.0,0.0,0.0,0.0,0.0,0.0,0.0,0.0,0.0,0.0,0.0,2.2306,2.2306,2.2306,2.2306,2.208,2.1711,2.209,2.1928,2.1242,2.1776,2.2606,2.357,2.4166,2.4683,2.5111,2.5241,2.5312,2.5312,2.5312,2.5312,2.5312,2.5312,2.5312,2.5312,2.5312,2.5523,2.5873,2.5873,2.622,2.6701,2.6701,2.6837,2.704,2.7377,2.751,2.7577,2.7855,2.8118,2.8249,2.8249,2.8457,2.8587,2.8587,2.8587,2.8587,2.8587,2.8587,2.8716,2.9035,2.9099,2.9226,2.9741,2.9988,3.0172,3.0294,3.0462,3.0568,3.0568,3.0568,3.0568,3.0568,3.0866,3.1043,3.1043,3.1263,3.148,3.1667,3.1667,3.2007,3.2726,3.298,3.3071,3.298,3.323,3.3387,3.3366,3.3366,3.3351,3.3403,3.3261,3.3118,0.0,0.0,0.0,0.0,0.0,0.0,0.0,0.0,0.0,0.0,0.0,0.0,0.0,0.0,0.0,0.0,0.0,0.0,0.0,0.0,0.0,0.0,0.0,0.0,0.0,0.0,0.0,0.0,0.0,0.0,0.0,2.1165,2.1165,2.1165,2.1165,2.1165,2.1088,2.1165,2.1165,2.1011,2.1088,2.1308,2.1583,2.2999,2.3998,2.4562,2.4886,2.5075,2.5087,2.5087,2.5087,2.5087,2.5087,2.5158,2.5158,2.5158,2.5229,2.5312,2.5312,2.5664,2.6082,2.6082,2.6427,2.6837,2.6905,2.6905,2.6973,2.6973,2.7377,2.7709,2.7709,2.8118,2.8457,2.8457,2.8587,2.8651,2.8651,2.8651,2.878,2.9099,2.9162,2.9415,3.005,3.0172,3.0233,3.0582,3.0568,3.0568,3.0568,3.0568,3.0568,3.0568,3.0568,3.0568,3.0568,3.0568,3.0807,3.1219,3.1219,3.1379,3.1766,3.213,3.2185,3.1921,3.217,3.2296,3.2247,3.2247,3.2287,3.2437,3.2437,3.2382,0.0,0.0,0.0,0.0,0.0,0.0,0.0,0.0,0.0,0.0,0.0,0.0,0.0,0.0,0.0,0.0,0.0,0.0,0.0,0.0,0.0,0.0,0.0,0.0,0.0,0.0,0.0,0.0,0.0,0.0,2.1165,2.1165,2.1165,2.1165,2.1165,2.0934,2.0391,2.0934,2.0702,0.0,2.0157,2.0469,2.0537,2.1659,2.2403,2.2861,2.3073,2.3147,2.322,2.339,2.3475,2.3475,2.3475,2.3829,2.4337,2.4337,2.4779,2.5312,2.5312,2.537,2.5523,2.5523,2.5581,2.5721,2.622,2.6358,2.6427,2.6905,2.7108,2.7175,2.7175,2.7242,2.7377,2.751,2.8235,2.8972,2.8972,2.9226,2.9477,2.9803,2.9865,2.9974,3.0401,3.0522,3.0522,3.0568,3.0568,3.0568,3.0568,3.0568,3.0568,3.0568,3.0568,3.0568,3.0568,3.0568,3.0628,3.0747,3.0747,3.0807,3.0866,3.1777,3.2281,3.2241,3.247,3.2633,3.2594,3.2594,3.2594,3.2633,3.2571,3.2422,0.0,0.0,0.0,0.0,0.0,0.0,0.0,0.0,0.0,0.0,0.0,0.0,0.0,0.0,0.0,0.0,0.0,0.0,0.0,0.0,0.0,0.0,0.0,0.0,0.0,0.0,0.0,0.0,0.0,1.9923,2.0235,2.0313,2.0313,2.0313,2.0313,2.0157,1.9775,2.0157,1.9923,1.9301,1.9618,1.9775,1.9844,2.1135,2.1952,2.2328,2.2403,2.2478,2.2627,2.2787,2.2872,2.3032,2.3032,2.3243,2.361,2.3963,2.4337,2.4791,2.5158,2.5312,2.5312,2.5312,2.5312,2.5382,2.5664,2.5734,2.5804,2.6139,2.6414,2.6633,2.6701,2.6892,2.7175,2.731,2.7776,2.8235,2.8314,2.8444,2.883,2.9477,2.9324,2.9435,3.0447,3.0568,3.0568,3.0568,3.0568,3.0568,3.0568,3.0568,3.0568,3.0568,3.0568,3.0568,3.0568,3.0642,3.0702,3.0568,3.0642,3.0702,3.0568,3.1175,3.1507,3.1507,3.1607,3.1721,3.1777,3.1777,3.1834,3.1905,3.1879,3.1781,0.0,0.0,0.0,0.0,0.0,0.0,0.0,0.0,0.0,0.0,0.0,0.0,0.0,0.0,0.0,0.0,0.0,0.0,0.0,0.0,0.0,0.0,0.0,0.0,0.0,0.0,0.0,0.0,0.0,1.9301,1.9301,1.9301,1.9301,1.9301,1.9301,1.9301,1.9301,1.9301,1.9301,1.9301,1.9301,1.9301,1.9381,2.0672,2.1507,2.18,2.1811,2.1962,2.2103,2.2188,2.2339,2.251,2.2585,2.266,2.2872,2.3452,2.3818,2.4047,2.4647,2.4874,2.4933,2.5087,2.5087,2.5087,2.5241,2.5312,2.5312,2.5312,2.5664,2.6082,2.6208,2.6552,2.696,2.7188,2.7108,2.7108,2.7523,2.7643,2.7908,2.8817,2.8597,2.8698,3.019,3.0507,3.0568,3.0568,3.0568,3.0568,3.0568,3.0568,3.0568,3.0568,3.0568,3.0568,3.0568,3.0702,3.0762,3.0642,3.0762,3.0821,3.0702,3.0702,3.0702,3.0702,3.0642,3.0642,3.0762,3.0762,3.0821,3.1014,3.1014,3.1073,0.0,0.0,0.0,0.0,0.0,0.0,0.0,0.0,0.0,0.0,0.0,0.0,0.0,0.0,0.0,0.0,0.0,0.0,0.0,0.0,0.0,0.0,0.0,0.0,0.0,0.0,0.0,0.0,1.9301,1.9301,1.9301,1.9301,1.9301,1.9301,1.9301,1.9301,1.9301,1.9301,1.9301,1.9301,1.9301,1.9301,1.9301,1.9529,1.9678,1.9678,1.9854,2.002,2.001,2.0401,2.0644,2.0644,2.0867,2.1308,2.1983,2.2059,2.2574,2.3169,2.3243,2.3327,2.339,2.4047,2.4264,2.4409,2.5087,2.5312,2.5312,2.5312,2.5382,2.5441,2.5441,2.5594,2.5886,2.6037,2.6258,2.6658,2.767,2.8182,2.8441,2.857,2.903,2.9484,2.9685,3.019,3.0568,3.0568,3.0568,3.0568,3.0568,3.0568,3.0568,3.0568,3.0568,3.0568,3.0568,3.0702,3.0762,3.0762,3.0955,3.1073,3.1014,3.1014,3.1014,3.1014,3.0762,3.0628,3.0642,3.0642,3.0642,3.0702,3.0762,3.0821,0.0,0.0,0.0,0.0,0.0,0.0,0.0,0.0,0.0,0.0,0.0,0.0,0.0,0.0,0.0,0.0,0.0,0.0,0.0,0.0,0.0,0.0,0.0,0.0,0.0,0.0,0.0,0.0,1.9301,1.9301,1.9301,1.9301,1.9301,1.9301,1.9301,1.9301,1.9301,1.9301,1.9301,1.9301,1.9301,1.9301,1.9301,1.9301,1.9301,1.9301,1.939,1.9478,1.9645,1.9794,2.0029,2.0342,2.042,2.0712,2.1165,2.1614,2.1983,2.236,2.2872,2.3032,2.3095,2.3891,2.4108,2.4264,2.5087,2.5312,2.5312,2.5312,2.5312,2.5312,2.5465,2.5606,2.5828,2.598,2.6201,2.6533,2.704,2.7297,2.7484,2.7855,2.8839,2.9623,2.9623,3.019,3.0568,3.0568,3.0568,3.0568,3.0568,3.0568,3.0568,3.0568,3.0568,3.0642,3.0702,3.0895,3.0955,3.0955,3.1117,3.119,3.1087,3.1087,3.1087,3.1087,3.0821,3.0702,3.0702,3.0642,3.0642,3.0702,3.0762,3.0895,0.0,0.0,0.0,0.0,0.0,0.0,0.0,0.0,0.0,0.0,0.0,0.0,0.0,0.0,0.0,0.0,0.0,0.0,0.0,0.0,0.0,0.0,0.0,0.0,0.0,0.0,0.0,0.0,1.9301,1.9301,1.9301,1.9301,1.9301,1.9301,1.9301,1.9301,1.9301,1.9301,1.9301,1.9301,1.9301,1.9301,1.9301,1.9301,1.9301,1.9301,1.9301,1.939,1.9557,1.9566,1.9872,2.0186,2.0264,2.042,2.0634,2.1242,2.1461,2.1614,2.2209,2.236,2.2585,2.3526,2.3818,2.3975,2.5004,2.5312,2.5312,2.5312,2.5312,2.5382,2.5535,2.5758,2.598,2.6131,2.6339,2.6533,2.6533,2.6533,2.6658,2.7162,2.826,2.9044,2.9044,2.9608,3.0115,3.0312,3.019,3.019,3.0568,3.0507,3.0447,3.0642,3.0642,3.0702,3.0762,3.0955,3.1087,3.1087,3.1249,3.1292,3.1205,3.119,3.119,3.119,3.0999,3.0881,3.0895,3.0762,3.0762,3.0895,3.0895,3.0955,0.0,0.0,0.0,0.0,0.0,0.0,0.0,0.0,0.0,0.0,0.0,0.0,0.0,0.0,0.0,0.0,0.0,0.0,0.0,0.0,0.0,0.0,0.0,0.0,0.0,0.0,0.0,0.0,1.9301,1.9301,1.9301,1.9301,1.9301,1.9301,1.9301,1.9301,1.9301,1.9301,1.9301,1.9301,1.9301,1.9301,1.9301,1.9301,1.9301,1.9301,1.9301,1.9301,1.9301,1.9557,1.9715,1.9942,2.0186,2.042,2.0644,2.0644,2.0644,2.0634,2.0722,2.0712,2.1011,2.2585,2.3032,2.3316,2.4862,2.5312,2.5312,2.5312,2.5312,2.5382,2.5535,2.5758,2.598,2.6131,2.6339,2.6533,2.6533,2.6533,2.6533,2.6521,2.7095,2.7617,2.7617,2.8182,2.8826,2.9546,2.9093,2.9079,3.0433,3.019,3.0068,3.0702,3.0762,3.0762,3.0821,3.0955,3.1087,3.1087,3.1366,3.1482,3.1482,3.1482,3.1482,3.1482,3.1351,3.1234,3.1087,3.1087,3.1087,3.1087,3.1087,3.1087,0.0,0.0,0.0,0.0,0.0,0.0,0.0,0.0,0.0,0.0,0.0,0.0,0.0,0.0,0.0,0.0,0.0,0.0,0.0,0.0,0.0,0.0,0.0,0.0,0.0,0.0,0.0,0.0,0.0,1.9301,1.9301,1.9301,1.9301,1.9301,1.9301,1.9301,1.9301,1.9301,1.9301,1.9301,1.9301,1.9301,1.9301,1.9301,1.9301,1.9301,1.9301,1.9301,1.9301,1.9381,1.9627,1.9942,2.0029,2.0255,2.0566,2.0566,2.0566,2.0566,2.0566,2.0566,2.0789,2.1832,2.2585,2.3169,2.4192,2.4862,2.5312,2.5312,2.5312,2.5382,2.5535,2.5758,2.598,2.6327,2.6465,2.6533,2.6533,2.6533,2.6658,2.704,2.7351,2.767,2.8051,2.8363,2.8556,2.8826,2.8698,2.8684,2.9205,2.9484,2.9747,3.0007,3.0387,3.0702,3.0762,3.0895,3.0955,3.1087,3.1249,3.1351,3.1351,3.1467,3.1482,3.1482,3.1467,3.1351,3.1234,3.1132,3.1132,3.1234,3.1234,3.1292,0.0,0.0,0.0,0.0,0.0,0.0,0.0,0.0,0.0,0.0,0.0,0.0,0.0,0.0,0.0,0.0,0.0,0.0,0.0,0.0,0.0,0.0,0.0,0.0,0.0,0.0,0.0,0.0,0.0,0.0,1.9301,1.9301,1.9143,1.8895,1.8567,1.8407,1.8407,1.8407,1.8567,1.8895,1.8895,1.9054,1.9301,1.9301,1.9301,1.9301,1.9301,1.9301,1.9301,1.9301,1.9539,1.9863,1.9863,2.0177,2.0566,2.0566,2.0566,2.0566,2.0566,2.0566,2.0712,2.1538,2.2134,2.2734,2.3537,2.412,2.4504,2.4504,2.4719,2.4933,2.5241,2.5676,2.6188,2.6465,2.6533,2.6533,2.6533,2.6533,2.6658,2.7095,2.7162,2.7284,2.7736,2.7868,2.792,2.8117,2.7986,2.8051,2.8762,2.9156,2.9498,2.9931,3.0387,3.0702,3.0762,3.0821,3.0895,3.1014,3.1132,3.1234,3.1234,3.1307,3.1366,3.1366,3.1409,3.1409,3.1278,3.1249,3.1307,3.1351,3.1351,3.1528,0.0,0.0,0.0,0.0,0.0,0.0,0.0,0.0,0.0,0.0,0.0,0.0,0.0,0.0,0.0,0.0,0.0,0.0,0.0,0.0,0.0,0.0,0.0,0.0,0.0,0.0,0.0,0.0,1.9213,1.9222,1.9222,1.9222,1.8895,1.8078,1.7188,1.678,1.678,1.678,1.7188,1.8078,1.8078,1.8487,1.9301,1.9301,1.9301,1.9301,1.9301,1.9301,1.9301,1.9301,1.9539,1.9863,1.9863,2.0177,2.0566,2.0566,2.0566,2.0566,2.0566,2.0566,2.0712,2.1538,2.1756,2.1983,2.2734,2.2957,2.3032,2.3032,2.3537,2.4192,2.4564,2.5581,2.6533,2.6533,2.6533,2.6533,2.6533,2.6533,2.6533,2.6533,2.6533,2.6533,2.6533,2.6533,2.6714,2.7351,2.6905,2.7229,2.9233,2.9044,2.9247,3.0568,3.0762,3.0762,3.0762,3.0762,3.0762,3.0762,3.0955,3.1087,3.1087,3.1087,3.1087,3.1087,3.1234,3.1278,3.1278,3.1409,3.1482,3.1482,3.1497,3.1913,1.2867,0.0,0.0,0.0,0.0,0.0,0.0,1.2116,0.0,0.0,0.0,0.0,0.0,0.0,0.0,0.0,0.0,0.0,0.0,0.0,0.0,0.0,0.0,0.0,0.0,0.0,0.0,0.0,1.7603,1.7432,1.7432,1.7997,1.8567,1.8895,1.8727,1.8567,1.8567,1.8567,1.8727,1.8975,1.8975,1.9054,1.9301,1.9301,1.9301,1.9301,1.9301,1.9301,1.9301,1.9301,1.9539,1.9863,1.9863,2.0177,2.0566,2.0566,2.0566,2.0566,2.0566,2.0566,2.0644,2.0867,2.1318,2.1832,2.2059,2.251,2.3032,2.3032,2.3265,2.3717,2.4647,2.5734,2.6533,2.6533,2.6533,2.6533,2.6533,2.6533,2.6533,2.6533,2.6533,2.6533,2.6533,2.6533,2.6589,2.6782,2.6589,2.6726,2.7297,2.7617,2.8195,2.9016,2.9608,3.0129,3.0628,3.0642,3.0642,3.0642,3.0821,3.0895,3.0895,3.1014,3.1087,3.1087,3.1146,3.1132,3.1132,3.1366,3.1482,3.1482,3.2018,3.2602,0.0,0.0,0.0,0.0,0.0,0.0,1.1904,1.2451,1.3071,0.0,0.0,0.0,0.0,0.0,0.0,0.0,0.0,0.0,0.0,0.0,0.0,0.0,0.0,0.0,0.0,1.5693,1.5889,1.6669,1.6604,1.6547,1.669,1.6862,1.718,1.7674,1.7342,1.7107,1.7107,1.7107,1.735,1.7674,1.7674,1.7836,1.8238,1.8238,1.8238,1.8238,1.8238,1.8238,1.8238,1.8727,1.9292,1.9863,1.9863,2.0177,2.0566,2.0566,2.0566,2.0566,2.0566,2.0566,2.0566,2.0566,2.0944,2.1308,2.1308,2.1614,2.1983,2.1983,2.267,2.3632,2.4719,2.5734,2.6533,2.6533,2.6533,2.6533,2.6533,2.6533,2.6533,2.6533,2.6533,2.6533,2.6533,2.6533,2.6533,2.6533,2.6533,2.6589,2.6905,2.7297,2.7736,2.8427,2.8889,2.9282,2.967,2.9718,2.9718,2.9718,3.0054,3.0312,3.0312,3.0702,3.0895,3.0895,3.0955,3.1146,3.1485,3.1382,3.1441,3.1723,3.2377,3.3092,0.0,0.0,0.0,0.0,0.0,0.0,1.2461,1.2989,1.3413,0.0,0.0,0.0,0.0,0.0,0.0,0.0,0.0,0.0,0.0,0.0,0.0,0.0,0.0,0.0,1.4296,1.4362,1.4687,1.5518,1.585,1.6118,1.6456,1.5749,1.544,1.5553,1.4824,1.4419,1.4419,1.4419,1.4741,1.5553,1.5553,1.5966,1.6698,1.6698,1.6698,1.6698,1.6698,1.6698,1.678,1.79,1.8877,1.9784,1.9863,2.0177,2.0566,2.0566,2.0566,2.0566,2.0566,2.0566,2.0566,2.0566,2.0566,2.0566,2.0566,2.0566,2.0644,2.0644,2.1973,2.3599,2.4564,2.5511,2.6233,2.6233,2.6233,2.6233,2.6233,2.6314,2.6383,2.6383,2.6465,2.6533,2.6533,2.6533,2.6533,2.6533,2.6533,2.6714,2.7284,2.7417,2.767,2.8298,2.8363,2.8427,2.8492,2.8492,2.8492,2.8492,2.9093,2.9484,2.9484,3.0054,3.0372,3.0372,3.0505,3.102,3.1711,3.1336,3.1515,3.2102,3.2687,3.3353,0.0,0.0,0.0,0.0,0.0,0.0,1.1951,1.2653,1.3691,0.0,0.0,0.0,0.0,0.0,0.0,0.0,0.0,0.0,0.0,0.0,0.0,0.0,0.0,0.0,1.3645,1.3367,1.3432,1.4177,1.3959,1.42,1.5227,1.508,1.5442,1.6445,1.6288,1.6206,1.6206,1.6206,1.6288,1.6453,1.6453,1.6535,1.6698,1.6698,1.6698,1.6698,1.6698,1.678,1.7033,1.79,1.855,1.8966,1.9863,2.0411,2.0566,2.0566,2.0566,2.0566,2.0566,2.0566,2.0566,2.0566,2.0566,2.0566,2.0566,2.0566,2.0644,2.0964,2.1928,2.2957,2.3276,2.3998,2.4552,2.4552,2.4552,2.4552,2.4552,2.5075,2.5523,2.5523,2.6025,2.6533,2.6533,2.6533,2.6533,2.6533,2.6533,2.6521,2.6658,2.6714,2.6973,2.7604,2.767,2.792,2.8427,2.8492,2.8492,2.8492,2.8634,2.8684,2.8684,2.8826,2.8889,2.8889,2.9357,2.9659,2.9849,3.118,3.2193,3.2827,3.2804,3.3231,0.0,0.0,0.0,1.2712,0.0,0.0,0.0,1.3648,1.4214,1.4569,0.0,0.0,0.0,0.0,0.0,0.0,0.0,0.0,0.0,0.0,0.0,0.0,0.0,0.0,1.2886,1.2655,1.2736,1.3327,1.3117,1.3342,1.4034,1.4195,1.4505,1.5145,1.5313,1.5394,1.5394,1.5394,1.5394,1.5394,1.5394,1.5394,1.5394,1.5394,1.5394,1.5394,1.5394,1.5801,1.6445,1.7415,1.823,1.8877,1.9932,2.042,2.0566,2.0566,2.0566,2.0566,2.0566,2.0566,2.0566,2.0566,2.0566,2.0566,2.0566,2.0654,2.0819,2.1128,2.1928,2.2734,2.2916,2.3559,2.4108,2.4108,2.4108,2.4108,2.4108,2.4409,2.4707,2.4707,2.537,2.6025,2.6452,2.6533,2.6533,2.6533,2.6533,2.6533,2.6533,2.6533,2.6658,2.6973,2.6973,2.7162,2.7484,2.7484,2.7484,2.7484,2.7802,2.7986,2.7986,2.8298,2.8641,2.8861,2.947,2.993,3.0214,3.1107,3.174,3.2051,3.1956,3.2331,0.0,0.0,0.0,0.0,0.0,1.3887,0.0,0.0,0.0,1.4887,0.0,0.0,0.0,0.0,0.0,0.0,0.0,0.0,0.0,0.0,0.0,0.0,0.0,0.0,0.0,1.2372,1.2405,1.2721,1.2735,1.2792,1.3106,1.34,1.3587,1.3559,1.3935,1.4088,1.4088,1.4088,1.4088,1.4088,1.4088,1.4088,1.4088,1.4088,1.4088,1.4088,1.4166,1.465,1.5621,1.6846,1.7908,1.8877,1.9932,2.0498,2.0566,2.0566,2.0566,2.0566,2.0566,2.0566,2.0566,2.0566,2.0566,2.0644,2.0644,2.0809,2.0984,2.1205,2.1863,2.2596,2.2692,2.3191,2.3683,2.3683,2.3683,2.3683,2.3683,2.3891,2.4108,2.4108,2.485,2.5664,2.6176,2.6383,2.6533,2.6533,2.6533,2.6533,2.6533,2.6533,2.6533,2.6533,2.6533,2.6533,2.6533,2.6533,2.6533,2.6533,2.7143,2.752,2.7452,2.8067,2.8612,2.9079,2.9624,3.0157,3.0708,3.0815,3.1012,3.1297,3.1155,3.1397,0.0,0.0,0.0,0.0,1.4512,0.0,0.0,0.0,1.5434,1.6013,0.0,0.0,0.0,0.0,0.0,0.0,0.0,0.0,0.0,0.0,0.0,0.0,0.0,0.0,0.0,1.2739,1.2318,1.2351,1.2351,1.2485,1.2856,1.3093,1.3373,1.3552,1.3935,1.4088,1.4088,1.4088,1.4088,1.4088,1.4088,1.4088,1.4088,1.4088,1.4088,1.4088,1.4321,1.4566,1.4977,1.6846,1.7827,1.8318,1.9923,2.0566,2.0566,2.0566,2.0566,2.0566,2.0566,2.0566,2.0566,2.0566,2.0566,2.0644,2.0819,2.0984,2.1205,2.1436,2.1655,2.1873,2.1949,2.2025,2.2101,2.2101,2.2101,2.2101,2.2101,2.3106,2.4108,2.4108,2.5358,2.6176,2.5523,2.6025,2.6533,2.6533,2.6533,2.6533,2.6533,2.6533,2.6533,2.6533,2.6533,2.6533,2.6533,2.6533,2.6533,2.6533,2.7183,2.7519,2.7321,2.786,2.8151,2.8214,2.8758,2.9074,2.9138,2.9656,3.0631,3.1979,3.1235,3.1349,0.0,0.0,0.0,0.0,0.0,0.0,1.4848,0.0,1.5538,0.0,0.0,0.0,0.0,0.0,0.0,0.0,0.0,0.0,0.0,0.0,0.0,0.0,0.0,0.0,0.0,0.0,0.0,0.0,1.2592,1.2358,1.2485,1.2772,1.308,1.3387,1.3674,1.3915,1.4088,1.4088,1.4088,1.4088,1.4088,1.4088,1.4088,1.4243,1.4237,1.4321,1.4482,1.5304,1.6527,1.7334,1.8381,1.9599,2.0323,2.0566,2.0566,2.0566,2.0566,2.0566,2.0566,2.0566,2.0566,2.0566,2.0654,2.0819,2.0906,2.1128,2.1359,2.1512,2.1655,2.1807,2.1807,2.1807,2.1807,2.1807,2.1807,2.1807,2.1807,2.2306,2.2745,2.2745,2.3706,2.4371,2.4009,2.5382,2.6533,2.6533,2.6533,2.6521,2.6589,2.6589,2.6716,2.7126,2.7164,2.722,2.7381,2.7419,2.7477,2.7619,2.7893,2.7961,2.7758,2.8285,2.8586,2.8586,2.9139,2.9428,2.9428,2.9679,3.0152,3.0722,3.0419,3.0419,1.2353,0.0,0.0,0.0,0.0,0.0,0.0,0.0,0.0,0.0,0.0,0.0,0.0,0.0,0.0,0.0,0.0,0.0,0.0,0.0,0.0,0.0,0.0,0.0,0.0,0.0,0.0,0.0,0.0,1.2305,1.2305,1.2585,1.2886,1.32,1.3494,1.3788,1.4082,1.4088,1.4088,1.4088,1.4088,1.4088,1.4088,1.4321,1.4398,1.4398,1.4657,1.5636,1.7017,1.7342,1.823,1.9599,2.0089,2.0245,2.0245,2.0489,2.0566,2.0566,2.0566,2.0566,2.0566,2.0566,2.0731,2.0906,2.0984,2.1205,2.1502,2.1589,2.1655,2.1807,2.1807,2.1807,2.1807,2.1807,2.1807,2.1807,2.1807,2.1949,2.2101,2.2101,2.2767,2.332,2.3453,2.4813,2.5923,2.6082,2.6317,2.6577,2.6866,2.7101,2.7418,2.7837,2.7875,2.7898,2.8145,2.8109,2.8233,2.8591,2.853,2.8533,2.8623,2.895,2.9164,2.9164,2.9578,2.9792,2.9792,2.9792,2.9792,2.9792,2.9792,2.9792,0.0,0.0,0.0,1.5508,0.0,0.0,0.0,0.0,1.689,0.0,0.0,0.0,0.0,0.0,0.0,0.0,0.0,0.0,0.0,0.0,0.0,0.0,0.0,0.0,0.0,0.0,0.0,0.0,0.0,0.0,1.2305,1.2585,1.2886,1.32,1.3494,1.3788,1.4082,1.4088,1.4088,1.4088,1.4088,1.4088,1.4088,1.4321,1.4398,1.4398,1.4915,1.509,1.5249,1.6296,1.678,1.7017,1.8647,1.9301,1.946,2.0333,2.0566,2.0566,2.0566,2.0566,2.0566,2.0566,2.0731,2.0906,2.1138,2.1359,2.1502,2.1731,2.1807,2.1807,2.1807,2.1807,2.1807,2.1807,2.1807,2.1807,2.1807,2.2402,2.2927,2.2927,2.3559,2.4208,2.47,2.4441,2.4438,2.5117,2.59,2.6675,2.7287,2.8107,2.8638,2.8664,2.8507,2.835,2.8375,2.8243,2.8396,2.9149,2.8963,2.9214,2.9999,2.9908,2.9767,2.9767,2.9779,2.9792,2.9792,2.9792,2.9792,2.9792,2.9792,2.9792,0.0,0.0,1.3164,1.3455,0.0,0.0,0.0,0.0,0.0,0.0,0.0,0.0,0.0,0.0,0.0,0.0,0.0,0.0,0.0,0.0,0.0,0.0,0.0,0.0,0.0,0.0,0.0,0.0,0.0,0.0,0.0,1.2398,1.2685,1.3193,1.3307,1.3594,1.4082,1.4088,1.4088,1.4088,1.4088,1.4166,1.4321,1.4482,1.4741,1.4915,1.5173,1.5665,1.6221,1.6535,1.7017,1.7594,1.8238,1.8807,1.9381,2.0245,2.0566,2.0566,2.0566,2.0566,2.0644,2.0741,2.0896,2.1128,2.1359,2.1502,2.1731,2.1807,2.1807,2.1807,2.1807,2.1807,2.1807,2.1807,2.1807,2.1807,2.1807,2.2025,2.2271,2.2587,2.286,2.3152,2.3634,2.3581,2.3984,2.5383,2.5948,2.6384,2.6689,2.7013,2.7296,2.7748,2.815,2.8525,2.8682,2.9113,2.9441,2.9554,2.9643,2.9732,2.9934,2.9869,2.9792,2.9792,2.9792,2.9792,2.9792,2.9792,2.9792,2.9792,2.9792,2.9792,1.2224,1.2224,0.0,1.2666,1.2739,0.0,1.4034,0.0,0.0,0.0,0.0,0.0,0.0,0.0,0.0,0.0,0.0,0.0,0.0,1.5422,0.0,0.0,0.0,0.0,0.0,0.0,0.0,0.0,0.0,0.0,0.0,0.0,1.2585,1.3193,1.3213,1.3494,1.4082,1.4088,1.4088,1.4088,1.4166,1.4237,1.4398,1.4741,1.4915,1.509,1.5347,1.5748,1.6221,1.6221,1.655,1.7115,1.7432,1.8078,1.8975,1.9854,2.0323,2.0566,2.0566,2.0644,2.0731,2.0829,2.1061,2.1359,2.1436,2.1655,2.1807,2.1807,2.1807,2.1807,2.1807,2.1807,2.1807,2.1807,2.1807,2.1807,2.1807,2.1932,2.2139,2.2439,2.2625,2.2894,2.335,2.3514,2.39,2.507,2.5633,2.6081,2.6375,2.6698,2.7073,2.7427,2.8232,2.8855,2.9316,2.9754,2.9934,2.9934,2.9934,2.9934,2.9792,2.9792,2.9792,2.9792,2.9792,2.9792,2.9792,2.9792,2.9792,2.9792,2.9792,2.9792]},{"header":{"parameterUnit":"m.s-1","parameterCategory":1,"la1":30.6,"la2":29.2853,"lo1":-89.7004,"lo2":-87.6739,"dy":0.0162,"dx":0.0183,"nx":112,"ny":82,"refTime":"2024-03-15T06:00:00:Z","depth":0,"parameterNumber":3,"parameterNumberName":"V-component_of_WINDS"},"data":[0.0,0.0,0.0,0.0,0.0,0.0,0.0,0.0,0.0,0.0,0.0,0.0,0.0,0.0,0.0,0.0,0.0,0.0,0.0,0.0,0.0,0.0,0.0,0.0,0.0,0.0,0.0,0.0,0.0,0.0,0.0,0.0,0.0,0.0,0.0,0.0,0.0,0.0,0.0,0.0,0.0,0.0,0.0,0.0,0.0,0.0,0.0,0.0,0.0,0.0,0.0,0.0,0.0,0.0,0.0,0.0,0.0,0.0,0.0,0.0,0.0,0.0,0.0,0.0,0.0,0.0,0.0,0.0,0.0,0.0,0.0,0.0,0.0,0.0,0.0,0.0,0.0,0.0,0.0,0.0,0.0,0.0,0.0,0.0,0.0,0.0,0.0,0.0,0.0,0.0,0.0,-2.8234,-2.7442,-2.708,-2.7457,-2.6607,-2.6673,-2.8075,0.0,0.0,0.0,0.0,0.0,0.0,0.0,0.0,0.0,0.0,0.0,0.0,0.0,0.0,0.0,0.0,0.0,0.0,0.0,0.0,0.0,0.0,0.0,0.0,0.0,0.0,0.0,0.0,0.0,0.0,0.0,0.0,0.0,0.0,0.0,0.0,0.0,0.0,0.0,0.0,0.0,0.0,0.0,0.0,0.0,0.0,0.0,0.0,0.0,0.0,0.0,0.0,0.0,0.0,0.0,0.0,0.0,0.0,0.0,0.0,0.0,0.0,0.0,0.0,0.0,0.0,0.0,0.0,0.0,0.0,0.0,0.0,0.0,0.0,0.0,0.0,0.0,0.0,0.0,0.0,0.0,0.0,0.0,0.0,0.0,0.0,0.0,0.0,0.0,0.0,0.0,0.0,0.0,0.0,0.0,0.0,0.0,0.0,0.0,0.0,0.0,0.0,0.0,0.0,-2.821,-2.747,-2.7126,-2.6756,-2.6142,-2.6038,-2.6319,-2.7072,0.0,0.0,0.0,0.0,0.0,0.0,0.0,0.0,0.0,0.0,0.0,0.0,0.0,0.0,0.0,0.0,0.0,0.0,0.0,0.0,0.0,0.0,0.0,0.0,0.0,0.0,0.0,0.0,0.0,0.0,0.0,0.0,0.0,0.0,0.0,0.0,0.0,0.0,0.0,0.0,0.0,0.0,0.0,0.0,0.0,0.0,0.0,0.0,0.0,0.0,0.0,0.0,0.0,0.0,0.0,0.0,0.0,0.0,0.0,0.0,0.0,0.0,0.0,0.0,0.0,0.0,0.0,0.0,0.0,0.0,0.0,0.0,0.0,0.0,0.0,0.0,0.0,0.0,0.0,0.0,0.0,0.0,0.0,0.0,0.0,0.0,0.0,0.0,0.0,0.0,0.0,0.0,0.0,0.0,0.0,0.0,0.0,0.0,0.0,0.0,0.0,0.0,0.0,-2.8384,-2.7974,-2.7181,-2.6839,-2.6539,-2.6229,-2.5746,-2.595,-2.7168,-2.7123,0.0,0.0,0.0,0.0,0.0,0.0,0.0,0.0,0.0,0.0,0.0,0.0,0.0,0.0,0.0,0.0,0.0,0.0,0.0,0.0,0.0,0.0,0.0,0.0,0.0,0.0,0.0,0.0,0.0,0.0,0.0,0.0,0.0,0.0,0.0,0.0,0.0,0.0,0.0,0.0,0.0,0.0,0.0,0.0,0.0,0.0,0.0,0.0,0.0,0.0,0.0,0.0,0.0,0.0,0.0,0.0,0.0,0.0,0.0,0.0,0.0,0.0,0.0,0.0,0.0,0.0,0.0,0.0,0.0,0.0,0.0,0.0,0.0,0.0,0.0,0.0,0.0,0.0,0.0,0.0,0.0,0.0,0.0,0.0,0.0,0.0,0.0,0.0,0.0,0.0,0.0,0.0,0.0,0.0,0.0,0.0,0.0,0.0,0.0,0.0,0.0,0.0,-2.7816,-2.7435,-2.6973,-2.647,-2.6245,-2.6264,-2.5497,-2.5656,-2.7261,-2.7012,0.0,0.0,0.0,0.0,0.0,0.0,0.0,0.0,0.0,0.0,0.0,0.0,0.0,0.0,0.0,0.0,0.0,0.0,0.0,0.0,0.0,0.0,0.0,0.0,0.0,0.0,0.0,0.0,0.0,0.0,0.0,0.0,0.0,0.0,0.0,0.0,0.0,0.0,0.0,0.0,0.0,0.0,0.0,0.0,0.0,0.0,0.0,0.0,0.0,0.0,0.0,0.0,0.0,0.0,0.0,0.0,0.0,0.0,0.0,0.0,0.0,0.0,0.0,0.0,0.0,0.0,0.0,0.0,0.0,0.0,0.0,0.0,0.0,0.0,0.0,0.0,0.0,0.0,0.0,0.0,0.0,0.0,0.0,0.0,0.0,0.0,0.0,0.0,0.0,0.0,0.0,0.0,0.0,0.0,0.0,0.0,0.0,0.0,0.0,0.0,0.0,0.0,-2.7043,-2.635,-2.6606,-2.6043,-2.5675,-2.568,-2.5278,-2.5582,-2.6957,-2.6882,0.0,0.0,0.0,0.0,0.0,0.0,0.0,0.0,0.0,0.0,0.0,0.0,0.0,0.0,0.0,0.0,0.0,0.0,0.0,0.0,0.0,0.0,0.0,0.0,0.0,0.0,0.0,0.0,0.0,0.0,0.0,0.0,0.0,0.0,0.0,0.0,0.0,0.0,0.0,0.0,0.0,0.0,0.0,0.0,0.0,0.0,0.0,0.0,0.0,0.0,0.0,0.0,0.0,0.0,0.0,0.0,0.0,0.0,0.0,0.0,0.0,0.0,0.0,0.0,0.0,0.0,0.0,0.0,0.0,0.0,0.0,0.0,0.0,0.0,0.0,0.0,0.0,0.0,0.0,0.0,0.0,0.0,0.0,0.0,0.0,0.0,0.0,0.0,0.0,0.0,0.0,0.0,0.0,0.0,0.0,0.0,0.0,0.0,0.0,0.0,0.0,0.0,-2.6653,-2.6145,0.0,-2.5631,-2.546,-2.5605,-2.5224,-2.5566,-2.6926,0.0,0.0,0.0,0.0,0.0,0.0,0.0,0.0,0.0,0.0,0.0,0.0,0.0,0.0,0.0,0.0,0.0,0.0,0.0,0.0,0.0,0.0,0.0,0.0,0.0,0.0,0.0,0.0,0.0,0.0,0.0,0.0,0.0,0.0,0.0,0.0,0.0,0.0,0.0,0.0,0.0,0.0,0.0,0.0,0.0,0.0,0.0,0.0,0.0,0.0,0.0,0.0,0.0,0.0,0.0,0.0,0.0,0.0,0.0,0.0,0.0,0.0,0.0,0.0,0.0,0.0,0.0,0.0,0.0,0.0,0.0,0.0,0.0,0.0,0.0,0.0,0.0,0.0,0.0,0.0,0.0,0.0,0.0,0.0,0.0,0.0,0.0,0.0,0.0,0.0,0.0,0.0,0.0,0.0,0.0,0.0,0.0,0.0,0.0,0.0,0.0,0.0,-2.6764,-2.6252,-2.5845,0.0,-2.5503,-2.5519,-2.5584,-2.5278,-2.5598,-2.68,0.0,0.0,0.0,0.0,0.0,0.0,0.0,0.0,0.0,0.0,0.0,0.0,0.0,0.0,0.0,0.0,0.0,0.0,0.0,0.0,0.0,0.0,0.0,0.0,0.0,0.0,0.0,0.0,0.0,0.0,0.0,0.0,0.0,0.0,0.0,0.0,0.0,0.0,0.0,0.0,0.0,0.0,0.0,0.0,0.0,0.0,0.0,0.0,0.0,0.0,0.0,0.0,0.0,0.0,0.0,0.0,0.0,0.0,0.0,0.0,0.0,0.0,0.0,0.0,0.0,0.0,0.0,0.0,0.0,0.0,0.0,0.0,0.0,0.0,0.0,0.0,0.0,0.0,0.0,0.0,0.0,0.0,0.0,0.0,0.0,0.0,0.0,0.0,0.0,0.0,0.0,0.0,0.0,0.0,0.0,0.0,0.0,0.0,0.0,0.0,0.0,0.0,-2.6667,-2.5809,-2.5253,-2.5465,-2.5738,-2.5824,-2.5616,-2.541,-2.5684,0.0,0.0,0.0,0.0,0.0,0.0,0.0,0.0,0.0,0.0,0.0,0.0,0.0,0.0,0.0,0.0,0.0,0.0,0.0,0.0,0.0,0.0,0.0,0.0,0.0,0.0,0.0,0.0,0.0,0.0,0.0,0.0,0.0,0.0,0.0,0.0,0.0,0.0,0.0,0.0,0.0,0.0,0.0,0.0,0.0,0.0,0.0,0.0,0.0,0.0,0.0,0.0,0.0,0.0,0.0,0.0,0.0,0.0,0.0,0.0,0.0,0.0,0.0,0.0,0.0,0.0,0.0,0.0,0.0,0.0,0.0,0.0,0.0,0.0,0.0,0.0,0.0,0.0,0.0,0.0,0.0,0.0,0.0,0.0,0.0,0.0,0.0,0.0,0.0,0.0,0.0,0.0,0.0,0.0,0.0,0.0,0.0,0.0,0.0,0.0,0.0,0.0,0.0,-2.6129,-2.5073,-2.4451,-2.4704,-2.4863,-2.5036,-2.5091,-2.524,-2.5572,-2.6129,0.0,0.0,0.0,0.0,0.0,0.0,0.0,0.0,0.0,0.0,0.0,0.0,0.0,0.0,0.0,0.0,0.0,0.0,0.0,0.0,0.0,0.0,0.0,0.0,0.0,0.0,0.0,0.0,0.0,0.0,0.0,0.0,0.0,0.0,0.0,0.0,0.0,0.0,0.0,0.0,0.0,0.0,0.0,0.0,0.0,0.0,0.0,0.0,0.0,0.0,0.0,0.0,0.0,0.0,0.0,0.0,0.0,0.0,0.0,0.0,0.0,0.0,0.0,0.0,0.0,0.0,0.0,0.0,0.0,0.0,0.0,0.0,0.0,0.0,0.0,0.0,0.0,0.0,0.0,0.0,0.0,0.0,0.0,0.0,0.0,0.0,0.0,0.0,0.0,0.0,0.0,0.0,0.0,0.0,0.0,0.0,0.0,0.0,0.0,0.0,0.0,0.0,-2.5766,-2.4847,-2.4302,-2.4395,-2.4583,-2.4744,-2.4784,-2.4879,-2.5082,-2.5459,0.0,0.0,0.0,0.0,0.0,0.0,0.0,0.0,0.0,0.0,0.0,0.0,0.0,0.0,0.0,0.0,0.0,0.0,0.0,0.0,0.0,0.0,0.0,0.0,0.0,0.0,0.0,0.0,0.0,0.0,0.0,0.0,0.0,0.0,0.0,0.0,0.0,0.0,0.0,0.0,0.0,0.0,0.0,0.0,0.0,0.0,0.0,0.0,0.0,0.0,0.0,0.0,0.0,0.0,0.0,0.0,0.0,0.0,0.0,0.0,0.0,0.0,0.0,0.0,0.0,0.0,0.0,0.0,0.0,0.0,0.0,0.0,0.0,0.0,0.0,0.0,0.0,0.0,0.0,0.0,0.0,0.0,0.0,0.0,0.0,0.0,0.0,0.0,0.0,0.0,0.0,0.0,0.0,0.0,0.0,0.0,0.0,0.0,0.0,0.0,0.0,0.0,-2.5449,-2.4918,-2.4508,-2.4369,-2.4623,-2.4744,-2.4542,-2.4486,-2.4471,-2.4632,0.0,0.0,0.0,0.0,0.0,0.0,0.0,0.0,0.0,0.0,0.0,0.0,0.0,0.0,0.0,0.0,0.0,0.0,0.0,0.0,0.0,0.0,0.0,0.0,0.0,0.0,0.0,0.0,0.0,0.0,0.0,0.0,0.0,0.0,0.0,0.0,0.0,0.0,0.0,0.0,0.0,0.0,0.0,0.0,0.0,0.0,0.0,0.0,0.0,0.0,0.0,0.0,0.0,0.0,0.0,0.0,0.0,0.0,0.0,0.0,-2.72,0.0,0.0,0.0,0.0,0.0,0.0,0.0,0.0,0.0,0.0,0.0,0.0,0.0,0.0,0.0,0.0,0.0,0.0,0.0,0.0,0.0,0.0,0.0,0.0,0.0,0.0,0.0,0.0,0.0,0.0,0.0,0.0,0.0,0.0,0.0,0.0,0.0,0.0,0.0,0.0,0.0,-2.515,-2.4542,-2.4109,-2.4094,-2.4302,-2.4343,-2.4135,-2.4395,-2.4461,-2.423,-2.4502,0.0,0.0,0.0,0.0,0.0,0.0,0.0,0.0,0.0,0.0,0.0,0.0,0.0,0.0,0.0,0.0,0.0,0.0,0.0,0.0,0.0,0.0,0.0,0.0,0.0,0.0,0.0,0.0,0.0,0.0,0.0,0.0,0.0,0.0,0.0,0.0,0.0,0.0,0.0,0.0,0.0,0.0,0.0,0.0,0.0,0.0,0.0,0.0,0.0,0.0,0.0,0.0,0.0,0.0,0.0,0.0,0.0,0.0,0.0,0.0,-2.7037,0.0,0.0,0.0,0.0,0.0,0.0,0.0,0.0,0.0,0.0,0.0,0.0,0.0,0.0,0.0,0.0,0.0,0.0,0.0,0.0,0.0,0.0,0.0,0.0,0.0,0.0,0.0,0.0,0.0,0.0,0.0,0.0,0.0,0.0,0.0,0.0,0.0,0.0,0.0,0.0,-2.5841,-2.5284,-2.4938,-2.4938,-2.4938,-2.4894,-2.4761,-2.4864,-2.479,-2.4627,-2.4776,0.0,0.0,0.0,0.0,0.0,0.0,0.0,0.0,0.0,0.0,0.0,0.0,0.0,0.0,0.0,0.0,0.0,0.0,0.0,0.0,0.0,0.0,0.0,0.0,0.0,0.0,0.0,0.0,0.0,0.0,0.0,0.0,0.0,0.0,0.0,0.0,0.0,0.0,0.0,0.0,0.0,0.0,0.0,0.0,0.0,0.0,0.0,0.0,0.0,0.0,0.0,0.0,0.0,-0.9779,-1.3021,-1.5533,-2.1321,-2.4455,-2.5378,-2.5855,-2.5947,-2.5779,-2.6488,0.0,0.0,0.0,0.0,0.0,0.0,0.0,0.0,0.0,0.0,0.0,0.0,0.0,0.0,0.0,0.0,0.0,0.0,0.0,0.0,0.0,0.0,0.0,0.0,-2.6671,-2.6391,0.0,0.0,0.0,0.0,0.0,0.0,0.0,0.0,0.0,0.0,0.0,0.0,-2.6541,-2.6198,-2.5986,-2.5986,-2.5755,-2.5615,-2.5553,-2.5349,-2.5191,-2.5158,-2.5188,-2.5316,0.0,0.0,0.0,0.0,0.0,0.0,0.0,0.0,0.0,0.0,0.0,0.0,0.0,0.0,0.0,0.0,0.0,0.0,0.0,0.0,0.0,0.0,0.0,0.0,0.0,0.0,0.0,0.0,0.0,0.0,0.0,0.0,1.5248,1.477,0.0,0.0,0.0,0.0,0.0,0.0,0.0,0.0,0.0,0.0,0.0,0.0,0.0,-0.6784,-0.5487,0.0814,0.097,-0.4956,0.0545,-0.3129,-1.4746,-1.569,-1.9378,-2.5045,-2.5146,0.0,-2.5875,-2.5872,0.0,0.0,0.0,0.0,0.0,0.0,0.0,0.0,0.0,0.0,0.0,0.0,0.0,0.0,0.0,0.0,0.0,0.0,0.0,0.0,0.0,0.0,-2.6957,-2.7052,-2.7042,-2.6983,0.0,-2.7118,-2.7324,-2.738,-2.0869,0.0,0.0,0.0,0.0,0.0,0.0,0.0,-2.6108,-2.594,-2.5816,-2.5816,-2.5708,-2.5553,-2.5458,-2.5396,-2.5254,-2.5029,-2.5043,-2.5091,-2.5283,-2.5601,0.0,0.0,0.0,0.0,0.0,0.0,0.0,0.0,0.0,0.0,0.0,0.0,0.0,0.0,0.0,0.0,0.0,0.0,0.0,0.0,0.0,0.0,0.0,0.0,0.0,0.0,0.0,0.0,0.0,1.7534,1.7589,1.7335,1.7123,1.5659,0.0,0.0,0.0,0.0,0.0,0.0,0.0,0.0,0.0,0.0282,0.0518,0.2534,0.6824,1.0021,1.0073,0.7054,0.6355,0.081,-0.8935,-1.2834,-1.8419,-2.5037,-2.5377,-2.5719,-2.5931,-2.5637,-2.5779,-2.616,0.0,0.0,0.0,0.0,-2.6737,-2.664,-2.6453,-2.6358,0.0,-2.6268,0.0,0.0,0.0,0.0,0.0,0.0,0.0,0.0,0.0,0.0,-2.7376,-2.7617,-2.7652,-2.7778,-2.8158,-2.8265,-2.8167,0.0,-2.4194,-2.2692,-2.6857,0.0,0.0,0.0,0.0,0.0,-2.7157,-2.7028,-2.6931,-2.6931,-2.6819,-2.6707,-2.6658,-2.651,-2.6361,-2.6226,-2.6075,-2.6039,-2.609,-2.651,-2.6838,0.0,0.0,0.0,0.0,0.0,0.0,0.0,0.0,0.0,0.0,0.0,0.0,0.0,0.0,0.0,0.0,0.0,0.0,0.0,0.0,0.0,0.0,0.0,0.0,0.0,0.0,0.0,0.0,1.7279,1.7435,1.7112,1.7279,1.6533,0.0,0.0,0.0,0.0,0.0,0.0,-0.2674,-0.2633,0.072,0.8078,0.8279,1.0887,1.6363,1.6384,1.6384,1.6363,1.1233,0.4085,-0.4751,-0.9761,-1.7005,-2.5591,-2.6056,-2.6277,-2.6246,-2.5967,-2.5908,-2.6031,-2.6335,-2.6451,-2.6537,-2.6924,-2.6981,-2.688,-2.6889,-2.6863,-2.6804,-2.695,0.0,-2.7206,-2.7713,0.0,0.0,0.0,0.0,-2.4783,-2.4572,-2.282,-2.1187,-2.1463,-2.1518,-2.1602,-2.2178,-2.2152,-2.2468,0.0,-2.2456,-2.0735,-2.103,0.0,0.0,0.0,0.0,-2.4722,-2.4562,-2.6285,-2.7575,-2.774,-2.7675,-2.7575,-2.7524,-2.7386,-2.7233,-2.713,-2.6937,-2.6846,-2.6779,-2.7093,-2.7299,-2.7437,0.0,0.0,0.0,0.0,0.0,0.0,0.0,0.0,0.0,0.0,0.0,0.0,0.0,0.0,0.0,0.0,0.0,0.0,0.0,0.0,0.0,0.0,0.0,0.0,0.0,0.0,0.0,0.0,0.0,1.749,1.8061,0.0,0.0,0.0,0.0,-0.3524,-0.4427,-0.1811,0.4634,0.4972,0.8279,1.5622,1.5873,1.6001,1.6384,1.6384,1.6384,1.6384,1.644,0.877,-0.5335,-0.5268,-1.3183,-2.7004,-2.7036,-2.7051,-2.7051,-2.7004,-2.7185,-2.7403,-2.7336,-2.7551,-2.776,-2.732,-2.7211,-2.7211,-2.6848,-2.6733,-2.6733,-2.6835,-2.711,-2.7406,-2.7406,-2.8107,0.0,0.0,-2.2828,-1.6788,-1.6485,-1.0097,-0.3764,-0.377,-0.3576,-0.3502,-0.3767,-0.3551,-0.5729,0.0,-0.8699,-0.2607,-0.2385,0.0,0.7518,-0.104,-0.9015,-1.434,-1.5005,-2.1942,-2.6997,-2.7575,-2.7625,-2.7524,-2.7401,-2.7401,-2.7299,-2.7055,-2.7003,-2.6951,-2.6779,-2.6832,-2.7078,-2.7575,-2.7625,0.0,0.0,0.0,0.0,0.0,0.0,0.0,0.0,0.0,0.0,0.0,0.0,0.0,0.0,0.0,0.0,0.0,0.0,0.0,0.0,0.0,0.0,0.0,0.0,0.0,0.0,0.0,0.0,1.771,1.805,0.0,1.4278,1.4408,1.3231,0.9709,0.9786,1.0729,1.2434,1.2486,1.3811,1.6708,1.6808,1.6953,1.7243,1.7253,1.7253,1.7253,1.7409,1.2303,0.2859,0.3003,-0.5084,-1.9337,-1.9753,-2.2922,-2.7778,-2.8221,-2.7873,-2.711,-2.7169,-2.7179,-2.7195,-2.7628,-2.7699,-2.7614,-2.798,-2.8106,-2.8092,-2.8152,-2.8334,-2.8484,-2.8484,-2.8732,-2.7792,-2.1932,-1.8199,-1.4616,-0.8765,-0.4884,-0.2521,-0.2521,-0.2407,-0.2401,-0.2467,-0.2413,-0.1409,0.1558,0.0104,-0.1503,-0.1189,0.1561,0.2615,-0.0519,-0.8075,-1.3527,-1.3795,-2.1368,-2.6788,-2.6997,-2.7357,-2.7575,-2.7524,-2.7437,-2.735,-2.7248,-2.7196,-2.7093,-2.7078,-2.7078,-2.713,-2.7335,-2.7321,-2.7625,0.0,0.0,0.0,0.0,0.0,0.0,0.0,0.0,0.0,0.0,0.0,0.0,0.0,0.0,0.0,0.0,0.0,0.0,0.0,0.0,0.0,0.0,0.0,0.0,0.0,0.0,1.8915,1.7765,1.8363,1.8697,1.817,1.8655,1.8643,1.7809,1.8089,1.7868,1.6927,1.6863,1.6974,1.7203,1.7214,1.7368,1.7668,1.7668,1.7668,1.7668,1.7885,1.4101,0.706,0.7188,0.0335,-1.1643,-1.2077,-1.6888,-2.4403,-2.4875,-2.609,-2.763,-2.7734,-2.7674,-2.7588,-2.8223,-2.8336,-2.8262,-2.8763,-2.8936,-2.892,-2.8936,-2.9029,-2.856,-2.5521,-2.4608,-2.2752,-1.3841,-0.9126,-0.547,0.0477,0.4244,0.645,0.645,0.6544,0.6583,0.6583,0.6583,0.8533,1.5077,0.9031,0.3934,0.7361,0.7939,0.7034,0.429,-0.3299,-0.971,-1.278,-2.0727,-2.619,-2.6404,-2.6759,-2.6967,-2.6967,-2.7115,-2.7063,-2.6788,-2.6893,-2.6959,-2.6893,-2.7034,-2.724,-2.7509,-2.756,-2.7775,-2.8137,0.0,0.0,0.0,0.0,0.0,0.0,0.0,0.0,0.0,0.0,0.0,0.0,0.0,0.0,0.0,0.0,0.0,0.0,0.0,0.0,0.0,0.0,0.0,1.8454,1.9233,1.9337,1.7644,1.898,1.9643,1.8744,1.9117,1.9287,1.8851,1.8732,1.844,1.7955,1.7835,1.774,1.775,1.7761,1.7761,1.7709,1.7709,1.7709,1.7781,1.8195,1.4292,0.6726,0.7162,0.3004,-0.4639,-0.4639,-0.9241,-1.6735,-1.6735,-2.1332,-2.842,-2.8872,-2.9075,-2.9075,-2.9075,-2.9075,-2.9075,-2.9075,-2.8934,-2.8684,-2.8684,-2.8482,-2.664,-1.802,-1.5411,-1.3531,-0.4625,0.4136,1.0854,1.113,1.7617,2.4112,2.4112,2.4319,2.4452,2.4465,2.4465,2.4708,2.5369,1.8239,1.5029,2.4314,2.5893,2.312,1.4988,0.6651,0.0,-1.094,-1.9439,-2.4898,-2.5714,-2.5837,-2.5837,-2.5837,-2.6336,-2.6404,-2.5673,-2.6176,-2.6404,-2.6283,-2.6739,-2.7303,-2.8027,-2.8143,-2.814,-2.7955,0.0,0.0,0.0,0.0,0.0,0.0,0.0,0.0,0.0,0.0,0.0,0.0,0.0,0.0,0.0,0.0,0.0,0.0,0.0,0.0,0.0,0.0,1.98,1.9349,2.0294,2.0534,1.9307,1.9888,2.022,1.9649,2.0093,2.0229,1.9788,1.9725,1.946,1.8955,1.8862,1.8851,1.8763,1.8774,1.8744,1.8702,1.8702,1.8702,1.8702,1.8827,1.775,1.5569,1.5743,1.1361,0.369,0.369,-0.0874,-0.8325,-0.8325,-0.9651,-1.2769,-2.453,-2.9075,-2.9075,-2.9075,-2.9075,-2.9075,-2.9075,-2.4882,-1.9471,-1.9471,-1.5077,-0.9358,-0.7063,-0.6369,-0.4554,0.4297,0.8534,1.1922,1.8402,2.1888,2.3747,2.3949,2.3995,2.4099,2.4216,2.4216,2.439,2.5018,2.308,2.2292,2.5383,2.5893,2.5135,2.2811,1.5336,0.0,-0.1687,-1.0487,-1.846,-2.5066,-2.6176,-2.6457,-2.6457,-2.6616,-2.6457,-2.5783,-2.5906,-2.596,-2.596,-2.604,-2.624,-2.6414,-2.6649,-2.6753,0.0,0.0,0.0,0.0,0.0,0.0,0.0,0.0,0.0,0.0,0.0,0.0,0.0,0.0,0.0,0.0,0.0,0.0,0.0,0.0,0.0,0.0,2.0625,2.1108,2.1108,2.1613,2.1609,2.0623,2.1212,2.1511,2.0911,2.0978,2.1024,2.0775,2.0498,2.0168,1.9953,1.9855,1.9856,1.9819,1.9706,1.9615,1.9691,1.9609,1.9576,1.9634,1.9634,1.9565,1.9497,1.9644,1.7062,0.0,1.2555,0.8032,0.0606,0.0606,-0.1375,0.0,0.0,0.0,0.0,0.0,-1.9007,-1.9007,-1.9007,-1.5408,-1.084,-1.084,-0.7182,-0.2015,0.1567,0.267,0.4535,1.3375,1.5864,1.7053,2.2228,2.3628,2.3628,2.376,2.376,2.3878,2.4086,2.4112,2.4229,2.4892,2.4878,0.0,2.5633,2.5853,2.4723,2.1209,1.6488,1.0346,0.1979,-0.3674,-0.8863,-1.4071,-1.4919,-1.5151,-1.5151,-1.538,0.0,0.0,0.0,-1.5087,-1.5285,-1.551,0.0,0.0,0.0,-1.5774,-1.5574,0.0,0.0,0.0,-2.4056,-2.7455,0.0,0.0,0.0,0.0,0.0,0.0,0.0,0.0,0.0,0.0,0.0,0.0,0.0,0.0,0.0,0.0,2.2417,2.3056,2.3124,2.2937,2.2504,2.1725,2.2578,2.2937,2.2153,2.1878,2.1779,2.183,2.1257,2.092,2.1028,0.0,0.0,0.0,0.0,2.0565,2.0712,2.0365,2.0278,2.0492,2.0359,2.0216,2.0073,2.0288,2.0216,2.0073,2.0349,1.6419,0.9868,0.9922,0.5762,-0.0984,-0.3754,-0.4844,-0.4841,-0.4816,-0.4805,-0.4801,-0.4777,0.0,0.0,-0.2369,-0.1309,0.1468,0.9372,1.172,1.3354,2.1305,2.3509,2.3509,2.3509,2.3509,2.3497,2.3569,2.3569,2.3675,2.4118,2.4028,2.4054,2.4778,2.4637,2.4694,2.5313,2.5633,2.3336,1.5943,1.4828,1.1775,0.3398,0.2319,0.1921,0.0901,0.0,0.0,0.0789,0.0331,0.0275,0.0847,0.0388,-0.0108,-0.0476,-0.1035,-0.133,-0.133,-0.133,-0.1087,-0.0583,-0.0583,-0.0583,-0.1008,-1.671,-2.4156,0.0,0.0,0.0,0.0,0.0,0.0,0.0,0.0,0.0,0.0,0.0,0.0,0.0,0.0,0.0,2.1207,2.1941,2.2681,2.3099,2.3349,2.3204,2.2346,2.2778,2.3004,2.2695,2.2972,2.3098,2.2854,2.2683,2.2592,2.2579,2.2571,2.2551,2.2541,2.2511,2.2287,2.1889,2.1145,2.0846,2.0917,0.0,0.0,1.9867,1.9929,1.9867,1.9867,2.0563,2.0089,1.8874,1.9472,1.891,1.6243,0.1732,-0.3939,-0.3923,-0.3724,-0.3615,-0.3597,-0.3463,0.1426,0.7538,0.7538,1.2421,1.8566,2.0181,2.0582,0.0,2.2396,2.286,2.286,2.286,2.2982,2.309,2.3198,2.333,2.3509,2.3675,2.3688,2.3806,2.4189,2.4292,2.4478,2.4848,2.5313,2.5108,2.366,2.3498,2.0428,1.2047,1.0986,0.8213,0.0935,0.0165,0.0165,0.0165,0.0055,0.0275,0.0847,0.0788,0.0672,0.0613,0.0499,0.0443,0.0443,0.0443,0.0444,0.0557,0.0557,0.0557,0.0446,-0.3874,-0.5863,0.0,0.0,0.0,0.0,0.0,0.0,0.0,0.0,0.0,0.0,0.0,2.0476,2.0735,0.0,2.2097,2.2515,2.2998,2.3341,2.3629,2.3795,2.3747,2.3332,2.3725,2.393,2.3704,2.38,2.3804,2.361,2.3546,2.3529,2.3515,2.3799,2.3811,2.3525,2.3506,2.3225,2.2774,2.2375,2.2197,2.2269,2.1763,2.1481,2.1408,2.1481,2.1481,2.1408,2.2053,2.2341,2.2485,2.2853,2.3126,2.2284,1.3423,0.9772,0.9566,0.9611,0.9618,0.9593,0.9733,1.2842,1.6735,1.6735,1.9941,2.3779,2.3704,2.3578,2.3466,2.3157,2.3083,2.3022,2.2751,2.2739,2.28,2.2848,2.303,2.321,2.3318,2.345,2.3569,2.3793,2.3897,2.4073,2.4363,2.4721,2.5005,2.5397,2.5453,2.3912,1.9713,1.9356,1.7734,1.3231,1.2859,1.2913,1.2784,1.2729,1.2826,1.2963,1.3264,1.3255,1.2981,1.3132,1.3123,1.2981,1.2981,1.2981,1.2981,1.2981,1.2981,1.2972,1.2393,0.7486,0.0,0.0,0.0,0.0,0.0,0.0,0.0,0.0,2.0358,2.071,2.1092,2.1488,2.2247,2.268,2.3173,2.3865,2.4067,2.4067,2.3995,2.3995,2.3995,2.3995,2.4505,2.4708,2.4523,2.4292,2.4229,2.423,2.4179,2.4229,2.4318,2.4771,2.4878,2.445,2.4434,2.4178,2.3792,2.3609,2.3519,2.3593,2.3298,2.3075,2.2927,2.3075,2.3001,2.2927,2.3434,2.3813,2.3959,2.4032,2.4032,2.4032,2.4032,2.3674,2.3185,2.2856,2.28,2.2788,2.2764,2.3045,2.3368,2.3301,2.3646,2.412,2.4054,2.4054,2.3981,2.3567,2.3445,2.3347,2.2908,2.2787,2.2776,2.2776,2.2813,2.2909,2.3017,2.315,2.3283,2.339,2.345,2.3616,2.3839,2.406,2.4363,2.4892,2.5005,2.5005,2.5005,2.5257,2.5383,2.5383,2.5578,2.5633,2.5425,2.5383,2.5313,2.5005,2.5453,2.5508,2.5005,2.5257,2.5257,2.5005,2.5005,2.5005,2.5005,2.5005,2.5005,2.5005,2.4935,1.7533,1.6523,1.6722,1.7169,1.8324,1.949,2.0663,0.0,0.0,2.2432,2.2949,2.3428,2.3572,2.3097,2.3518,2.3865,2.3688,2.3819,2.3891,2.3688,2.3628,2.3628,2.3628,2.3995,2.4274,2.4465,2.4452,2.4562,2.4792,2.4823,2.4996,2.5426,2.5473,2.5737,2.6145,2.6152,2.5844,2.538,2.4612,2.407,2.3604,2.2852,2.2478,2.2478,2.2478,2.2478,2.2553,2.3621,2.4576,2.5394,2.5548,2.5618,2.5618,2.5465,2.5184,2.4718,2.4011,2.3711,2.3722,2.3826,2.3881,2.3869,2.3725,2.3658,2.3725,2.3525,2.3537,2.3537,2.3278,2.3254,2.3242,2.3183,2.3025,2.2859,2.2859,2.2773,2.2739,2.2739,2.2739,2.28,2.28,2.2969,2.3198,2.3198,2.3497,2.3969,2.4721,2.4892,2.5005,2.5005,2.5005,2.5075,2.5075,2.5061,2.5118,2.5061,2.5075,2.5061,2.5005,2.5061,2.5061,2.5005,2.5061,2.5061,2.5005,2.5005,2.5005,2.5005,2.5005,2.5005,2.5005,2.4694,2.3704,2.0488,2.095,0.0,0.0,2.1801,2.2152,2.2727,2.2902,2.2992,2.345,2.3688,2.3747,2.3437,2.3628,2.3747,0.0,2.3688,2.37,2.3628,2.3628,2.3628,2.3628,2.3747,2.3923,2.4157,2.4433,2.4734,2.4936,2.5563,2.6024,2.6245,2.6514,2.6662,2.6564,2.6701,2.6346,2.5453,2.5229,2.4814,2.4273,2.3824,2.3604,2.3582,2.3279,2.3071,2.2953,2.3433,2.3849,2.4285,2.4354,2.4366,2.4366,2.4285,2.4154,2.4066,2.4217,2.4133,2.3835,2.3754,2.3694,2.3561,2.3494,2.3494,2.3416,2.3349,2.3361,2.3301,2.2928,2.278,2.2709,2.2415,2.2232,2.2194,2.2194,2.2456,2.2621,2.2444,2.2738,2.2922,2.2616,2.2604,2.2653,2.2604,2.2787,2.3017,2.3365,2.3839,2.4203,2.4203,2.4376,2.4536,2.4694,2.4593,2.4478,2.4478,2.4478,2.4363,2.4099,2.4421,2.4478,2.4203,2.4363,2.4492,2.4505,2.4505,2.439,2.4203,2.4203,2.4144,2.4099,2.391,2.3969,2.1428,0.0,0.0,2.2848,2.3078,2.3198,2.315,2.3138,2.3318,2.3569,2.3628,2.3569,2.3569,2.3569,0.0,2.3509,2.3509,2.3509,2.345,2.339,2.339,2.339,2.339,2.3573,2.3919,2.4412,2.4896,2.5357,2.6203,2.6739,2.6844,2.7022,2.6905,2.6496,2.6483,2.6057,2.5087,2.5312,2.511,2.4435,2.4281,2.4068,2.3847,2.3455,2.3225,2.308,2.3171,2.3238,2.3305,2.3305,2.3305,2.3305,2.3305,2.3144,2.2995,2.3561,2.3764,2.364,2.3427,2.3293,2.3238,2.3171,2.3171,2.3171,2.3036,2.3103,2.31,2.2593,2.2476,2.246,2.2087,2.1888,2.1846,2.1846,2.215,2.2337,2.2083,2.2423,2.2706,2.2258,2.2235,2.2235,2.2123,2.2356,2.2515,2.2515,2.3195,2.3538,2.3428,2.3662,2.3884,2.4105,2.3943,2.3839,2.3839,2.3839,2.3662,2.333,2.3721,2.3839,2.3509,2.3734,2.3839,2.3806,2.3806,2.3688,2.3437,2.3437,2.339,2.3343,2.3343,2.339,0.0,0.0,2.2075,2.2714,2.3271,2.3556,2.3569,2.3569,2.3569,2.3628,2.3628,2.3569,2.3463,2.3509,2.3509,2.3198,2.3271,2.3271,2.2969,2.2909,2.2909,2.2909,2.2909,2.3242,0.0,2.451,2.5159,2.6298,2.6596,2.6857,2.7284,2.6539,2.6045,2.5824,2.5545,2.5052,2.4409,2.4791,2.4496,2.3465,2.3465,2.3003,2.2262,2.225,2.2343,2.2423,2.2809,2.3103,2.3305,2.3305,2.3305,2.3305,2.3305,2.2776,2.1904,2.1807,2.2472,2.3305,2.3092,2.3024,2.2968,2.2753,2.2821,2.2889,2.2423,2.2628,2.2889,2.2332,2.2457,2.2718,2.2707,2.2405,2.2178,2.2178,2.1946,2.1722,2.1698,2.171,2.1722,2.1698,2.1812,2.1925,2.1925,2.2468,2.2855,2.2855,2.3352,2.3511,2.2984,2.3017,2.3138,2.3125,2.3138,2.3138,2.3138,2.3138,2.3138,2.3138,2.3138,2.3138,2.3138,2.3138,2.3138,2.3138,2.3138,2.3138,2.3138,2.3138,2.3138,2.3138,2.3138,2.3138,0.0,0.0,2.2235,2.2678,2.286,2.2982,2.2982,2.2982,2.3042,2.309,2.315,2.315,2.3198,2.315,2.309,2.2969,2.2982,2.2921,2.28,2.28,2.28,2.28,2.28,0.0,0.0,0.0,0.0,2.6154,2.6631,2.694,2.7066,2.6863,2.6645,2.6577,2.6508,2.6151,2.5569,2.5721,2.5257,2.4117,2.3762,2.3258,2.2632,2.2632,2.2444,2.2116,2.2192,2.2268,2.2215,2.2215,2.2215,2.2215,2.1675,2.13,2.1012,2.049,2.0544,2.0875,2.0996,2.1062,2.1062,2.0996,2.0996,2.1062,2.0864,2.093,2.1062,2.0864,2.0864,2.0985,2.0985,2.0874,2.0751,2.0697,2.1082,2.1376,2.1047,2.1358,2.156,2.1238,2.1019,2.1122,2.1864,2.2127,2.261,2.3542,2.3393,2.3075,2.2916,2.2701,2.2482,2.2482,2.2482,2.2482,2.2482,2.2482,2.242,2.2285,2.2285,2.2347,2.2482,2.2482,2.2592,2.2738,2.2896,2.2775,2.2457,2.2592,2.2531,2.2285,2.2285,2.2528,0.0,2.1975,2.2111,2.2555,2.269,2.269,2.269,2.269,2.2739,2.28,2.286,2.2848,2.3017,2.2909,2.286,2.2909,2.28,2.2739,2.2896,2.2884,2.3017,2.3258,2.3495,0.0,0.0,0.0,0.0,2.6184,2.6726,2.6943,2.6875,2.6645,2.644,2.6371,2.6233,2.6013,2.5652,2.5804,2.5298,2.423,2.3501,2.29,2.2337,2.2273,2.202,2.16,2.1737,2.1749,2.1698,2.1698,2.1698,2.1635,2.1169,2.0903,2.0752,2.0313,2.0053,1.9998,2.0313,2.0366,2.0366,2.042,2.042,2.0302,1.9901,1.9835,1.9977,2.0172,2.0042,1.9977,2.0302,2.0302,2.0237,2.0183,2.0828,2.1419,2.1035,2.1358,2.1624,2.1227,2.1031,2.1243,2.2073,2.2612,2.3301,2.4365,2.3923,2.3382,2.306,2.248,2.2151,2.2356,2.219,2.2135,2.2273,2.2106,2.1949,2.1812,2.1675,2.1663,2.1788,2.18,2.1839,2.1791,2.2075,2.2025,2.1651,2.1788,2.1945,2.2072,2.2072,2.2408,2.1491,2.1678,2.1815,2.2482,2.269,2.2678,2.2678,2.2678,2.269,2.2678,2.2678,2.2739,0.0,0.0,2.2739,2.2848,2.28,2.2836,2.3255,2.3314,2.3551,0.0,0.0,0.0,0.0,0.0,0.0,2.6514,0.0,2.6943,2.6782,2.6057,2.5569,2.537,2.5004,2.4791,2.4791,2.5122,2.4771,2.3773,2.2763,2.2051,2.1498,2.1296,2.1221,2.1198,2.1549,2.1761,2.1698,2.1698,2.1698,2.1698,2.1698,2.1423,2.106,2.106,2.0816,2.0635,2.0828,2.0903,2.0903,2.1008,2.1019,2.07,1.9704,1.9518,1.9736,2.0302,2.0053,1.9868,2.0646,2.0764,2.0571,2.0571,2.1169,2.1698,2.1635,2.1635,2.1698,2.1698,2.1785,2.21,2.265,2.3826,2.4759,2.5228,2.4903,2.4261,2.3388,2.2526,2.2149,2.2582,2.208,2.1939,2.2344,2.1911,2.1642,2.1642,2.1267,2.1031,2.1031,2.1019,2.0805,2.0366,2.0722,2.0873,2.0873,2.0896,2.1415,2.2344,2.2344,2.2612,2.2482,2.2665,2.2604,2.2235,2.2247,2.2321,2.2321,2.2321,2.2371,2.2494,2.2482,2.2543,0.0,0.0,0.0,2.2543,2.2823,0.0,2.3148,2.3551,0.0,0.0,0.0,2.5205,2.5595,2.6498,0.0,0.0,2.7643,2.7776,2.7894,2.7095,2.662,2.6552,2.5943,2.5688,2.584,2.5492,2.508,2.4743,2.4049,2.345,2.2953,2.2889,2.2597,2.2099,2.2173,2.2185,2.2073,2.1937,2.1874,2.1812,2.1296,2.1031,2.0892,2.0495,2.0291,2.0302,2.1008,2.1019,2.07,2.07,2.07,2.0635,2.0366,2.0302,2.0377,2.0506,2.0442,2.0377,2.0635,2.0635,2.0571,2.0495,2.088,2.121,2.1094,2.1146,2.1273,2.1273,2.208,2.2834,2.3224,2.4329,2.5155,2.5288,2.472,2.4237,2.4068,2.2949,2.2446,2.3092,2.1922,2.1432,2.2128,2.1539,2.112,2.112,2.0704,2.0441,2.0441,2.0172,1.9922,1.9802,2.0335,2.0508,2.0374,2.0856,2.1105,2.1294,2.1432,2.1754,2.2689,2.275,2.2628,2.1987,2.1886,2.2011,2.2011,2.2011,2.2061,2.2173,2.2235,0.0,0.0,0.0,0.0,0.0,0.0,0.0,2.3859,2.4221,2.4567,0.0,2.5679,0.0,2.6179,2.7368,2.8193,0.0,2.8105,2.7908,2.7762,2.7297,2.6837,2.6508,2.6107,2.598,2.6062,2.5741,2.5401,2.5099,2.4646,2.4218,2.3704,2.3575,2.3156,2.2522,0.0,2.2265,2.1949,2.1886,2.1812,2.1749,2.1423,2.1233,2.1233,2.0903,2.0828,2.0892,2.1348,2.1348,2.1106,2.0955,2.0892,2.0752,2.0377,2.0248,2.0302,2.0688,2.056,2.0366,2.0816,2.0892,2.0816,2.0752,2.1071,2.14,2.1348,2.1348,2.1469,2.1754,2.2573,2.3367,2.3884,2.4683,2.5312,2.5312,2.4969,2.4648,2.4624,2.3418,2.2823,2.3491,2.2562,2.2136,2.2776,2.2168,2.1838,2.1838,2.1435,2.1213,2.127,2.1073,2.0863,2.0595,2.1138,2.1349,2.1213,2.1545,2.1926,2.2277,2.2358,2.2697,2.2714,2.2531,2.242,2.1886,2.1761,2.1698,2.1698,2.1812,2.1925,2.1925,0.0,0.0,2.2359,0.0,2.242,2.3135,0.0,2.3623,2.4765,2.5005,2.523,2.5784,2.6946,2.7527,2.6903,2.8504,2.9401,2.8867,2.8417,2.7894,2.7229,2.7095,2.6633,2.577,2.5758,2.5758,2.5758,2.5828,2.5595,2.5074,2.4993,2.4633,2.4122,2.3857,2.3502,2.2999,2.2805,0.0,2.1981,2.1981,2.1945,2.1886,2.1886,2.1886,2.1886,2.1886,2.1886,2.1886,2.1824,2.1761,2.1761,2.1537,2.1336,2.1071,2.0324,2.0118,2.0237,2.0944,2.0624,2.0302,2.1198,2.1325,2.1198,2.1198,2.1537,2.1874,2.1874,2.1808,2.2009,2.258,2.3167,2.3756,2.4336,2.4871,2.517,2.5099,2.5087,2.5016,2.4791,2.3717,2.3298,2.3897,2.3262,2.3063,2.35,2.3052,2.2742,2.2742,2.2398,2.2204,2.2388,2.2389,2.2138,2.1644,2.2021,2.2273,2.2342,2.2409,2.2867,2.3793,2.3793,2.4048,2.3695,2.3327,2.298,2.2297,2.1886,2.1761,2.1812,2.1874,0.0,0.0,0.0,2.2197,2.2247,2.2185,0.0,2.3027,0.0,0.0,0.0,0.0,2.5439,0.0,0.0,0.0,0.0,0.0,0.0,0.0,0.0,2.8688,2.8247,2.7591,2.6526,2.5076,2.5111,2.517,2.5265,2.5324,2.5276,2.5121,2.5484,2.5343,2.467,2.5061,2.4962,2.4541,2.4464,0.0,2.3567,2.3417,2.3108,2.2665,2.2665,2.2665,2.2726,2.2836,2.2836,2.2775,2.242,2.2185,2.2073,2.1749,2.1624,2.1561,2.1434,2.1371,2.1371,2.1561,2.1498,2.1434,2.1624,2.1624,2.1624,2.1624,2.1698,2.1761,2.1761,2.2016,2.2385,2.2768,2.3292,2.3758,2.4186,2.4348,2.4261,2.3959,2.3875,2.3728,2.3361,2.3276,2.3497,2.4116,2.2553,2.1834,2.2573,2.1912,2.1494,2.1494,2.1154,2.0947,2.0937,2.0617,2.0339,2.0267,2.0668,2.1084,2.1355,2.1744,2.22,2.2648,2.2499,2.2765,2.3872,2.3458,2.2992,2.2506,2.2049,2.1812,2.2211,0.0,0.0,0.0,0.0,2.3113,2.3113,0.0,0.0,0.0,0.0,0.0,0.0,0.0,0.0,0.0,0.0,0.0,0.0,0.0,0.0,0.0,0.0,2.856,2.7986,2.7191,2.6402,2.5676,2.5734,2.5721,2.5804,2.5861,2.5861,2.5804,2.6025,2.5958,2.5629,2.5834,2.567,2.5156,2.5025,0.0,2.4202,2.3998,2.3614,2.3083,2.3009,2.2787,2.2543,2.2604,2.2604,2.2604,2.2371,2.2247,2.2185,2.2011,2.1749,2.1549,2.1486,2.1486,2.1537,2.1537,2.1537,2.1549,2.1698,2.1698,2.1698,2.1698,2.1624,2.1549,2.1423,2.1829,2.2197,2.2423,2.2878,2.3307,2.3514,2.3604,2.3519,2.3298,2.3298,2.3224,2.3001,2.2916,2.3054,2.3666,2.2852,2.2478,2.2852,2.2478,2.2327,2.2327,2.2126,2.2073,2.2147,2.1923,2.1857,2.1857,2.2029,2.2221,2.2431,2.2658,2.2852,2.3001,2.2927,2.3001,2.4079,2.3531,2.2944,2.2786,2.2211,2.1874,2.2494,2.2798,0.0,0.0,0.0,2.3962,2.3846,0.0,0.0,0.0,0.0,0.0,0.0,0.0,0.0,0.0,0.0,0.0,0.0,0.0,0.0,0.0,0.0,0.0,2.7484,2.6676,2.6277,2.6277,2.6277,2.6277,2.6358,2.6358,2.6358,2.6358,2.6427,2.6414,2.6414,2.6371,2.6133,2.572,2.5585,0.0,0.0,2.4567,2.4181,2.3688,2.3548,2.3179,2.2665,2.2665,2.2591,2.2494,2.2371,2.2371,2.2309,2.2247,2.1925,2.1526,2.1486,2.1474,2.1588,2.1588,2.1588,2.16,2.1761,2.1824,2.1824,2.1824,2.1726,2.1663,2.1602,2.1981,2.2437,2.2594,2.3026,2.3349,2.3441,2.3508,2.3434,2.315,2.315,2.3001,2.2703,2.2402,2.2402,2.2777,2.2927,2.3001,2.3001,2.2927,2.2927,2.2927,2.2852,2.2927,2.3075,2.315,2.315,2.315,2.3224,2.3224,2.3372,2.3372,2.3372,2.3446,2.3372,2.3372,2.4687,2.4092,2.3255,2.3255,2.2445,2.1937,2.2677,0.0,0.0,0.0,2.3962,2.3846,2.3267,2.3148,0.0,0.0,0.0,0.0,0.0,0.0,0.0,0.0,0.0,0.0,0.0,0.0,0.0,0.0,0.0,0.0,2.7229,2.6402,2.5931,2.5931,2.5931,2.6,2.6233,2.6233,2.6233,2.6233,2.6508,2.6577,2.6414,2.6794,2.6918,2.6867,2.6799,0.0,0.0,2.5919,2.56,2.509,2.509,2.4746,2.42,2.42,2.3882,2.339,2.2969,2.286,2.28,2.2309,2.2185,2.2123,2.2123,2.2135,2.2123,2.2123,2.2123,2.2123,2.2135,2.2135,2.2185,2.2297,2.2384,2.2616,2.2929,2.3409,2.3899,2.4306,2.4752,2.511,2.5087,2.5099,2.4731,2.3666,2.3519,2.3075,2.1807,2.1578,2.1502,2.1436,2.1731,2.1959,2.1959,2.1807,2.1655,2.1655,2.1502,2.1436,2.1436,2.1589,2.1655,2.1655,2.1883,2.2176,2.2478,2.2478,2.2703,2.3075,2.2703,2.2777,2.4436,2.4072,2.359,2.3917,2.3458,2.3053,2.393,0.0,0.0,2.5021,2.5133,2.5077,2.4838,2.4509,2.4221,0.0,0.0,0.0,0.0,0.0,0.0,0.0,0.0,0.0,0.0,0.0,0.0,0.0,0.0,0.0,2.7377,2.704,2.6837,2.6837,2.6837,2.6905,2.6985,2.6918,2.685,2.685,2.6863,2.6875,2.6794,2.6943,2.7024,2.7024,2.7024,0.0,0.0,2.6518,2.612,2.5677,2.5534,2.514,2.4672,2.4672,2.4317,2.3788,2.3603,2.3304,2.2957,2.2787,2.2726,2.2665,2.2309,2.2197,2.2197,2.2197,2.2197,2.2197,2.2197,2.2197,2.2197,2.2247,2.2297,2.248,2.3001,2.3482,2.3893,2.416,2.4601,2.4862,2.4504,2.4432,2.4299,2.3666,2.3224,2.2703,2.2101,2.1655,2.1282,2.1205,2.1359,2.1436,2.1436,2.1359,2.1359,2.1359,2.1205,2.1205,2.1205,2.1282,2.1359,2.1359,2.1436,2.1512,2.1655,2.1655,2.1731,2.1873,2.1731,2.1807,2.4403,2.4215,2.3864,2.4483,2.4163,2.3975,0.0,0.0,2.523,2.5934,2.5988,2.5839,2.5674,2.5216,2.4765,2.4593,0.0,0.0,0.0,0.0,0.0,0.0,0.0,0.0,0.0,0.0,0.0,0.0,0.0,0.0,2.7776,2.7776,2.7723,2.7523,2.7469,2.7469,2.7469,2.7268,2.7214,2.7214,2.7011,2.6943,2.6943,2.6875,2.6875,2.6875,2.6875,0.0,0.0,2.6726,2.643,2.6063,2.5929,2.5523,2.5059,2.5059,2.4707,2.4243,2.4243,2.3979,2.3566,2.3566,2.3527,2.328,2.2849,2.2616,2.2494,2.2494,2.2494,2.2494,2.2494,2.2494,2.2555,2.2555,2.2616,2.28,2.3462,2.3851,2.4207,2.4626,2.4977,2.5075,2.4659,2.4587,2.4443,2.402,2.3423,2.2905,2.2402,2.1807,2.1349,2.1041,2.1041,2.1041,2.1205,2.1138,2.1138,2.1138,2.1051,2.1041,2.1041,2.1051,2.1138,2.1138,2.1205,2.1205,2.1205,2.1205,2.1205,2.1205,2.1205,2.1205,2.4807,2.466,2.4177,2.4856,2.4509,2.4297,0.0,0.0,2.5272,2.6297,2.6204,2.5729,2.5118,2.4751,2.4337,2.3695,2.3884,0.0,0.0,0.0,0.0,0.0,0.0,0.0,0.0,0.0,0.0,0.0,0.0,0.0,2.8481,2.8481,2.8157,2.7523,2.7403,2.7268,2.7268,2.7079,2.7024,2.7024,2.6794,2.6714,2.6714,2.6602,2.6533,0.0,0.0,0.0,0.0,2.6533,2.6521,2.6521,2.6521,2.6101,2.5586,2.5586,2.5259,2.4808,2.4808,2.4808,2.4808,2.4808,2.4431,2.3991,2.3991,2.359,2.3078,2.3078,2.3078,2.3078,2.3078,2.3271,2.3403,2.3403,2.3509,2.3863,2.4773,2.4975,2.5264,2.6307,2.6452,2.6396,2.6201,2.6213,2.5828,2.4862,2.4707,2.4059,2.2327,2.2101,2.1721,2.0722,2.0644,2.0809,2.1205,2.0984,2.0906,2.0906,2.0731,2.0644,2.0644,2.0819,2.0906,2.0906,2.1138,2.1205,2.1205,2.1205,2.1205,2.1205,2.1205,2.1205,2.3695,2.4005,2.4269,2.4685,2.4972,2.5269,2.5819,0.0,2.6136,2.6457,2.6204,2.5839,2.5674,2.5701,2.5673,2.5494,2.5673,0.0,0.0,0.0,0.0,0.0,0.0,0.0,0.0,0.0,0.0,0.0,0.0,0.0,2.8894,2.9008,2.898,2.8889,2.8274,2.8222,2.8675,2.7908,2.7523,2.7523,2.7364,2.704,2.6589,2.6973,2.7162,0.0,0.0,0.0,0.0,2.7855,2.7855,2.7855,2.7855,2.7486,2.6878,2.6878,2.653,2.6052,2.5545,2.5421,2.5421,2.4936,2.4707,2.4556,2.4556,2.3891,2.3078,2.3078,2.3078,2.3078,2.3078,2.3138,2.3198,2.3198,2.3561,2.4053,2.4708,2.5149,2.564,2.6382,2.6396,2.6201,2.605,2.591,2.5618,2.5158,2.4576,2.3925,2.3412,2.2767,2.2176,2.1863,2.1863,2.1568,2.0886,2.0731,2.0654,2.0654,2.0644,2.0566,2.0566,2.0654,2.0654,2.0654,2.0731,2.0809,2.0809,2.0809,2.0809,2.0809,2.0809,2.0809,0.0,2.3918,2.4278,2.4718,2.5179,0.0,0.0,0.0,2.6275,2.6886,2.6525,2.615,2.6297,2.6351,2.6404,2.6404,2.6336,0.0,0.0,0.0,0.0,0.0,0.0,0.0,0.0,0.0,0.0,0.0,0.0,0.0,2.9463,2.9574,2.9732,3.0101,2.9093,2.8712,2.9107,2.8403,2.8078,2.8078,2.7934,2.767,2.7297,2.767,2.7855,0.0,0.0,0.0,0.0,2.8492,2.8492,2.8492,2.8492,2.8247,2.7855,2.7855,2.7694,2.7324,2.687,2.6764,2.6717,2.6361,2.591,2.546,2.4947,2.433,2.3766,2.3766,2.3766,2.3766,2.3766,2.3766,2.3704,2.3642,2.3916,2.4329,2.4878,2.5186,2.5573,2.6283,2.6201,2.598,2.5828,2.5676,2.5535,2.5241,2.4731,2.4227,2.3863,2.3213,2.2703,2.2402,2.2402,2.2101,2.1328,2.1021,2.0867,2.0867,2.0489,2.0333,2.0333,2.0333,2.0333,2.0333,2.0333,2.0333,2.0333,2.0634,2.0944,2.1252,2.1328,2.1328,0.0,2.4327,2.4307,2.4897,2.5041,2.5375,0.0,0.0,0.0,0.0,2.7108,2.6669,2.7019,2.6811,2.6616,2.6616,2.6229,0.0,0.0,0.0,0.0,0.0,0.0,0.0,0.0,0.0,0.0,0.0,0.0,0.0,3.0129,3.0129,3.0447,3.1073,2.978,2.9079,2.8917,2.8698,2.8556,2.8556,2.8556,2.8556,2.8505,2.8556,2.8556,0.0,0.0,0.0,0.0,2.862,2.862,2.862,2.862,2.862,2.8556,2.8556,2.8556,2.8556,2.8492,2.8556,2.8556,2.8492,2.7755,2.6595,2.5396,2.4935,2.4755,2.482,2.4755,2.4755,2.4755,2.4755,2.4691,2.4536,2.4508,2.4669,2.5177,2.5191,2.5376,2.6045,2.598,2.5828,2.5606,2.5606,2.5465,2.5111,2.5052,2.4683,2.3813,2.3677,2.3372,2.2628,2.2553,2.2553,2.2553,2.1776,2.1318,2.1318,2.0557,2.0098,2.0098,2.0098,2.0098,2.0098,2.0098,2.0098,2.0098,2.0857,2.1711,2.2402,2.2628,2.2553,2.4319,0.0,2.3966,2.4392,2.467,2.5002,0.0,0.0,0.0,0.0,0.0,2.6967,2.7071,2.724,2.7444,2.7665,0.0,0.0,0.0,0.0,0.0,0.0,0.0,0.0,0.0,0.0,0.0,0.0,0.0,3.0326,3.0447,3.0568,3.0642,3.0702,3.0507,3.0372,3.0312,2.967,2.9359,2.9359,2.9359,2.8967,2.8338,2.9044,2.9233,0.0,0.0,0.0,3.0115,3.0115,3.0115,3.0115,3.0115,2.9794,2.9359,2.9359,2.9359,2.9282,2.8698,2.8889,2.9219,2.8684,2.8231,2.7851,2.7601,2.6103,2.4613,2.4755,2.4613,2.4394,2.4536,2.4471,2.4329,2.4263,2.4595,2.5006,2.5142,2.5419,2.575,2.5955,2.5828,2.5676,2.5606,2.5394,2.5194,2.5111,2.4838,2.4562,2.4345,2.4116,2.397,2.3824,2.3751,2.3751,2.3751,2.2767,2.209,2.209,2.1939,2.1787,2.1787,2.1787,2.1787,2.1787,2.1787,2.1787,2.1787,2.2014,2.2252,2.2402,2.2478,2.2478,2.4302,2.4177,2.4094,2.4261,2.4453,2.4719,2.5198,0.0,0.0,0.0,0.0,0.0,2.7913,0.0,0.0,0.0,0.0,0.0,0.0,0.0,0.0,0.0,0.0,0.0,0.0,0.0,0.0,0.0,0.0,3.0568,3.0568,3.0702,3.0702,3.0568,3.0702,3.0702,3.0702,3.0251,3.0068,3.0068,2.9993,2.9685,2.9233,2.9637,2.9775,0.0,0.0,0.0,3.0401,3.0462,3.0447,3.0447,3.0568,3.0387,3.0068,3.0068,3.0068,2.9993,2.9594,2.9732,2.9931,2.9044,2.8803,2.8675,2.8287,2.7131,2.6063,2.6206,2.5866,2.5523,2.5602,2.5348,2.4946,2.4866,2.5098,2.533,2.533,2.5481,2.5688,2.5758,2.5606,2.5453,2.5453,2.5253,2.5052,2.4992,2.4706,2.449,2.4345,2.4273,2.42,2.42,2.42,2.42,2.42,2.3593,2.3075,2.2703,2.2317,2.208,2.208,2.208,2.208,2.208,2.208,2.2317,2.2703,2.2703,2.2852,2.3224,2.3298,2.3298,2.4385,2.4426,2.4451,2.4426,2.441,2.4565,2.5195,0.0,0.0,0.0,0.0,0.0,0.0,0.0,0.0,0.0,0.0,0.0,0.0,0.0,0.0,0.0,0.0,0.0,0.0,0.0,0.0,0.0,0.0,3.0851,3.0747,3.0747,3.0687,3.0568,3.0568,3.0568,3.0568,3.0568,3.0568,3.0568,3.0387,3.0266,3.019,3.0158,3.0111,3.005,0.0,0.0,3.0111,3.0219,3.0266,3.0266,3.0462,3.0507,3.0507,3.0507,3.0507,3.0507,3.0507,3.0507,3.0387,2.954,2.9338,2.9233,2.8481,2.817,2.8105,2.8235,2.7696,2.7095,2.7108,2.6645,2.6107,2.5816,2.5746,2.5676,2.5606,2.5382,2.5382,2.5535,2.5382,2.5241,2.5241,2.5111,2.4981,2.479,2.4562,2.4418,2.42,2.42,2.42,2.42,2.42,2.42,2.42,2.42,2.3897,2.3224,2.2531,2.2145,2.2145,2.2145,2.2145,2.2145,2.2145,2.2531,2.315,2.315,2.3519,2.42,2.4345,2.4345,2.4799,2.5059,2.5237,2.4902,2.4831,2.4965,0.0,0.0,0.0,0.0,0.0,0.0,0.0,0.0,0.0,0.0,0.0,0.0,0.0,0.0,0.0,0.0,0.0,0.0,0.0,0.0,0.0,0.0,0.0,0.0,3.1379,3.1364,3.1146,3.0642,3.0568,3.0568,3.0568,3.0447,3.0326,3.0326,3.0219,3.0021,2.987,3.0036,3.0036,2.9884,0.0,3.0111,3.0111,3.0111,3.0111,3.0111,3.0172,3.0172,3.0172,3.0172,3.0172,3.0172,3.0172,3.0172,3.0172,2.9988,2.9837,2.9685,2.956,2.9449,2.9352,2.9352,2.8417,2.7484,2.7643,2.7497,2.7082,2.6414,2.6289,2.6082,2.5453,2.5312,2.5312,2.5312,2.5253,2.5111,2.5111,2.4838,2.4562,2.4562,2.4345,2.42,2.42,2.42,2.42,2.42,2.42,2.42,2.42,2.42,2.4127,2.4043,2.3897,2.3813,2.3813,2.3813,2.3813,2.3813,2.3813,2.3886,2.4043,2.4043,2.4043,2.42,2.42,2.42,2.516,2.554,2.5799,2.5577,2.568,0.0,0.0,0.0,0.0,0.0,0.0,0.0,0.0,0.0,0.0,0.0,0.0,0.0,0.0,0.0,0.0,0.0,0.0,0.0,0.0,0.0,0.0,0.0,0.0,0.0,3.1992,3.2007,3.1709,3.1087,3.1087,3.1087,3.1087,3.0896,3.0777,3.0673,3.0462,3.0326,3.019,2.9974,2.9789,2.9713,0.0,2.9803,2.9865,2.9898,2.996,2.996,3.005,3.0111,3.0111,3.0111,3.0111,3.0111,2.9974,3.0036,3.005,2.9865,2.9837,2.9808,2.9699,2.9665,2.9602,2.9602,2.8867,2.8051,2.813,2.7868,2.7417,2.7082,2.6892,2.662,2.6277,2.607,2.5861,2.5861,2.5861,2.5804,2.5804,2.5594,2.5394,2.5394,2.5253,2.5028,2.4671,2.4886,2.5028,2.4671,2.4957,2.4957,2.4671,2.4599,2.4539,2.4189,2.42,2.42,2.42,2.42,2.42,2.42,2.42,2.42,2.42,2.42,2.42,2.42,2.42,2.42,2.5577,2.5944,2.6245,2.6227,0.0,0.0,0.0,0.0,0.0,0.0,0.0,0.0,0.0,0.0,0.0,0.0,0.0,0.0,0.0,0.0,0.0,0.0,0.0,0.0,0.0,0.0,0.0,0.0,0.0,0.0,3.2586,3.2602,3.2312,3.1709,3.1709,3.1709,3.1709,3.1622,3.1465,3.119,3.0911,3.0732,3.0687,3.0144,2.9913,2.9913,2.9913,2.9913,2.996,3.0068,3.0054,3.0054,3.0158,3.0111,2.9988,2.9988,2.9988,2.9988,2.9837,2.9837,2.9927,2.9665,2.9651,2.9699,2.9665,2.9602,2.9602,2.9602,2.9184,2.8776,2.8776,2.839,2.7947,2.7802,2.7537,2.7284,2.7162,2.6892,2.6688,2.6688,2.6607,2.6607,2.6607,2.6471,2.6333,2.6333,2.6264,2.5906,2.5417,2.5709,2.5779,2.5288,2.5639,2.5652,2.5075,2.4874,2.4671,2.42,2.42,2.42,2.42,2.42,2.42,2.42,2.42,2.42,2.42,2.42,2.42,2.42,2.42,2.42,2.6068,2.635,2.6624,2.6572,0.0,0.0,0.0,0.0,0.0,0.0,0.0,0.0,0.0,0.0,0.0,0.0,0.0,0.0,0.0,0.0,0.0,0.0,0.0,0.0,0.0,0.0,0.0,0.0,0.0,0.0,3.3198,3.3145,3.2879,3.2327,3.2342,3.2342,3.2342,3.2586,3.2351,3.1637,3.1435,3.1218,3.097,3.0911,3.0911,3.0911,3.0911,3.0911,3.0911,3.0911,3.0896,3.0851,3.0433,3.0021,2.9665,2.9665,2.9665,2.9602,2.9602,2.9602,2.9602,2.9602,2.9602,2.9602,2.9602,2.9602,2.9602,2.9602,2.954,2.954,2.954,2.9477,2.9275,2.857,2.8427,2.8247,2.7604,2.7404,2.7417,2.7417,2.7258,2.7111,2.7111,2.6963,2.6815,2.6815,2.6815,2.6693,2.6364,2.6377,2.6239,2.5849,2.5861,2.5652,2.5075,2.4539,2.4261,2.42,2.42,2.42,2.42,2.42,2.42,2.42,2.42,2.42,2.42,2.42,2.42,2.42,2.42,2.42,2.6401,2.6725,2.6923,2.6908,0.0,0.0,0.0,0.0,0.0,0.0,0.0,0.0,0.0,0.0,0.0,0.0,0.0,0.0,0.0,0.0,0.0,0.0,0.0,0.0,0.0,0.0,0.0,0.0,0.0,0.0,0.0,3.3764,3.3491,3.2895,3.2895,3.2895,3.2895,3.2986,3.3002,3.2911,3.2185,3.1679,3.1437,3.1146,3.1029,3.1029,3.1029,3.1029,3.1029,3.1029,3.1029,3.097,3.0792,3.0613,3.0493,3.0493,3.0266,3.0021,3.0021,2.9837,2.9602,2.9602,2.9602,2.9602,2.9602,2.9602,2.9602,2.9602,2.9602,2.9602,2.9602,2.9602,2.954,2.9261,2.8994,2.8803,2.8546,2.83,2.817,2.817,2.8105,2.8091,2.8091,2.7829,2.763,2.763,2.7417,2.7082,2.662,2.6892,2.6892,2.6427,2.607,2.5791,2.5581,2.4743,2.42,2.42,2.42,2.42,2.42,2.42,2.42,2.42,2.42,2.42,2.42,2.42,2.42,2.42,2.42,2.42,2.6725,2.6875,2.6973,0.0,0.0,0.0,0.0,0.0,0.0,0.0,0.0,0.0,0.0,0.0,0.0,0.0,0.0,0.0,0.0,0.0,0.0,0.0,0.0,0.0,0.0,0.0,0.0,0.0,0.0,0.0,0.0,3.4101,3.3933,3.3475,3.3475,3.3475,3.3475,3.3475,3.3559,3.3694,3.298,3.2437,3.2079,3.1667,3.1422,3.1422,3.1422,3.1422,3.1422,3.1422,3.1364,3.1204,3.1204,3.1146,3.1029,3.1029,3.0792,3.0493,3.0493,3.019,2.9851,2.9851,2.9727,2.9602,2.9602,2.9602,2.9602,2.9602,2.9602,2.9602,2.9602,2.9602,2.9602,2.9602,2.9415,2.9289,2.9289,2.9099,2.8908,2.8908,2.8908,2.8908,2.878,2.8587,2.8406,2.8276,2.8,2.7669,2.7201,2.7469,2.7469,2.6985,2.6496,2.6139,2.6139,2.5312,2.4683,2.4467,2.4467,2.4406,2.42,2.4043,2.4043,2.42,2.4043,2.4043,2.42,2.42,2.42,2.42,2.42,2.42,2.7006,2.6825,0.0,0.0,0.0,0.0,0.0,0.0,0.0,0.0,0.0,0.0,0.0,0.0,0.0,0.0,0.0,0.0,0.0,0.0,0.0,0.0,0.0,0.0,0.0,0.0,0.0,0.0,0.0,0.0,0.0,3.4101,3.4101,3.4101,3.4101,3.4101,3.4101,3.4101,3.3949,3.3694,3.371,3.3398,3.2897,3.2578,3.2398,3.2398,3.2398,3.2398,3.2398,3.2398,3.212,3.1739,3.1739,3.1437,3.1029,3.1029,3.1029,3.1029,3.1029,3.0732,3.0312,3.0312,3.0021,2.9602,2.9602,2.9602,2.9602,2.9602,2.9602,2.9602,2.9602,2.9602,2.9602,2.9602,2.9602,2.9602,2.9602,2.9602,2.9602,2.9602,2.9602,2.9477,2.9162,2.9099,2.8972,2.8651,2.8587,2.8471,2.8145,2.8079,2.7947,2.7523,2.6985,2.6714,2.6714,2.622,2.5639,2.5075,2.5004,2.4743,2.4189,2.3824,2.3824,2.42,2.3824,2.3824,2.42,2.42,2.42,2.42,2.42,2.42,2.7053,2.7244,0.0,0.0,0.0,0.0,0.0,0.0,0.0,0.0,0.0,0.0,0.0,0.0,0.0,0.0,0.0,0.0,0.0,0.0,0.0,0.0,0.0,0.0,0.0,0.0,0.0,0.0,0.0,0.0,0.0,3.4101,3.4101,3.4101,3.4101,3.425,3.4497,3.425,3.4333,3.4754,3.4333,3.3694,3.2897,3.2773,3.2648,3.2398,3.2398,3.2398,3.2398,3.2398,3.2342,3.2176,3.2176,3.2104,3.1992,3.1992,3.1781,3.1495,3.1495,3.1204,3.0792,3.0792,3.0732,3.0553,3.019,3.0083,3.0021,2.9665,2.9602,2.9602,2.9602,2.9602,2.9602,2.9602,2.9602,2.9602,2.9602,2.9602,2.954,2.9289,2.9226,2.9162,2.878,2.8522,2.8341,2.8276,2.8,2.7802,2.7669,2.7669,2.7603,2.7523,2.6985,2.6714,2.6714,2.622,2.5791,2.5639,2.5652,2.5229,2.4273,2.3824,2.3677,2.3751,2.3372,2.3224,2.3372,2.3372,2.3372,2.3372,2.3677,2.3897,2.7307,0.0,0.0,0.0,0.0,0.0,0.0,0.0,0.0,0.0,0.0,0.0,0.0,0.0,0.0,0.0,0.0,0.0,0.0,0.0,0.0,0.0,0.0,0.0,0.0,0.0,0.0,0.0,0.0,0.0,0.0,3.4513,3.4513,3.4513,3.4513,3.4658,3.4913,3.4675,3.4754,3.5178,3.4849,3.4317,3.3662,3.3261,3.2904,3.2578,3.2453,3.2398,3.2398,3.2398,3.2398,3.2398,3.2398,3.2398,3.2398,3.2398,3.2231,3.1951,3.1951,3.1667,3.1263,3.1263,3.1146,3.097,3.0673,3.0553,3.0493,3.0266,3.0021,2.9898,2.9898,2.9727,2.9602,2.9602,2.9602,2.9602,2.9602,2.9602,2.9477,2.9162,2.9099,2.8972,2.8471,2.821,2.8013,2.7881,2.7669,2.7523,2.7523,2.7523,2.7523,2.7523,2.7188,2.6985,2.6985,2.6701,2.6414,2.622,2.622,2.5804,2.4886,2.4515,2.436,2.4515,2.4143,2.3925,2.402,2.402,2.4009,2.3936,2.4166,2.4394,0.0,0.0,0.0,0.0,0.0,0.0,0.0,0.0,0.0,0.0,0.0,0.0,0.0,0.0,0.0,0.0,0.0,0.0,0.0,0.0,0.0,0.0,0.0,0.0,0.0,0.0,0.0,0.0,0.0,0.0,0.0,3.5224,3.5224,3.5224,3.5224,3.5224,3.527,3.5224,3.5224,3.5316,3.527,3.5115,3.4878,3.3937,3.3335,3.3043,3.2726,3.2532,3.2547,3.2547,3.2547,3.2547,3.2547,3.2492,3.2492,3.2492,3.2437,3.2398,3.2398,3.212,3.1781,3.1781,3.1495,3.1146,3.1087,3.1087,3.1029,3.1029,3.0673,3.0372,3.0372,3.0021,2.9727,2.9727,2.9602,2.954,2.954,2.954,2.9415,2.9099,2.9035,2.878,2.8145,2.8013,2.7947,2.7536,2.7523,2.7523,2.7523,2.7523,2.7523,2.7523,2.7523,2.7523,2.7523,2.7523,2.7255,2.6782,2.6782,2.6564,2.607,2.5557,2.5487,2.5849,2.5475,2.5346,2.5535,2.5535,2.5453,2.5229,2.5229,2.53,0.0,0.0,0.0,0.0,0.0,0.0,0.0,0.0,0.0,0.0,0.0,0.0,0.0,0.0,0.0,0.0,0.0,0.0,0.0,0.0,0.0,0.0,0.0,0.0,0.0,0.0,0.0,0.0,0.0,0.0,3.5224,3.5224,3.5224,3.5224,3.5224,3.5362,3.5677,3.5362,3.5498,0.0,3.581,3.5633,3.5571,3.483,3.4333,3.4053,3.3887,3.3836,3.3786,3.3716,3.3681,3.3681,3.3681,3.3407,3.3039,3.3039,3.2734,3.2398,3.2398,3.2327,3.2231,3.2231,3.216,3.2048,3.1667,3.1552,3.1495,3.1087,3.0911,3.0851,3.0851,3.0792,3.0673,3.0553,2.9884,2.9226,2.9226,2.8972,2.8716,2.8406,2.8341,2.8197,2.7736,2.7603,2.7603,2.7523,2.7523,2.7523,2.7523,2.7523,2.7523,2.7523,2.7523,2.7523,2.7523,2.7523,2.7456,2.7323,2.7323,2.7255,2.7188,2.5963,2.5334,2.5417,2.5028,2.4815,2.4898,2.4898,2.4898,2.4815,2.4992,2.5217,0.0,0.0,0.0,0.0,0.0,0.0,0.0,0.0,0.0,0.0,0.0,0.0,0.0,0.0,0.0,0.0,0.0,0.0,0.0,0.0,0.0,0.0,0.0,0.0,0.0,0.0,0.0,0.0,0.0,3.5941,3.5766,3.5722,3.5722,3.5722,3.5722,3.581,3.6045,3.581,3.5941,3.6301,3.6131,3.6045,3.5985,3.5174,3.4624,3.4382,3.4333,3.4284,3.4186,3.4103,3.407,3.3986,3.3986,3.3818,3.3563,3.3287,3.3039,3.2749,3.2492,3.2398,3.2398,3.2398,3.2398,3.2342,3.212,3.2064,3.2007,3.1709,3.148,3.1321,3.1263,3.1073,3.0851,3.0732,3.0312,2.9884,2.9837,2.9713,2.9338,2.8716,2.8817,2.8675,2.7656,2.7523,2.7523,2.7523,2.7523,2.7523,2.7523,2.7523,2.7523,2.7523,2.7523,2.7523,2.7523,2.7469,2.7403,2.7523,2.7469,2.7403,2.7523,2.6744,2.6321,2.6321,2.6171,2.6032,2.5963,2.5963,2.5894,2.5836,2.5931,2.6082,0.0,0.0,0.0,0.0,0.0,0.0,0.0,0.0,0.0,0.0,0.0,0.0,0.0,0.0,0.0,0.0,0.0,0.0,0.0,0.0,0.0,0.0,0.0,0.0,0.0,0.0,0.0,0.0,0.0,3.6301,3.6301,3.6301,3.6301,3.6301,3.6301,3.6301,3.6301,3.6301,3.6301,3.6301,3.6301,3.6301,3.6259,3.5448,3.4925,3.4719,3.4736,3.464,3.4528,3.4496,3.4399,3.4333,3.4284,3.4235,3.407,3.3649,3.3391,3.3251,3.2857,3.2711,3.2641,3.2547,3.2547,3.2547,3.2453,3.2398,3.2398,3.2398,3.212,3.1781,3.1652,3.1364,3.1014,3.0866,3.0911,3.0911,3.0568,3.0433,3.019,2.9324,2.9484,2.9331,2.7908,2.759,2.7523,2.7523,2.7523,2.7523,2.7523,2.7523,2.7523,2.7523,2.7523,2.7523,2.7523,2.7403,2.7335,2.7469,2.7335,2.7268,2.7403,2.7403,2.7403,2.7403,2.7469,2.7469,2.7335,2.7335,2.7268,2.7079,2.7079,2.7011,0.0,0.0,0.0,0.0,0.0,0.0,0.0,0.0,0.0,0.0,0.0,0.0,0.0,0.0,0.0,0.0,0.0,0.0,0.0,0.0,0.0,0.0,0.0,0.0,0.0,0.0,0.0,0.0,3.6301,3.6301,3.6301,3.6301,3.6301,3.6301,3.6301,3.6301,3.6301,3.6301,3.6301,3.6301,3.6301,3.6301,3.6301,3.6156,3.6054,3.6054,3.6002,3.5932,3.5915,3.5694,3.5577,3.5577,3.5424,3.5115,3.4673,3.4625,3.4268,3.3869,3.3818,3.3783,3.3716,3.3251,3.3093,3.2986,3.2547,3.2398,3.2398,3.2398,3.2342,3.2272,3.2272,3.2176,3.1966,3.1868,3.1712,3.1351,3.0329,2.9827,2.958,2.9456,2.903,2.8597,2.8417,2.7908,2.7523,2.7523,2.7523,2.7523,2.7523,2.7523,2.7523,2.7523,2.7523,2.7523,2.7523,2.7403,2.7335,2.7335,2.7146,2.7011,2.7079,2.7079,2.7079,2.7079,2.7335,2.7456,2.7469,2.7469,2.7469,2.7403,2.7335,2.7268,0.0,0.0,0.0,0.0,0.0,0.0,0.0,0.0,0.0,0.0,0.0,0.0,0.0,0.0,0.0,0.0,0.0,0.0,0.0,0.0,0.0,0.0,0.0,0.0,0.0,0.0,0.0,0.0,3.6301,3.6301,3.6301,3.6301,3.6301,3.6301,3.6301,3.6301,3.6301,3.6301,3.6301,3.6301,3.6301,3.6301,3.6301,3.6301,3.6301,3.6301,3.6276,3.6251,3.6182,3.6079,3.5949,3.5773,3.5728,3.5515,3.5224,3.4927,3.4673,3.4431,3.407,3.3986,3.3919,3.3339,3.3182,3.3093,3.2547,3.2398,3.2398,3.2398,3.2398,3.2398,3.2302,3.2191,3.2038,3.194,3.1784,3.1482,3.097,3.0718,3.0524,3.0133,2.9219,2.8481,2.8481,2.7908,2.7523,2.7523,2.7523,2.7523,2.7523,2.7523,2.7523,2.7523,2.7523,2.7469,2.7403,2.7214,2.7146,2.7146,2.693,2.6875,2.7024,2.7024,2.7024,2.7024,2.7268,2.7403,2.7403,2.7469,2.7469,2.7403,2.7335,2.7214,0.0,0.0,0.0,0.0,0.0,0.0,0.0,0.0,0.0,0.0,0.0,0.0,0.0,0.0,0.0,0.0,0.0,0.0,0.0,0.0,0.0,0.0,0.0,0.0,0.0,0.0,0.0,0.0,3.6301,3.6301,3.6301,3.6301,3.6301,3.6301,3.6301,3.6301,3.6301,3.6301,3.6301,3.6301,3.6301,3.6301,3.6301,3.6301,3.6301,3.6301,3.6301,3.6276,3.6208,3.6225,3.6036,3.5861,3.5817,3.5728,3.556,3.5178,3.5021,3.4927,3.4529,3.4431,3.4284,3.3598,3.3391,3.3303,3.2586,3.2398,3.2398,3.2398,3.2398,3.2342,3.2247,3.2094,3.194,3.1841,3.167,3.1482,3.1482,3.1482,3.1351,3.0837,2.978,2.9044,2.9044,2.8468,2.796,2.7776,2.7908,2.7908,2.7523,2.759,2.7656,2.7469,2.7469,2.7403,2.7335,2.7146,2.7024,2.7024,2.6807,2.6726,2.6888,2.6875,2.6875,2.6875,2.7066,2.7201,2.7214,2.7335,2.7335,2.7214,2.7214,2.7146,0.0,0.0,0.0,0.0,0.0,0.0,0.0,0.0,0.0,0.0,0.0,0.0,0.0,0.0,0.0,0.0,0.0,0.0,0.0,0.0,0.0,0.0,0.0,0.0,0.0,0.0,0.0,0.0,3.6301,3.6301,3.6301,3.6301,3.6301,3.6301,3.6301,3.6301,3.6301,3.6301,3.6301,3.6301,3.6301,3.6301,3.6301,3.6301,3.6301,3.6301,3.6301,3.6301,3.6301,3.6208,3.6122,3.5975,3.5861,3.5728,3.5577,3.5577,3.5577,3.556,3.5532,3.5515,3.5316,3.4284,3.3986,3.3767,3.2695,3.2398,3.2398,3.2398,3.2398,3.2342,3.2247,3.2094,3.194,3.1841,3.167,3.1482,3.1482,3.1482,3.1482,3.1467,3.0896,3.0404,3.0404,2.9827,2.9205,2.8532,2.8967,2.8953,2.7643,2.7908,2.8039,2.7403,2.7335,2.7335,2.7268,2.7146,2.7024,2.7024,2.6671,2.6533,2.6533,2.6533,2.6533,2.6533,2.6658,2.6794,2.7024,2.7024,2.7024,2.7024,2.7024,2.7024,0.0,0.0,0.0,0.0,0.0,0.0,0.0,0.0,0.0,0.0,0.0,0.0,0.0,0.0,0.0,0.0,0.0,0.0,0.0,0.0,0.0,0.0,0.0,0.0,0.0,0.0,0.0,0.0,0.0,3.6301,3.6301,3.6301,3.6301,3.6301,3.6301,3.6301,3.6301,3.6301,3.6301,3.6301,3.6301,3.6301,3.6301,3.6301,3.6301,3.6301,3.6301,3.6301,3.6301,3.6259,3.6148,3.5975,3.5949,3.58,3.5622,3.5622,3.5622,3.5622,3.5622,3.5622,3.547,3.4769,3.4284,3.3869,3.3145,3.2695,3.2398,3.2398,3.2398,3.2342,3.2247,3.2094,3.194,3.1655,3.1539,3.1482,3.1482,3.1482,3.1351,3.097,3.0644,3.0329,2.995,2.9628,2.9442,2.9205,2.9331,2.9317,2.8826,2.8597,2.8352,2.8105,2.7723,2.7403,2.7335,2.7214,2.7146,2.7024,2.6807,2.6658,2.6658,2.6521,2.6533,2.6533,2.6521,2.6658,2.6794,2.6943,2.6943,2.6794,2.6794,2.6726,0.0,0.0,0.0,0.0,0.0,0.0,0.0,0.0,0.0,0.0,0.0,0.0,0.0,0.0,0.0,0.0,0.0,0.0,0.0,0.0,0.0,0.0,0.0,0.0,0.0,0.0,0.0,0.0,0.0,0.0,3.6301,3.6301,3.6385,3.6492,3.6638,3.6719,3.6719,3.6719,3.6638,3.6492,3.6492,3.6409,3.6301,3.6301,3.6301,3.6301,3.6301,3.6301,3.6301,3.6301,3.6174,3.6019,3.6019,3.5844,3.5622,3.5622,3.5622,3.5622,3.5622,3.5622,3.5515,3.4975,3.4577,3.4185,3.3614,3.3198,3.2964,3.2964,3.2803,3.2641,3.2453,3.2135,3.1769,3.1539,3.1482,3.1482,3.1482,3.1482,3.1351,3.0896,3.0837,3.0703,3.0269,3.0147,3.0072,2.9889,3.0011,2.995,2.9268,2.8903,2.861,2.8157,2.7723,2.7403,2.7335,2.7268,2.7214,2.7079,2.6943,2.6794,2.6794,2.6739,2.6671,2.6671,2.6589,2.6589,2.6714,2.6807,2.6739,2.6658,2.6658,2.669,0.0,0.0,0.0,0.0,0.0,0.0,0.0,0.0,0.0,0.0,0.0,0.0,0.0,0.0,0.0,0.0,0.0,0.0,0.0,0.0,0.0,0.0,0.0,0.0,0.0,0.0,0.0,0.0,3.6326,3.6343,3.6343,3.6343,3.6492,3.686,3.7283,3.7469,3.7469,3.7469,3.7283,3.686,3.686,3.6678,3.6301,3.6301,3.6301,3.6301,3.6301,3.6301,3.6301,3.6301,3.6174,3.6019,3.6019,3.5844,3.5622,3.5622,3.5622,3.5622,3.5622,3.5622,3.5515,3.4975,3.4816,3.4673,3.4185,3.4036,3.3986,3.3986,3.3614,3.3145,3.2895,3.216,3.1482,3.1482,3.1482,3.1482,3.1482,3.1482,3.1482,3.1482,3.1482,3.1482,3.1482,3.1482,3.1278,3.0644,3.1087,3.0777,2.8853,2.9044,2.8867,2.7523,2.7335,2.7335,2.7335,2.7335,2.7335,2.7335,2.7146,2.7024,2.7024,2.7024,2.7024,2.7024,2.6794,2.6714,2.6714,2.6589,2.6533,2.6533,2.6546,2.6779,2.8071,0.0,0.0,0.0,0.0,0.0,0.0,3.1563,0.0,0.0,0.0,0.0,0.0,0.0,0.0,0.0,0.0,0.0,0.0,0.0,0.0,0.0,0.0,0.0,0.0,0.0,0.0,0.0,3.67,3.717,3.717,3.69,3.6638,3.6492,3.6557,3.6638,3.6638,3.6638,3.6557,3.6451,3.6451,3.6409,3.6301,3.6301,3.6301,3.6301,3.6301,3.6301,3.6301,3.6301,3.6174,3.6019,3.6019,3.5844,3.5622,3.5622,3.5622,3.5622,3.5622,3.5622,3.5577,3.5424,3.5131,3.4769,3.4625,3.4333,3.3986,3.3986,3.385,3.3559,3.2857,3.2064,3.1482,3.1482,3.1482,3.1482,3.1482,3.1482,3.1482,3.1482,3.1482,3.1482,3.1482,3.1482,3.1409,3.1219,3.1409,3.1292,3.0718,3.0404,2.9842,2.9016,2.8468,2.7973,2.7456,2.7469,2.7469,2.7469,2.7268,2.7214,2.7214,2.7079,2.7024,2.7024,2.6956,2.6943,2.6943,2.6671,2.6533,2.6533,2.6866,2.7356,0.0,0.0,0.0,0.0,0.0,0.0,3.022,3.1012,3.1751,0.0,0.0,0.0,0.0,0.0,0.0,0.0,0.0,0.0,0.0,0.0,0.0,0.0,0.0,0.0,0.0,3.5665,3.5898,3.5543,3.6434,3.7166,3.7487,3.7432,3.7266,3.7055,3.719,3.7321,3.7321,3.7321,3.7208,3.7055,3.7055,3.6978,3.6781,3.6781,3.6781,3.6781,3.6781,3.6781,3.6781,3.6557,3.6284,3.6019,3.6019,3.5844,3.5622,3.5622,3.5622,3.5622,3.5622,3.5622,3.5622,3.5622,3.5379,3.5115,3.5115,3.4927,3.4673,3.4673,3.4251,3.3594,3.2803,3.2064,3.1482,3.1482,3.1482,3.1482,3.1482,3.1482,3.1482,3.1482,3.1482,3.1482,3.1482,3.1482,3.1482,3.1482,3.1482,3.1409,3.1087,3.0718,3.0269,2.9566,2.9142,2.8776,2.8403,2.8325,2.8325,2.8325,2.8026,2.7776,2.7776,2.7403,2.7214,2.7214,2.7146,2.7194,2.737,2.6922,2.6853,2.7094,2.7652,2.8138,0.0,0.0,0.0,0.0,0.0,0.0,3.027,3.06,3.1034,0.0,0.0,0.0,0.0,0.0,0.0,0.0,0.0,0.0,0.0,0.0,0.0,0.0,0.0,0.0,3.5385,3.5548,3.5457,3.5059,3.5809,3.663,3.7399,3.7787,3.7977,3.8016,3.8368,3.8564,3.8564,3.8564,3.8401,3.8016,3.8016,3.7844,3.7505,3.7505,3.7505,3.7505,3.7505,3.7505,3.7469,3.6904,3.6457,3.6062,3.6019,3.5844,3.5622,3.5622,3.5622,3.5622,3.5622,3.5622,3.5622,3.5622,3.5622,3.5622,3.5622,3.5622,3.5577,3.5577,3.4657,3.3547,3.2895,3.2216,3.1682,3.1682,3.1682,3.1682,3.1682,3.164,3.1582,3.1582,3.1539,3.1482,3.1482,3.1482,3.1482,3.1482,3.1482,3.1278,3.0703,3.0584,3.0329,2.969,2.9628,2.9566,2.9504,2.9504,2.9504,2.9504,2.8967,2.8597,2.8597,2.8026,2.7709,2.7709,2.7709,2.7808,2.8179,2.7481,2.7396,2.8029,2.8666,2.9121,0.0,0.0,0.0,0.0,0.0,0.0,2.8853,2.9808,3.057,0.0,0.0,0.0,0.0,0.0,0.0,0.0,0.0,0.0,0.0,0.0,0.0,0.0,0.0,0.0,3.3773,3.4597,3.4991,3.4653,3.5666,3.6516,3.6988,3.7091,3.728,3.7596,3.7685,3.7721,3.7721,3.7721,3.7685,3.7614,3.7614,3.7578,3.7505,3.7505,3.7505,3.7505,3.7505,3.7469,3.7376,3.6904,3.6603,3.6433,3.6019,3.5711,3.5622,3.5622,3.5622,3.5622,3.5622,3.5622,3.5622,3.5622,3.5622,3.5622,3.5622,3.5622,3.5577,3.5412,3.4754,3.4036,3.3866,3.3335,3.2879,3.2879,3.2879,3.2879,3.2879,3.2532,3.2231,3.2231,3.1853,3.1482,3.1482,3.1482,3.1482,3.1482,3.1482,3.1467,3.1351,3.1278,3.1029,3.0389,3.0329,3.0072,2.9566,2.9504,2.9504,2.9504,2.9393,2.9317,2.9317,2.9205,2.9142,2.9142,2.9614,2.9919,2.9979,2.8447,2.7985,2.8536,2.9797,3.0053,0.0,0.0,0.0,2.8055,0.0,0.0,0.0,2.9775,3.0482,3.1243,0.0,0.0,0.0,0.0,0.0,0.0,0.0,0.0,0.0,0.0,0.0,0.0,0.0,0.0,3.3569,3.4073,3.4522,3.4717,3.5318,3.5923,3.6559,3.6978,3.7298,3.7486,3.7902,3.8101,3.8101,3.8101,3.8101,3.8101,3.8101,3.8101,3.8101,3.8101,3.8101,3.8101,3.8101,3.7913,3.7596,3.7135,3.6764,3.6457,3.5958,3.5728,3.5622,3.5622,3.5622,3.5622,3.5622,3.5622,3.5622,3.5622,3.5622,3.5622,3.5622,3.5594,3.552,3.5337,3.4754,3.4185,3.4134,3.3646,3.3182,3.3182,3.3182,3.3182,3.3182,3.2986,3.2788,3.2788,3.2327,3.1853,3.1524,3.1482,3.1482,3.1482,3.1482,3.1482,3.1482,3.1482,3.1351,3.1029,3.1029,3.0837,3.0524,3.0524,3.0524,3.0524,3.0208,3.0011,3.0011,2.969,2.9659,3.0017,3.065,3.1129,3.1425,3.0569,3.0252,3.0548,3.1266,3.1496,0.0,0.0,0.0,0.0,0.0,2.8473,0.0,0.0,0.0,3.2107,0.0,0.0,0.0,0.0,0.0,0.0,0.0,0.0,0.0,0.0,0.0,0.0,0.0,0.0,0.0,3.3762,3.4082,3.4715,3.4752,3.5147,3.6009,3.6817,3.7331,3.7507,3.8285,3.8707,3.8707,3.8707,3.8707,3.8707,3.8707,3.8707,3.8707,3.8707,3.8707,3.8707,3.8658,3.8415,3.7946,3.7396,3.6921,3.6457,3.5958,3.5684,3.5622,3.5622,3.5622,3.5622,3.5622,3.5622,3.5622,3.5622,3.5622,3.5577,3.5577,3.5503,3.5446,3.5291,3.4818,3.4301,3.4284,3.3901,3.3511,3.3511,3.3511,3.3511,3.3511,3.3339,3.3182,3.3182,3.268,3.212,3.1754,3.1582,3.1482,3.1482,3.1482,3.1482,3.1482,3.1482,3.1482,3.1482,3.1482,3.1482,3.1482,3.1482,3.1482,3.1482,3.1087,3.0833,3.0893,3.0495,3.0549,3.1048,3.1768,3.2339,3.2787,3.2901,3.2823,3.2551,3.2687,3.2942,0.0,0.0,0.0,0.0,2.9755,0.0,0.0,0.0,3.0956,3.0924,0.0,0.0,0.0,0.0,0.0,0.0,0.0,0.0,0.0,0.0,0.0,0.0,0.0,0.0,0.0,3.3625,3.3844,3.3935,3.3935,3.4302,3.5082,3.5973,3.6743,3.7489,3.8285,3.8707,3.8707,3.8707,3.8707,3.8707,3.8707,3.8707,3.8707,3.8707,3.8707,3.8707,3.8559,3.8446,3.8267,3.7396,3.696,3.6741,3.5941,3.5622,3.5622,3.5622,3.5622,3.5622,3.5622,3.5622,3.5622,3.5622,3.5622,3.5577,3.552,3.5446,3.5291,3.5152,3.4994,3.4835,3.4787,3.4739,3.4691,3.4691,3.4691,3.4691,3.4691,3.3935,3.3182,3.3182,3.2312,3.1754,3.2231,3.1853,3.1482,3.1482,3.1482,3.1482,3.1482,3.1482,3.1482,3.1482,3.1482,3.1482,3.1482,3.1482,3.1482,3.1482,3.1827,3.2079,3.2273,3.2764,3.3106,3.3181,3.3821,3.4193,3.4267,3.4877,3.447,3.3115,3.379,3.3765,0.0,0.0,0.0,0.0,0.0,0.0,3.0612,0.0,3.1165,0.0,0.0,0.0,0.0,0.0,0.0,0.0,0.0,0.0,0.0,0.0,0.0,0.0,0.0,0.0,0.0,0.0,0.0,0.0,3.368,3.3954,3.4302,3.5092,3.5936,3.678,3.7569,3.823,3.8707,3.8707,3.8707,3.8707,3.8707,3.8707,3.8707,3.8609,3.859,3.8559,3.8478,3.8117,3.756,3.7173,3.6666,3.6097,3.5739,3.5622,3.5622,3.5622,3.5622,3.5622,3.5622,3.5622,3.5622,3.5622,3.5594,3.552,3.5492,3.5337,3.5198,3.5105,3.4994,3.4899,3.4899,3.4899,3.4899,3.4899,3.4899,3.4899,3.4899,3.4513,3.4202,3.4202,3.3543,3.3087,3.3351,3.2342,3.1482,3.1482,3.1482,3.1467,3.1409,3.1409,3.1558,3.1901,3.1946,3.2154,3.2632,3.2677,3.2602,3.2481,3.2659,3.2883,3.308,3.3709,3.4068,3.4068,3.4726,3.507,3.507,3.537,3.5148,3.4572,3.4839,3.4839,3.1765,0.0,0.0,0.0,0.0,0.0,0.0,0.0,0.0,0.0,0.0,0.0,0.0,0.0,0.0,0.0,0.0,0.0,0.0,0.0,0.0,0.0,0.0,0.0,0.0,0.0,0.0,0.0,0.0,3.3807,3.3807,3.4578,3.5404,3.6266,3.7074,3.7881,3.8689,3.8707,3.8707,3.8707,3.8707,3.8707,3.8707,3.8559,3.851,3.851,3.8433,3.7982,3.734,3.719,3.6764,3.6097,3.5871,3.5783,3.5783,3.5667,3.5622,3.5622,3.5622,3.5622,3.5622,3.5622,3.5549,3.5492,3.5446,3.5291,3.5088,3.5058,3.4994,3.4899,3.4899,3.4899,3.4899,3.4899,3.4899,3.4899,3.4899,3.4787,3.4691,3.4691,3.4234,3.3931,3.4124,3.2928,3.2012,3.2209,3.2068,3.1955,3.2018,3.1871,3.196,3.245,3.2494,3.2809,3.3393,3.3499,3.3498,3.3476,3.3553,3.3704,3.3961,3.4502,3.4756,3.4756,3.525,3.5504,3.5504,3.5504,3.5504,3.5504,3.5504,3.5504,0.0,0.0,0.0,3.2332,0.0,0.0,0.0,0.0,3.1765,0.0,0.0,0.0,0.0,0.0,0.0,0.0,0.0,0.0,0.0,0.0,0.0,0.0,0.0,0.0,0.0,0.0,0.0,0.0,0.0,0.0,3.3807,3.4578,3.5404,3.6266,3.7074,3.7881,3.8689,3.8707,3.8707,3.8707,3.8707,3.8707,3.8707,3.8559,3.851,3.851,3.8354,3.8307,3.8223,3.7703,3.7469,3.734,3.6597,3.6301,3.6216,3.5756,3.5622,3.5622,3.5622,3.5622,3.5622,3.5622,3.5549,3.5492,3.5354,3.5198,3.5088,3.4947,3.4899,3.4899,3.4899,3.4899,3.4899,3.4899,3.4899,3.4899,3.4899,3.4497,3.4151,3.4151,3.3646,3.3472,3.4153,3.364,3.3329,3.3944,3.345,3.3236,3.3847,3.3348,3.2945,3.2974,3.3084,3.3193,3.3223,3.3362,3.3692,3.4129,3.4364,3.4663,3.5124,3.5329,3.5474,3.5474,3.5489,3.5504,3.5504,3.5504,3.5504,3.5504,3.5504,3.5504,0.0,0.0,3.3419,3.3302,0.0,0.0,0.0,0.0,0.0,0.0,0.0,0.0,0.0,0.0,0.0,0.0,0.0,0.0,0.0,0.0,0.0,0.0,0.0,0.0,0.0,0.0,0.0,0.0,0.0,0.0,0.0,3.4064,3.4853,3.6248,3.656,3.7349,3.8689,3.8707,3.8707,3.8707,3.8707,3.8658,3.8559,3.8478,3.8401,3.8354,3.8274,3.8054,3.7756,3.7578,3.734,3.7094,3.6781,3.6516,3.6259,3.5783,3.5622,3.5622,3.5622,3.5622,3.5577,3.5566,3.5475,3.5337,3.5198,3.5088,3.4947,3.4899,3.4899,3.4899,3.4899,3.4899,3.4899,3.4899,3.4899,3.4899,3.4899,3.4739,3.4791,3.5284,3.5201,3.5313,3.6048,3.5967,3.5558,3.4936,3.4591,3.4384,3.4469,3.4266,3.4315,3.4729,3.4454,3.445,3.5105,3.485,3.4778,3.5066,3.5016,3.5121,3.5359,3.5439,3.5504,3.5504,3.5504,3.5504,3.5504,3.5504,3.5504,3.5504,3.5504,3.5504,3.3815,3.3815,0.0,3.3652,3.3625,0.0,3.3063,0.0,0.0,0.0,0.0,0.0,0.0,0.0,0.0,0.0,0.0,0.0,0.0,2.7538,0.0,0.0,0.0,0.0,0.0,0.0,0.0,0.0,0.0,0.0,0.0,0.0,3.4578,3.6248,3.6303,3.7074,3.8689,3.8707,3.8707,3.8707,3.8658,3.859,3.851,3.8401,3.8354,3.8307,3.8225,3.802,3.7756,3.7756,3.7613,3.7339,3.717,3.686,3.6451,3.6002,3.5739,3.5622,3.5622,3.5577,3.5549,3.5537,3.54,3.5198,3.5152,3.4994,3.4899,3.4899,3.4899,3.4899,3.4899,3.4899,3.4899,3.4899,3.4899,3.4899,3.4899,3.5098,3.5429,3.5909,3.6208,3.6638,3.7367,3.7448,3.7157,3.6307,3.5935,3.5733,3.5807,3.5591,3.5602,3.6069,3.5492,3.5316,3.5721,3.5459,3.5359,3.5359,3.5359,3.5359,3.5504,3.5504,3.5504,3.5504,3.5504,3.5504,3.5504,3.5504,3.5504,3.5504,3.5504,3.5504]}]]